<?xml version="1.0" encoding="UTF-8" standalone="no" ?>
<gpx xmlns="http://www.topografix.com/GPX/1/1" xmlns:xsi="http://www.w3.org/2001/XMLSchema-instance" xsi:schemaLocation="http://www.topografix.com/GPX/1/1 http://www.topografix.com/GPX/1/1/gpx.xsd" version="1.1" creator="VisuGPX - https://www.visugpx.com">
  <metadata>
    <name>Marigny.Le tour du lac de Chalain depuis La Pergola</name>
  </metadata>
  <trk>
    <name><![CDATA[tmp]]></name>
    <trkseg>
      <trkpt lat="46.67863" lon="5.77972">
        <ele>480.2</ele>
        <time>2020-11-29T12:36:11Z</time>
      </trkpt>
      <trkpt lat="46.67858" lon="5.77973">
        <ele>482.9</ele>
        <time>2020-11-29T12:36:30Z</time>
      </trkpt>
      <trkpt lat="46.67853" lon="5.77972">
        <ele>482.5</ele>
        <time>2020-11-29T12:36:35Z</time>
      </trkpt>
      <trkpt lat="46.67848" lon="5.77972">
        <ele>481.9</ele>
        <time>2020-11-29T12:36:39Z</time>
      </trkpt>
      <trkpt lat="46.67843" lon="5.77972">
        <ele>481.5</ele>
        <time>2020-11-29T12:36:43Z</time>
      </trkpt>
      <trkpt lat="46.67838" lon="5.7797">
        <ele>481.4</ele>
        <time>2020-11-29T12:36:49Z</time>
      </trkpt>
      <trkpt lat="46.67834" lon="5.77969">
        <ele>480.3</ele>
        <time>2020-11-29T12:36:55Z</time>
      </trkpt>
      <trkpt lat="46.6783" lon="5.77973">
        <ele>477.9</ele>
        <time>2020-11-29T12:37:03Z</time>
      </trkpt>
      <trkpt lat="46.67828" lon="5.77979">
        <ele>478.9</ele>
        <time>2020-11-29T12:37:07Z</time>
      </trkpt>
      <trkpt lat="46.67827" lon="5.77987">
        <ele>480.6</ele>
        <time>2020-11-29T12:37:11Z</time>
      </trkpt>
      <trkpt lat="46.67824" lon="5.77992">
        <ele>482.1</ele>
        <time>2020-11-29T12:37:14Z</time>
      </trkpt>
      <trkpt lat="46.6782" lon="5.77997">
        <ele>482.6</ele>
        <time>2020-11-29T12:37:16Z</time>
      </trkpt>
      <trkpt lat="46.67815" lon="5.78004">
        <ele>483.1</ele>
        <time>2020-11-29T12:37:18Z</time>
      </trkpt>
      <trkpt lat="46.6781" lon="5.78012">
        <ele>483.5</ele>
        <time>2020-11-29T12:37:20Z</time>
      </trkpt>
      <trkpt lat="46.67803" lon="5.78026">
        <ele>480.7</ele>
        <time>2020-11-29T12:37:49Z</time>
      </trkpt>
      <trkpt lat="46.67798" lon="5.78024">
        <ele>481.8</ele>
        <time>2020-11-29T12:37:55Z</time>
      </trkpt>
      <trkpt lat="46.67793" lon="5.78024">
        <ele>482.1</ele>
        <time>2020-11-29T12:38:00Z</time>
      </trkpt>
      <trkpt lat="46.67789" lon="5.78026">
        <ele>482.1</ele>
        <time>2020-11-29T12:38:05Z</time>
      </trkpt>
      <trkpt lat="46.67784" lon="5.78027">
        <ele>482.4</ele>
        <time>2020-11-29T12:38:10Z</time>
      </trkpt>
      <trkpt lat="46.67778" lon="5.78028">
        <ele>483</ele>
        <time>2020-11-29T12:38:16Z</time>
      </trkpt>
      <trkpt lat="46.67773" lon="5.78029">
        <ele>483.5</ele>
        <time>2020-11-29T12:38:21Z</time>
      </trkpt>
      <trkpt lat="46.67768" lon="5.7803">
        <ele>484</ele>
        <time>2020-11-29T12:38:26Z</time>
      </trkpt>
      <trkpt lat="46.67763" lon="5.78032">
        <ele>484.2</ele>
        <time>2020-11-29T12:38:32Z</time>
      </trkpt>
      <trkpt lat="46.67759" lon="5.78036">
        <ele>484.4</ele>
        <time>2020-11-29T12:38:38Z</time>
      </trkpt>
      <trkpt lat="46.67754" lon="5.78033">
        <ele>484.5</ele>
        <time>2020-11-29T12:38:44Z</time>
      </trkpt>
      <trkpt lat="46.67751" lon="5.78029">
        <ele>484.3</ele>
        <time>2020-11-29T12:38:48Z</time>
      </trkpt>
      <trkpt lat="46.67747" lon="5.78025">
        <ele>484.1</ele>
        <time>2020-11-29T12:38:52Z</time>
      </trkpt>
      <trkpt lat="46.67743" lon="5.7802">
        <ele>483.7</ele>
        <time>2020-11-29T12:38:57Z</time>
      </trkpt>
      <trkpt lat="46.67741" lon="5.78014">
        <ele>483.1</ele>
        <time>2020-11-29T12:39:02Z</time>
      </trkpt>
      <trkpt lat="46.6774" lon="5.78007">
        <ele>482.7</ele>
        <time>2020-11-29T12:39:07Z</time>
      </trkpt>
      <trkpt lat="46.6774" lon="5.78001">
        <ele>482.4</ele>
        <time>2020-11-29T12:39:12Z</time>
      </trkpt>
      <trkpt lat="46.6774" lon="5.77993">
        <ele>482</ele>
        <time>2020-11-29T12:39:19Z</time>
      </trkpt>
      <trkpt lat="46.6774" lon="5.77986">
        <ele>481.9</ele>
        <time>2020-11-29T12:39:26Z</time>
      </trkpt>
      <trkpt lat="46.67737" lon="5.7798">
        <ele>481.8</ele>
        <time>2020-11-29T12:39:33Z</time>
      </trkpt>
      <trkpt lat="46.67735" lon="5.77974">
        <ele>481.6</ele>
        <time>2020-11-29T12:39:39Z</time>
      </trkpt>
      <trkpt lat="46.67732" lon="5.77967">
        <ele>481.4</ele>
        <time>2020-11-29T12:39:44Z</time>
      </trkpt>
      <trkpt lat="46.67728" lon="5.7796">
        <ele>481.1</ele>
        <time>2020-11-29T12:39:48Z</time>
      </trkpt>
      <trkpt lat="46.67726" lon="5.77954">
        <ele>480.9</ele>
        <time>2020-11-29T12:39:51Z</time>
      </trkpt>
      <trkpt lat="46.67724" lon="5.77947">
        <ele>480.6</ele>
        <time>2020-11-29T12:39:55Z</time>
      </trkpt>
      <trkpt lat="46.67722" lon="5.77939">
        <ele>480.5</ele>
        <time>2020-11-29T12:39:59Z</time>
      </trkpt>
      <trkpt lat="46.6772" lon="5.77932">
        <ele>480.5</ele>
        <time>2020-11-29T12:40:03Z</time>
      </trkpt>
      <trkpt lat="46.67718" lon="5.77925">
        <ele>480.2</ele>
        <time>2020-11-29T12:40:08Z</time>
      </trkpt>
      <trkpt lat="46.67716" lon="5.77919">
        <ele>479.2</ele>
        <time>2020-11-29T12:40:13Z</time>
      </trkpt>
      <trkpt lat="46.67714" lon="5.77912">
        <ele>478.1</ele>
        <time>2020-11-29T12:40:18Z</time>
      </trkpt>
      <trkpt lat="46.67714" lon="5.77904">
        <ele>476.7</ele>
        <time>2020-11-29T12:40:23Z</time>
      </trkpt>
      <trkpt lat="46.67712" lon="5.77897">
        <ele>475.8</ele>
        <time>2020-11-29T12:40:27Z</time>
      </trkpt>
      <trkpt lat="46.6771" lon="5.77891">
        <ele>475</ele>
        <time>2020-11-29T12:40:31Z</time>
      </trkpt>
      <trkpt lat="46.67707" lon="5.77884">
        <ele>474.4</ele>
        <time>2020-11-29T12:40:35Z</time>
      </trkpt>
      <trkpt lat="46.67704" lon="5.77878">
        <ele>474</ele>
        <time>2020-11-29T12:40:39Z</time>
      </trkpt>
      <trkpt lat="46.67702" lon="5.77871">
        <ele>473.7</ele>
        <time>2020-11-29T12:40:44Z</time>
      </trkpt>
      <trkpt lat="46.67699" lon="5.77866">
        <ele>473.9</ele>
        <time>2020-11-29T12:40:47Z</time>
      </trkpt>
      <trkpt lat="46.67696" lon="5.7786">
        <ele>474.1</ele>
        <time>2020-11-29T12:40:50Z</time>
      </trkpt>
      <trkpt lat="46.67694" lon="5.77854">
        <ele>474.5</ele>
        <time>2020-11-29T12:40:54Z</time>
      </trkpt>
      <trkpt lat="46.67691" lon="5.77848">
        <ele>475</ele>
        <time>2020-11-29T12:40:58Z</time>
      </trkpt>
      <trkpt lat="46.67689" lon="5.77841">
        <ele>475.9</ele>
        <time>2020-11-29T12:41:03Z</time>
      </trkpt>
      <trkpt lat="46.67688" lon="5.77834">
        <ele>476.9</ele>
        <time>2020-11-29T12:41:07Z</time>
      </trkpt>
      <trkpt lat="46.67687" lon="5.77827">
        <ele>477.7</ele>
        <time>2020-11-29T12:41:11Z</time>
      </trkpt>
      <trkpt lat="46.67686" lon="5.7782">
        <ele>478.3</ele>
        <time>2020-11-29T12:41:15Z</time>
      </trkpt>
      <trkpt lat="46.67685" lon="5.77813">
        <ele>478.6</ele>
        <time>2020-11-29T12:41:19Z</time>
      </trkpt>
      <trkpt lat="46.67684" lon="5.77806">
        <ele>478.7</ele>
        <time>2020-11-29T12:41:23Z</time>
      </trkpt>
      <trkpt lat="46.67682" lon="5.77799">
        <ele>478.8</ele>
        <time>2020-11-29T12:41:27Z</time>
      </trkpt>
      <trkpt lat="46.67679" lon="5.77792">
        <ele>478.8</ele>
        <time>2020-11-29T12:41:32Z</time>
      </trkpt>
      <trkpt lat="46.67676" lon="5.77786">
        <ele>478.3</ele>
        <time>2020-11-29T12:41:38Z</time>
      </trkpt>
      <trkpt lat="46.67673" lon="5.7778">
        <ele>478.2</ele>
        <time>2020-11-29T12:41:43Z</time>
      </trkpt>
      <trkpt lat="46.67669" lon="5.77774">
        <ele>478.1</ele>
        <time>2020-11-29T12:41:48Z</time>
      </trkpt>
      <trkpt lat="46.67666" lon="5.77768">
        <ele>477.9</ele>
        <time>2020-11-29T12:41:53Z</time>
      </trkpt>
      <trkpt lat="46.67662" lon="5.77762">
        <ele>477.2</ele>
        <time>2020-11-29T12:41:59Z</time>
      </trkpt>
      <trkpt lat="46.67659" lon="5.77756">
        <ele>476.4</ele>
        <time>2020-11-29T12:42:04Z</time>
      </trkpt>
      <trkpt lat="46.67656" lon="5.7775">
        <ele>475.9</ele>
        <time>2020-11-29T12:42:08Z</time>
      </trkpt>
      <trkpt lat="46.67653" lon="5.77743">
        <ele>475.8</ele>
        <time>2020-11-29T12:42:12Z</time>
      </trkpt>
      <trkpt lat="46.67651" lon="5.77736">
        <ele>475.8</ele>
        <time>2020-11-29T12:42:16Z</time>
      </trkpt>
      <trkpt lat="46.67648" lon="5.7773">
        <ele>476.2</ele>
        <time>2020-11-29T12:42:19Z</time>
      </trkpt>
      <trkpt lat="46.67644" lon="5.77724">
        <ele>476.9</ele>
        <time>2020-11-29T12:42:22Z</time>
      </trkpt>
      <trkpt lat="46.67641" lon="5.77717">
        <ele>477.8</ele>
        <time>2020-11-29T12:42:26Z</time>
      </trkpt>
      <trkpt lat="46.67639" lon="5.77712">
        <ele>478.8</ele>
        <time>2020-11-29T12:42:30Z</time>
      </trkpt>
      <trkpt lat="46.67637" lon="5.77705">
        <ele>479.9</ele>
        <time>2020-11-29T12:42:34Z</time>
      </trkpt>
      <trkpt lat="46.67636" lon="5.77697">
        <ele>481</ele>
        <time>2020-11-29T12:42:39Z</time>
      </trkpt>
      <trkpt lat="46.67635" lon="5.7769">
        <ele>481.3</ele>
        <time>2020-11-29T12:42:43Z</time>
      </trkpt>
      <trkpt lat="46.67635" lon="5.77683">
        <ele>481.8</ele>
        <time>2020-11-29T12:42:47Z</time>
      </trkpt>
      <trkpt lat="46.67635" lon="5.77675">
        <ele>482.4</ele>
        <time>2020-11-29T12:42:52Z</time>
      </trkpt>
      <trkpt lat="46.67636" lon="5.77668">
        <ele>483.2</ele>
        <time>2020-11-29T12:42:57Z</time>
      </trkpt>
      <trkpt lat="46.67637" lon="5.77662">
        <ele>483.9</ele>
        <time>2020-11-29T12:43:03Z</time>
      </trkpt>
      <trkpt lat="46.67639" lon="5.77655">
        <ele>484.3</ele>
        <time>2020-11-29T12:43:08Z</time>
      </trkpt>
      <trkpt lat="46.67642" lon="5.77647">
        <ele>484.6</ele>
        <time>2020-11-29T12:43:13Z</time>
      </trkpt>
      <trkpt lat="46.67644" lon="5.77641">
        <ele>484.3</ele>
        <time>2020-11-29T12:43:17Z</time>
      </trkpt>
      <trkpt lat="46.67646" lon="5.77634">
        <ele>483.5</ele>
        <time>2020-11-29T12:43:22Z</time>
      </trkpt>
      <trkpt lat="46.67648" lon="5.77627">
        <ele>482.7</ele>
        <time>2020-11-29T12:43:27Z</time>
      </trkpt>
      <trkpt lat="46.6765" lon="5.77619">
        <ele>482.6</ele>
        <time>2020-11-29T12:43:32Z</time>
      </trkpt>
      <trkpt lat="46.67652" lon="5.77613">
        <ele>482.7</ele>
        <time>2020-11-29T12:43:36Z</time>
      </trkpt>
      <trkpt lat="46.67654" lon="5.77606">
        <ele>482.5</ele>
        <time>2020-11-29T12:43:41Z</time>
      </trkpt>
      <trkpt lat="46.67657" lon="5.77599">
        <ele>481.8</ele>
        <time>2020-11-29T12:43:46Z</time>
      </trkpt>
      <trkpt lat="46.67659" lon="5.77593">
        <ele>481</ele>
        <time>2020-11-29T12:43:51Z</time>
      </trkpt>
      <trkpt lat="46.67662" lon="5.77586">
        <ele>480.2</ele>
        <time>2020-11-29T12:43:57Z</time>
      </trkpt>
      <trkpt lat="46.67663" lon="5.77579">
        <ele>479.6</ele>
        <time>2020-11-29T12:44:03Z</time>
      </trkpt>
      <trkpt lat="46.67662" lon="5.77572">
        <ele>479.5</ele>
        <time>2020-11-29T12:44:08Z</time>
      </trkpt>
      <trkpt lat="46.67662" lon="5.77564">
        <ele>480</ele>
        <time>2020-11-29T12:44:13Z</time>
      </trkpt>
      <trkpt lat="46.67661" lon="5.77557">
        <ele>480.3</ele>
        <time>2020-11-29T12:44:17Z</time>
      </trkpt>
      <trkpt lat="46.6766" lon="5.77549">
        <ele>480.6</ele>
        <time>2020-11-29T12:44:21Z</time>
      </trkpt>
      <trkpt lat="46.67659" lon="5.77542">
        <ele>481.2</ele>
        <time>2020-11-29T12:44:25Z</time>
      </trkpt>
      <trkpt lat="46.67658" lon="5.77534">
        <ele>481.8</ele>
        <time>2020-11-29T12:44:30Z</time>
      </trkpt>
      <trkpt lat="46.67658" lon="5.77526">
        <ele>482.7</ele>
        <time>2020-11-29T12:44:35Z</time>
      </trkpt>
      <trkpt lat="46.67657" lon="5.77518">
        <ele>483.6</ele>
        <time>2020-11-29T12:44:40Z</time>
      </trkpt>
      <trkpt lat="46.67656" lon="5.77511">
        <ele>484.2</ele>
        <time>2020-11-29T12:44:44Z</time>
      </trkpt>
      <trkpt lat="46.67654" lon="5.77504">
        <ele>484.5</ele>
        <time>2020-11-29T12:44:49Z</time>
      </trkpt>
      <trkpt lat="46.67652" lon="5.77498">
        <ele>484.7</ele>
        <time>2020-11-29T12:44:53Z</time>
      </trkpt>
      <trkpt lat="46.6765" lon="5.7749">
        <ele>485</ele>
        <time>2020-11-29T12:44:57Z</time>
      </trkpt>
      <trkpt lat="46.67648" lon="5.77484">
        <ele>485.1</ele>
        <time>2020-11-29T12:45:00Z</time>
      </trkpt>
      <trkpt lat="46.67646" lon="5.77477">
        <ele>485.4</ele>
        <time>2020-11-29T12:45:04Z</time>
      </trkpt>
      <trkpt lat="46.67643" lon="5.7747">
        <ele>486.4</ele>
        <time>2020-11-29T12:45:09Z</time>
      </trkpt>
      <trkpt lat="46.67641" lon="5.77463">
        <ele>487.3</ele>
        <time>2020-11-29T12:45:13Z</time>
      </trkpt>
      <trkpt lat="46.67639" lon="5.77455">
        <ele>488.3</ele>
        <time>2020-11-29T12:45:17Z</time>
      </trkpt>
      <trkpt lat="46.67636" lon="5.77449">
        <ele>489.2</ele>
        <time>2020-11-29T12:45:21Z</time>
      </trkpt>
      <trkpt lat="46.67634" lon="5.77442">
        <ele>490.1</ele>
        <time>2020-11-29T12:45:25Z</time>
      </trkpt>
      <trkpt lat="46.67632" lon="5.77436">
        <ele>490.8</ele>
        <time>2020-11-29T12:45:29Z</time>
      </trkpt>
      <trkpt lat="46.67629" lon="5.77429">
        <ele>491</ele>
        <time>2020-11-29T12:45:34Z</time>
      </trkpt>
      <trkpt lat="46.67626" lon="5.77423">
        <ele>490.9</ele>
        <time>2020-11-29T12:45:39Z</time>
      </trkpt>
      <trkpt lat="46.67623" lon="5.77418">
        <ele>491</ele>
        <time>2020-11-29T12:45:43Z</time>
      </trkpt>
      <trkpt lat="46.6762" lon="5.77413">
        <ele>491.3</ele>
        <time>2020-11-29T12:45:47Z</time>
      </trkpt>
      <trkpt lat="46.67616" lon="5.77407">
        <ele>491.5</ele>
        <time>2020-11-29T12:45:51Z</time>
      </trkpt>
      <trkpt lat="46.67613" lon="5.77402">
        <ele>491.8</ele>
        <time>2020-11-29T12:45:55Z</time>
      </trkpt>
      <trkpt lat="46.67609" lon="5.77397">
        <ele>491.7</ele>
        <time>2020-11-29T12:45:59Z</time>
      </trkpt>
      <trkpt lat="46.67606" lon="5.77392">
        <ele>491.6</ele>
        <time>2020-11-29T12:46:03Z</time>
      </trkpt>
      <trkpt lat="46.67603" lon="5.77387">
        <ele>491.3</ele>
        <time>2020-11-29T12:46:07Z</time>
      </trkpt>
      <trkpt lat="46.67599" lon="5.77382">
        <ele>490.7</ele>
        <time>2020-11-29T12:46:12Z</time>
      </trkpt>
      <trkpt lat="46.67595" lon="5.77377">
        <ele>490.2</ele>
        <time>2020-11-29T12:46:17Z</time>
      </trkpt>
      <trkpt lat="46.67591" lon="5.77372">
        <ele>489.8</ele>
        <time>2020-11-29T12:46:21Z</time>
      </trkpt>
      <trkpt lat="46.67587" lon="5.77366">
        <ele>489.4</ele>
        <time>2020-11-29T12:46:25Z</time>
      </trkpt>
      <trkpt lat="46.67583" lon="5.77361">
        <ele>488.9</ele>
        <time>2020-11-29T12:46:29Z</time>
      </trkpt>
      <trkpt lat="46.67579" lon="5.77356">
        <ele>488.6</ele>
        <time>2020-11-29T12:46:33Z</time>
      </trkpt>
      <trkpt lat="46.67576" lon="5.77352">
        <ele>488.7</ele>
        <time>2020-11-29T12:46:37Z</time>
      </trkpt>
      <trkpt lat="46.67571" lon="5.77347">
        <ele>488.9</ele>
        <time>2020-11-29T12:46:42Z</time>
      </trkpt>
      <trkpt lat="46.67568" lon="5.77342">
        <ele>489.3</ele>
        <time>2020-11-29T12:46:47Z</time>
      </trkpt>
      <trkpt lat="46.67564" lon="5.77337">
        <ele>489.7</ele>
        <time>2020-11-29T12:46:52Z</time>
      </trkpt>
      <trkpt lat="46.6756" lon="5.77332">
        <ele>489.7</ele>
        <time>2020-11-29T12:46:56Z</time>
      </trkpt>
      <trkpt lat="46.67557" lon="5.77328">
        <ele>489.7</ele>
        <time>2020-11-29T12:47:00Z</time>
      </trkpt>
      <trkpt lat="46.67553" lon="5.77324">
        <ele>489.9</ele>
        <time>2020-11-29T12:47:04Z</time>
      </trkpt>
      <trkpt lat="46.67549" lon="5.77318">
        <ele>490.1</ele>
        <time>2020-11-29T12:47:09Z</time>
      </trkpt>
      <trkpt lat="46.67545" lon="5.77313">
        <ele>490.5</ele>
        <time>2020-11-29T12:47:14Z</time>
      </trkpt>
      <trkpt lat="46.67541" lon="5.77308">
        <ele>490.6</ele>
        <time>2020-11-29T12:47:18Z</time>
      </trkpt>
      <trkpt lat="46.67538" lon="5.77303">
        <ele>490.7</ele>
        <time>2020-11-29T12:47:22Z</time>
      </trkpt>
      <trkpt lat="46.67534" lon="5.77297">
        <ele>490.6</ele>
        <time>2020-11-29T12:47:27Z</time>
      </trkpt>
      <trkpt lat="46.67531" lon="5.77292">
        <ele>490.5</ele>
        <time>2020-11-29T12:47:31Z</time>
      </trkpt>
      <trkpt lat="46.67527" lon="5.77287">
        <ele>490.4</ele>
        <time>2020-11-29T12:47:35Z</time>
      </trkpt>
      <trkpt lat="46.67522" lon="5.77282">
        <ele>490.1</ele>
        <time>2020-11-29T12:47:40Z</time>
      </trkpt>
      <trkpt lat="46.67518" lon="5.77277">
        <ele>489.6</ele>
        <time>2020-11-29T12:47:45Z</time>
      </trkpt>
      <trkpt lat="46.67514" lon="5.77272">
        <ele>489.3</ele>
        <time>2020-11-29T12:47:50Z</time>
      </trkpt>
      <trkpt lat="46.6751" lon="5.77268">
        <ele>489.1</ele>
        <time>2020-11-29T12:47:54Z</time>
      </trkpt>
      <trkpt lat="46.67506" lon="5.77262">
        <ele>489</ele>
        <time>2020-11-29T12:47:58Z</time>
      </trkpt>
      <trkpt lat="46.67502" lon="5.77257">
        <ele>488.8</ele>
        <time>2020-11-29T12:48:02Z</time>
      </trkpt>
      <trkpt lat="46.67499" lon="5.77253">
        <ele>488.5</ele>
        <time>2020-11-29T12:48:06Z</time>
      </trkpt>
      <trkpt lat="46.67495" lon="5.77248">
        <ele>488.3</ele>
        <time>2020-11-29T12:48:10Z</time>
      </trkpt>
      <trkpt lat="46.67492" lon="5.77243">
        <ele>488.5</ele>
        <time>2020-11-29T12:48:14Z</time>
      </trkpt>
      <trkpt lat="46.67488" lon="5.77238">
        <ele>488.9</ele>
        <time>2020-11-29T12:48:18Z</time>
      </trkpt>
      <trkpt lat="46.67485" lon="5.77233">
        <ele>489.4</ele>
        <time>2020-11-29T12:48:22Z</time>
      </trkpt>
      <trkpt lat="46.67481" lon="5.77228">
        <ele>489.7</ele>
        <time>2020-11-29T12:48:26Z</time>
      </trkpt>
      <trkpt lat="46.67477" lon="5.77223">
        <ele>490.2</ele>
        <time>2020-11-29T12:48:31Z</time>
      </trkpt>
      <trkpt lat="46.67473" lon="5.77218">
        <ele>490.7</ele>
        <time>2020-11-29T12:48:36Z</time>
      </trkpt>
      <trkpt lat="46.6747" lon="5.77213">
        <ele>490.8</ele>
        <time>2020-11-29T12:48:40Z</time>
      </trkpt>
      <trkpt lat="46.67467" lon="5.77208">
        <ele>490.8</ele>
        <time>2020-11-29T12:48:44Z</time>
      </trkpt>
      <trkpt lat="46.67464" lon="5.77202">
        <ele>490.8</ele>
        <time>2020-11-29T12:48:48Z</time>
      </trkpt>
      <trkpt lat="46.67459" lon="5.77197">
        <ele>490.9</ele>
        <time>2020-11-29T12:48:53Z</time>
      </trkpt>
      <trkpt lat="46.67456" lon="5.77192">
        <ele>491.2</ele>
        <time>2020-11-29T12:48:57Z</time>
      </trkpt>
      <trkpt lat="46.67452" lon="5.77186">
        <ele>491.4</ele>
        <time>2020-11-29T12:49:01Z</time>
      </trkpt>
      <trkpt lat="46.67448" lon="5.77182">
        <ele>491.2</ele>
        <time>2020-11-29T12:49:05Z</time>
      </trkpt>
      <trkpt lat="46.67444" lon="5.77176">
        <ele>490.7</ele>
        <time>2020-11-29T12:49:10Z</time>
      </trkpt>
      <trkpt lat="46.67441" lon="5.77172">
        <ele>490.3</ele>
        <time>2020-11-29T12:49:14Z</time>
      </trkpt>
      <trkpt lat="46.67437" lon="5.77167">
        <ele>489.9</ele>
        <time>2020-11-29T12:49:18Z</time>
      </trkpt>
      <trkpt lat="46.67433" lon="5.77163">
        <ele>489.7</ele>
        <time>2020-11-29T12:49:22Z</time>
      </trkpt>
      <trkpt lat="46.6743" lon="5.77158">
        <ele>489.4</ele>
        <time>2020-11-29T12:49:26Z</time>
      </trkpt>
      <trkpt lat="46.67426" lon="5.77154">
        <ele>488.9</ele>
        <time>2020-11-29T12:49:30Z</time>
      </trkpt>
      <trkpt lat="46.67422" lon="5.7715">
        <ele>488.6</ele>
        <time>2020-11-29T12:49:34Z</time>
      </trkpt>
      <trkpt lat="46.67418" lon="5.77145">
        <ele>488.5</ele>
        <time>2020-11-29T12:49:38Z</time>
      </trkpt>
      <trkpt lat="46.67415" lon="5.7714">
        <ele>488.7</ele>
        <time>2020-11-29T12:49:42Z</time>
      </trkpt>
      <trkpt lat="46.67411" lon="5.77135">
        <ele>489</ele>
        <time>2020-11-29T12:49:46Z</time>
      </trkpt>
      <trkpt lat="46.67408" lon="5.7713">
        <ele>489.1</ele>
        <time>2020-11-29T12:49:50Z</time>
      </trkpt>
      <trkpt lat="46.67404" lon="5.77125">
        <ele>489.5</ele>
        <time>2020-11-29T12:49:54Z</time>
      </trkpt>
      <trkpt lat="46.674" lon="5.7712">
        <ele>489.9</ele>
        <time>2020-11-29T12:49:59Z</time>
      </trkpt>
      <trkpt lat="46.67396" lon="5.77115">
        <ele>490.5</ele>
        <time>2020-11-29T12:50:04Z</time>
      </trkpt>
      <trkpt lat="46.67392" lon="5.7711">
        <ele>490.9</ele>
        <time>2020-11-29T12:50:08Z</time>
      </trkpt>
      <trkpt lat="46.67389" lon="5.77105">
        <ele>491.2</ele>
        <time>2020-11-29T12:50:12Z</time>
      </trkpt>
      <trkpt lat="46.67385" lon="5.771">
        <ele>491.9</ele>
        <time>2020-11-29T12:50:17Z</time>
      </trkpt>
      <trkpt lat="46.67383" lon="5.77093">
        <ele>491.6</ele>
        <time>2020-11-29T12:50:23Z</time>
      </trkpt>
      <trkpt lat="46.67379" lon="5.77088">
        <ele>490.8</ele>
        <time>2020-11-29T12:50:27Z</time>
      </trkpt>
      <trkpt lat="46.67376" lon="5.77082">
        <ele>489.4</ele>
        <time>2020-11-29T12:50:32Z</time>
      </trkpt>
      <trkpt lat="46.67372" lon="5.77077">
        <ele>487.8</ele>
        <time>2020-11-29T12:50:37Z</time>
      </trkpt>
      <trkpt lat="46.67369" lon="5.77072">
        <ele>486.5</ele>
        <time>2020-11-29T12:50:43Z</time>
      </trkpt>
      <trkpt lat="46.67365" lon="5.77067">
        <ele>485.6</ele>
        <time>2020-11-29T12:50:48Z</time>
      </trkpt>
      <trkpt lat="46.6736" lon="5.77063">
        <ele>484.4</ele>
        <time>2020-11-29T12:50:53Z</time>
      </trkpt>
      <trkpt lat="46.67357" lon="5.77059">
        <ele>483.3</ele>
        <time>2020-11-29T12:50:58Z</time>
      </trkpt>
      <trkpt lat="46.67354" lon="5.77053">
        <ele>482.2</ele>
        <time>2020-11-29T12:51:03Z</time>
      </trkpt>
      <trkpt lat="46.67351" lon="5.77047">
        <ele>481.5</ele>
        <time>2020-11-29T12:51:07Z</time>
      </trkpt>
      <trkpt lat="46.67347" lon="5.77042">
        <ele>481.3</ele>
        <time>2020-11-29T12:51:11Z</time>
      </trkpt>
      <trkpt lat="46.67343" lon="5.77037">
        <ele>481.6</ele>
        <time>2020-11-29T12:51:15Z</time>
      </trkpt>
      <trkpt lat="46.67339" lon="5.77032">
        <ele>482.1</ele>
        <time>2020-11-29T12:51:19Z</time>
      </trkpt>
      <trkpt lat="46.67336" lon="5.77027">
        <ele>482.5</ele>
        <time>2020-11-29T12:51:23Z</time>
      </trkpt>
      <trkpt lat="46.67332" lon="5.77022">
        <ele>483.2</ele>
        <time>2020-11-29T12:51:27Z</time>
      </trkpt>
      <trkpt lat="46.67328" lon="5.77016">
        <ele>483.8</ele>
        <time>2020-11-29T12:51:32Z</time>
      </trkpt>
      <trkpt lat="46.67324" lon="5.7701">
        <ele>484.4</ele>
        <time>2020-11-29T12:51:36Z</time>
      </trkpt>
      <trkpt lat="46.67319" lon="5.77006">
        <ele>485.1</ele>
        <time>2020-11-29T12:51:40Z</time>
      </trkpt>
      <trkpt lat="46.67315" lon="5.77001">
        <ele>485.8</ele>
        <time>2020-11-29T12:51:44Z</time>
      </trkpt>
      <trkpt lat="46.67312" lon="5.76996">
        <ele>486.5</ele>
        <time>2020-11-29T12:51:48Z</time>
      </trkpt>
      <trkpt lat="46.67308" lon="5.76992">
        <ele>487.3</ele>
        <time>2020-11-29T12:51:52Z</time>
      </trkpt>
      <trkpt lat="46.67304" lon="5.76987">
        <ele>488.1</ele>
        <time>2020-11-29T12:51:56Z</time>
      </trkpt>
      <trkpt lat="46.673" lon="5.76982">
        <ele>488.9</ele>
        <time>2020-11-29T12:52:00Z</time>
      </trkpt>
      <trkpt lat="46.67296" lon="5.76978">
        <ele>489.5</ele>
        <time>2020-11-29T12:52:04Z</time>
      </trkpt>
      <trkpt lat="46.67292" lon="5.76974">
        <ele>489.9</ele>
        <time>2020-11-29T12:52:08Z</time>
      </trkpt>
      <trkpt lat="46.67289" lon="5.7697">
        <ele>490</ele>
        <time>2020-11-29T12:52:12Z</time>
      </trkpt>
      <trkpt lat="46.67285" lon="5.76966">
        <ele>490</ele>
        <time>2020-11-29T12:52:16Z</time>
      </trkpt>
      <trkpt lat="46.67281" lon="5.76963">
        <ele>490</ele>
        <time>2020-11-29T12:52:20Z</time>
      </trkpt>
      <trkpt lat="46.67277" lon="5.76959">
        <ele>489.9</ele>
        <time>2020-11-29T12:52:24Z</time>
      </trkpt>
      <trkpt lat="46.67273" lon="5.76956">
        <ele>489.7</ele>
        <time>2020-11-29T12:52:28Z</time>
      </trkpt>
      <trkpt lat="46.67269" lon="5.76952">
        <ele>489.3</ele>
        <time>2020-11-29T12:52:32Z</time>
      </trkpt>
      <trkpt lat="46.67265" lon="5.76949">
        <ele>488.7</ele>
        <time>2020-11-29T12:52:36Z</time>
      </trkpt>
      <trkpt lat="46.67259" lon="5.76947">
        <ele>487.8</ele>
        <time>2020-11-29T12:52:41Z</time>
      </trkpt>
      <trkpt lat="46.67254" lon="5.76943">
        <ele>487.2</ele>
        <time>2020-11-29T12:52:46Z</time>
      </trkpt>
      <trkpt lat="46.6725" lon="5.76941">
        <ele>486.6</ele>
        <time>2020-11-29T12:52:50Z</time>
      </trkpt>
      <trkpt lat="46.67246" lon="5.76938">
        <ele>486.1</ele>
        <time>2020-11-29T12:52:54Z</time>
      </trkpt>
      <trkpt lat="46.67241" lon="5.76936">
        <ele>485.7</ele>
        <time>2020-11-29T12:52:58Z</time>
      </trkpt>
      <trkpt lat="46.67236" lon="5.76934">
        <ele>485.3</ele>
        <time>2020-11-29T12:53:02Z</time>
      </trkpt>
      <trkpt lat="46.67231" lon="5.76932">
        <ele>484.8</ele>
        <time>2020-11-29T12:53:07Z</time>
      </trkpt>
      <trkpt lat="46.67226" lon="5.76929">
        <ele>484.4</ele>
        <time>2020-11-29T12:53:12Z</time>
      </trkpt>
      <trkpt lat="46.67222" lon="5.76926">
        <ele>484.2</ele>
        <time>2020-11-29T12:53:16Z</time>
      </trkpt>
      <trkpt lat="46.67218" lon="5.76925">
        <ele>484</ele>
        <time>2020-11-29T12:53:20Z</time>
      </trkpt>
      <trkpt lat="46.67213" lon="5.76924">
        <ele>484</ele>
        <time>2020-11-29T12:53:24Z</time>
      </trkpt>
      <trkpt lat="46.67208" lon="5.76922">
        <ele>484.3</ele>
        <time>2020-11-29T12:53:28Z</time>
      </trkpt>
      <trkpt lat="46.67203" lon="5.7692">
        <ele>484.5</ele>
        <time>2020-11-29T12:53:32Z</time>
      </trkpt>
      <trkpt lat="46.67198" lon="5.76919">
        <ele>484.1</ele>
        <time>2020-11-29T12:53:37Z</time>
      </trkpt>
      <trkpt lat="46.67194" lon="5.76917">
        <ele>483.9</ele>
        <time>2020-11-29T12:53:41Z</time>
      </trkpt>
      <trkpt lat="46.67189" lon="5.76914">
        <ele>483.5</ele>
        <time>2020-11-29T12:53:45Z</time>
      </trkpt>
      <trkpt lat="46.67184" lon="5.76912">
        <ele>483.3</ele>
        <time>2020-11-29T12:53:49Z</time>
      </trkpt>
      <trkpt lat="46.6718" lon="5.76911">
        <ele>483</ele>
        <time>2020-11-29T12:53:53Z</time>
      </trkpt>
      <trkpt lat="46.67175" lon="5.7691">
        <ele>482.8</ele>
        <time>2020-11-29T12:53:57Z</time>
      </trkpt>
      <trkpt lat="46.67171" lon="5.76908">
        <ele>482.4</ele>
        <time>2020-11-29T12:54:01Z</time>
      </trkpt>
      <trkpt lat="46.67166" lon="5.76906">
        <ele>481.9</ele>
        <time>2020-11-29T12:54:05Z</time>
      </trkpt>
      <trkpt lat="46.67162" lon="5.76904">
        <ele>481.4</ele>
        <time>2020-11-29T12:54:09Z</time>
      </trkpt>
      <trkpt lat="46.67158" lon="5.76902">
        <ele>480.9</ele>
        <time>2020-11-29T12:54:13Z</time>
      </trkpt>
      <trkpt lat="46.67152" lon="5.76899">
        <ele>480.6</ele>
        <time>2020-11-29T12:54:18Z</time>
      </trkpt>
      <trkpt lat="46.67147" lon="5.76897">
        <ele>480.4</ele>
        <time>2020-11-29T12:54:23Z</time>
      </trkpt>
      <trkpt lat="46.67142" lon="5.76896">
        <ele>480.5</ele>
        <time>2020-11-29T12:54:27Z</time>
      </trkpt>
      <trkpt lat="46.67138" lon="5.76895">
        <ele>480.6</ele>
        <time>2020-11-29T12:54:31Z</time>
      </trkpt>
      <trkpt lat="46.67132" lon="5.76894">
        <ele>480.8</ele>
        <time>2020-11-29T12:54:36Z</time>
      </trkpt>
      <trkpt lat="46.67128" lon="5.76892">
        <ele>480.9</ele>
        <time>2020-11-29T12:54:40Z</time>
      </trkpt>
      <trkpt lat="46.67123" lon="5.76889">
        <ele>480.9</ele>
        <time>2020-11-29T12:54:44Z</time>
      </trkpt>
      <trkpt lat="46.67119" lon="5.76887">
        <ele>480.9</ele>
        <time>2020-11-29T12:54:48Z</time>
      </trkpt>
      <trkpt lat="46.67115" lon="5.76885">
        <ele>481</ele>
        <time>2020-11-29T12:54:52Z</time>
      </trkpt>
      <trkpt lat="46.6711" lon="5.76883">
        <ele>481</ele>
        <time>2020-11-29T12:54:56Z</time>
      </trkpt>
      <trkpt lat="46.67105" lon="5.76881">
        <ele>481.2</ele>
        <time>2020-11-29T12:55:00Z</time>
      </trkpt>
      <trkpt lat="46.67101" lon="5.76879">
        <ele>481.6</ele>
        <time>2020-11-29T12:55:04Z</time>
      </trkpt>
      <trkpt lat="46.67096" lon="5.76878">
        <ele>482.2</ele>
        <time>2020-11-29T12:55:08Z</time>
      </trkpt>
      <trkpt lat="46.67091" lon="5.76876">
        <ele>482.9</ele>
        <time>2020-11-29T12:55:12Z</time>
      </trkpt>
      <trkpt lat="46.67086" lon="5.76875">
        <ele>483.4</ele>
        <time>2020-11-29T12:55:16Z</time>
      </trkpt>
      <trkpt lat="46.67081" lon="5.76873">
        <ele>483.8</ele>
        <time>2020-11-29T12:55:21Z</time>
      </trkpt>
      <trkpt lat="46.67076" lon="5.76871">
        <ele>484</ele>
        <time>2020-11-29T12:55:25Z</time>
      </trkpt>
      <trkpt lat="46.67071" lon="5.76869">
        <ele>484.1</ele>
        <time>2020-11-29T12:55:29Z</time>
      </trkpt>
      <trkpt lat="46.67067" lon="5.76867">
        <ele>483.9</ele>
        <time>2020-11-29T12:55:33Z</time>
      </trkpt>
      <trkpt lat="46.67062" lon="5.76864">
        <ele>483.8</ele>
        <time>2020-11-29T12:55:38Z</time>
      </trkpt>
      <trkpt lat="46.67057" lon="5.76862">
        <ele>483.5</ele>
        <time>2020-11-29T12:55:42Z</time>
      </trkpt>
      <trkpt lat="46.67052" lon="5.7686">
        <ele>483.6</ele>
        <time>2020-11-29T12:55:47Z</time>
      </trkpt>
      <trkpt lat="46.67047" lon="5.76857">
        <ele>484.1</ele>
        <time>2020-11-29T12:55:51Z</time>
      </trkpt>
      <trkpt lat="46.67043" lon="5.76855">
        <ele>484.3</ele>
        <time>2020-11-29T12:55:55Z</time>
      </trkpt>
      <trkpt lat="46.67038" lon="5.76853">
        <ele>484.3</ele>
        <time>2020-11-29T12:55:59Z</time>
      </trkpt>
      <trkpt lat="46.67033" lon="5.76852">
        <ele>484.2</ele>
        <time>2020-11-29T12:56:04Z</time>
      </trkpt>
      <trkpt lat="46.67028" lon="5.7685">
        <ele>483.8</ele>
        <time>2020-11-29T12:56:09Z</time>
      </trkpt>
      <trkpt lat="46.67023" lon="5.76849">
        <ele>483.3</ele>
        <time>2020-11-29T12:56:14Z</time>
      </trkpt>
      <trkpt lat="46.67017" lon="5.76846">
        <ele>482.6</ele>
        <time>2020-11-29T12:56:19Z</time>
      </trkpt>
      <trkpt lat="46.67012" lon="5.76846">
        <ele>482</ele>
        <time>2020-11-29T12:56:23Z</time>
      </trkpt>
      <trkpt lat="46.67007" lon="5.76845">
        <ele>481.4</ele>
        <time>2020-11-29T12:56:27Z</time>
      </trkpt>
      <trkpt lat="46.67002" lon="5.76845">
        <ele>481</ele>
        <time>2020-11-29T12:56:31Z</time>
      </trkpt>
      <trkpt lat="46.66997" lon="5.76844">
        <ele>480.7</ele>
        <time>2020-11-29T12:56:35Z</time>
      </trkpt>
      <trkpt lat="46.66992" lon="5.76843">
        <ele>480.5</ele>
        <time>2020-11-29T12:56:39Z</time>
      </trkpt>
      <trkpt lat="46.66988" lon="5.76842">
        <ele>480.5</ele>
        <time>2020-11-29T12:56:43Z</time>
      </trkpt>
      <trkpt lat="46.66983" lon="5.76841">
        <ele>480.4</ele>
        <time>2020-11-29T12:56:47Z</time>
      </trkpt>
      <trkpt lat="46.66978" lon="5.76839">
        <ele>480.8</ele>
        <time>2020-11-29T12:56:51Z</time>
      </trkpt>
      <trkpt lat="46.66974" lon="5.76838">
        <ele>481.2</ele>
        <time>2020-11-29T12:56:55Z</time>
      </trkpt>
      <trkpt lat="46.66969" lon="5.76837">
        <ele>481.8</ele>
        <time>2020-11-29T12:56:59Z</time>
      </trkpt>
      <trkpt lat="46.66965" lon="5.76835">
        <ele>482.2</ele>
        <time>2020-11-29T12:57:03Z</time>
      </trkpt>
      <trkpt lat="46.6696" lon="5.76833">
        <ele>482.5</ele>
        <time>2020-11-29T12:57:07Z</time>
      </trkpt>
      <trkpt lat="46.66955" lon="5.76831">
        <ele>482.7</ele>
        <time>2020-11-29T12:57:11Z</time>
      </trkpt>
      <trkpt lat="46.6695" lon="5.7683">
        <ele>482.9</ele>
        <time>2020-11-29T12:57:15Z</time>
      </trkpt>
      <trkpt lat="46.66945" lon="5.76828">
        <ele>483.2</ele>
        <time>2020-11-29T12:57:19Z</time>
      </trkpt>
      <trkpt lat="46.66941" lon="5.76827">
        <ele>483.5</ele>
        <time>2020-11-29T12:57:23Z</time>
      </trkpt>
      <trkpt lat="46.66936" lon="5.76826">
        <ele>483.6</ele>
        <time>2020-11-29T12:57:28Z</time>
      </trkpt>
      <trkpt lat="46.66931" lon="5.76823">
        <ele>483.6</ele>
        <time>2020-11-29T12:57:33Z</time>
      </trkpt>
      <trkpt lat="46.66926" lon="5.76822">
        <ele>483.8</ele>
        <time>2020-11-29T12:57:37Z</time>
      </trkpt>
      <trkpt lat="46.66921" lon="5.7682">
        <ele>484.1</ele>
        <time>2020-11-29T12:57:41Z</time>
      </trkpt>
      <trkpt lat="46.66916" lon="5.76819">
        <ele>484.5</ele>
        <time>2020-11-29T12:57:45Z</time>
      </trkpt>
      <trkpt lat="46.66912" lon="5.76817">
        <ele>484.7</ele>
        <time>2020-11-29T12:57:49Z</time>
      </trkpt>
      <trkpt lat="46.66908" lon="5.76816">
        <ele>484.8</ele>
        <time>2020-11-29T12:57:53Z</time>
      </trkpt>
      <trkpt lat="46.66903" lon="5.76814">
        <ele>484.8</ele>
        <time>2020-11-29T12:57:57Z</time>
      </trkpt>
      <trkpt lat="46.66898" lon="5.76813">
        <ele>484.9</ele>
        <time>2020-11-29T12:58:01Z</time>
      </trkpt>
      <trkpt lat="46.66894" lon="5.76811">
        <ele>485.2</ele>
        <time>2020-11-29T12:58:05Z</time>
      </trkpt>
      <trkpt lat="46.66888" lon="5.7681">
        <ele>485.4</ele>
        <time>2020-11-29T12:58:09Z</time>
      </trkpt>
      <trkpt lat="46.66883" lon="5.76808">
        <ele>485.5</ele>
        <time>2020-11-29T12:58:14Z</time>
      </trkpt>
      <trkpt lat="46.66879" lon="5.76806">
        <ele>485.7</ele>
        <time>2020-11-29T12:58:18Z</time>
      </trkpt>
      <trkpt lat="46.66874" lon="5.76804">
        <ele>485.6</ele>
        <time>2020-11-29T12:58:23Z</time>
      </trkpt>
      <trkpt lat="46.66869" lon="5.76802">
        <ele>485.8</ele>
        <time>2020-11-29T12:58:28Z</time>
      </trkpt>
      <trkpt lat="46.66864" lon="5.768">
        <ele>486</ele>
        <time>2020-11-29T12:58:33Z</time>
      </trkpt>
      <trkpt lat="46.66859" lon="5.76798">
        <ele>486.1</ele>
        <time>2020-11-29T12:58:37Z</time>
      </trkpt>
      <trkpt lat="46.66855" lon="5.76795">
        <ele>485.9</ele>
        <time>2020-11-29T12:58:41Z</time>
      </trkpt>
      <trkpt lat="46.6685" lon="5.76791">
        <ele>485.4</ele>
        <time>2020-11-29T12:58:45Z</time>
      </trkpt>
      <trkpt lat="46.66845" lon="5.76789">
        <ele>484.9</ele>
        <time>2020-11-29T12:58:50Z</time>
      </trkpt>
      <trkpt lat="46.66841" lon="5.76793">
        <ele>484.5</ele>
        <time>2020-11-29T12:58:56Z</time>
      </trkpt>
      <trkpt lat="46.66839" lon="5.768">
        <ele>484.5</ele>
        <time>2020-11-29T12:59:01Z</time>
      </trkpt>
      <trkpt lat="46.66838" lon="5.76807">
        <ele>485.3</ele>
        <time>2020-11-29T12:59:05Z</time>
      </trkpt>
      <trkpt lat="46.66837" lon="5.76814">
        <ele>486.5</ele>
        <time>2020-11-29T12:59:09Z</time>
      </trkpt>
      <trkpt lat="46.66836" lon="5.76822">
        <ele>487.9</ele>
        <time>2020-11-29T12:59:14Z</time>
      </trkpt>
      <trkpt lat="46.66836" lon="5.76829">
        <ele>488.7</ele>
        <time>2020-11-29T12:59:18Z</time>
      </trkpt>
      <trkpt lat="46.66836" lon="5.76836">
        <ele>489.5</ele>
        <time>2020-11-29T12:59:22Z</time>
      </trkpt>
      <trkpt lat="46.66836" lon="5.76843">
        <ele>490.3</ele>
        <time>2020-11-29T12:59:26Z</time>
      </trkpt>
      <trkpt lat="46.66836" lon="5.7685">
        <ele>490.9</ele>
        <time>2020-11-29T12:59:30Z</time>
      </trkpt>
      <trkpt lat="46.66835" lon="5.76858">
        <ele>491.3</ele>
        <time>2020-11-29T12:59:35Z</time>
      </trkpt>
      <trkpt lat="46.66834" lon="5.76865">
        <ele>491.7</ele>
        <time>2020-11-29T12:59:40Z</time>
      </trkpt>
      <trkpt lat="46.66833" lon="5.76873">
        <ele>492</ele>
        <time>2020-11-29T12:59:45Z</time>
      </trkpt>
      <trkpt lat="46.66832" lon="5.76881">
        <ele>492.2</ele>
        <time>2020-11-29T12:59:50Z</time>
      </trkpt>
      <trkpt lat="46.66831" lon="5.76888">
        <ele>492.9</ele>
        <time>2020-11-29T12:59:55Z</time>
      </trkpt>
      <trkpt lat="46.66831" lon="5.76895">
        <ele>493.5</ele>
        <time>2020-11-29T12:59:59Z</time>
      </trkpt>
      <trkpt lat="46.66831" lon="5.76902">
        <ele>494.1</ele>
        <time>2020-11-29T13:00:03Z</time>
      </trkpt>
      <trkpt lat="46.6683" lon="5.76909">
        <ele>495.1</ele>
        <time>2020-11-29T13:00:07Z</time>
      </trkpt>
      <trkpt lat="46.66831" lon="5.76916">
        <ele>496</ele>
        <time>2020-11-29T13:00:11Z</time>
      </trkpt>
      <trkpt lat="46.66831" lon="5.76923">
        <ele>496.7</ele>
        <time>2020-11-29T13:00:15Z</time>
      </trkpt>
      <trkpt lat="46.66831" lon="5.7693">
        <ele>497.2</ele>
        <time>2020-11-29T13:00:19Z</time>
      </trkpt>
      <trkpt lat="46.66831" lon="5.76937">
        <ele>498</ele>
        <time>2020-11-29T13:00:23Z</time>
      </trkpt>
      <trkpt lat="46.66831" lon="5.76943">
        <ele>498.7</ele>
        <time>2020-11-29T13:00:27Z</time>
      </trkpt>
      <trkpt lat="46.66831" lon="5.7695">
        <ele>499.1</ele>
        <time>2020-11-29T13:00:32Z</time>
      </trkpt>
      <trkpt lat="46.66831" lon="5.76958">
        <ele>498.8</ele>
        <time>2020-11-29T13:00:37Z</time>
      </trkpt>
      <trkpt lat="46.66832" lon="5.76967">
        <ele>498.3</ele>
        <time>2020-11-29T13:00:41Z</time>
      </trkpt>
      <trkpt lat="46.66832" lon="5.76975">
        <ele>497.9</ele>
        <time>2020-11-29T13:00:45Z</time>
      </trkpt>
      <trkpt lat="46.66833" lon="5.76981">
        <ele>497.4</ele>
        <time>2020-11-29T13:00:49Z</time>
      </trkpt>
      <trkpt lat="46.66833" lon="5.76988">
        <ele>497.1</ele>
        <time>2020-11-29T13:00:53Z</time>
      </trkpt>
      <trkpt lat="46.66834" lon="5.76995">
        <ele>496.4</ele>
        <time>2020-11-29T13:00:57Z</time>
      </trkpt>
      <trkpt lat="46.66834" lon="5.77002">
        <ele>495.7</ele>
        <time>2020-11-29T13:01:01Z</time>
      </trkpt>
      <trkpt lat="46.66834" lon="5.7701">
        <ele>494.8</ele>
        <time>2020-11-29T13:01:06Z</time>
      </trkpt>
      <trkpt lat="46.66831" lon="5.77015">
        <ele>494.4</ele>
        <time>2020-11-29T13:01:11Z</time>
      </trkpt>
      <trkpt lat="46.66827" lon="5.77019">
        <ele>494.1</ele>
        <time>2020-11-29T13:01:16Z</time>
      </trkpt>
      <trkpt lat="46.66821" lon="5.77019">
        <ele>494.3</ele>
        <time>2020-11-29T13:01:21Z</time>
      </trkpt>
      <trkpt lat="46.66816" lon="5.77019">
        <ele>494.7</ele>
        <time>2020-11-29T13:01:26Z</time>
      </trkpt>
      <trkpt lat="46.66811" lon="5.77018">
        <ele>495.3</ele>
        <time>2020-11-29T13:01:31Z</time>
      </trkpt>
      <trkpt lat="46.66805" lon="5.77017">
        <ele>495.8</ele>
        <time>2020-11-29T13:01:36Z</time>
      </trkpt>
      <trkpt lat="46.668" lon="5.77017">
        <ele>496.3</ele>
        <time>2020-11-29T13:01:40Z</time>
      </trkpt>
      <trkpt lat="46.66795" lon="5.77016">
        <ele>496.6</ele>
        <time>2020-11-29T13:01:45Z</time>
      </trkpt>
      <trkpt lat="46.6679" lon="5.77015">
        <ele>496.5</ele>
        <time>2020-11-29T13:01:49Z</time>
      </trkpt>
      <trkpt lat="46.66785" lon="5.77015">
        <ele>496.2</ele>
        <time>2020-11-29T13:01:54Z</time>
      </trkpt>
      <trkpt lat="46.6678" lon="5.77014">
        <ele>495.8</ele>
        <time>2020-11-29T13:01:58Z</time>
      </trkpt>
      <trkpt lat="46.66775" lon="5.77014">
        <ele>495.5</ele>
        <time>2020-11-29T13:02:02Z</time>
      </trkpt>
      <trkpt lat="46.66769" lon="5.77014">
        <ele>495.2</ele>
        <time>2020-11-29T13:02:07Z</time>
      </trkpt>
      <trkpt lat="46.66763" lon="5.77013">
        <ele>495</ele>
        <time>2020-11-29T13:02:12Z</time>
      </trkpt>
      <trkpt lat="46.66759" lon="5.77013">
        <ele>495</ele>
        <time>2020-11-29T13:02:16Z</time>
      </trkpt>
      <trkpt lat="46.66753" lon="5.77013">
        <ele>495.1</ele>
        <time>2020-11-29T13:02:20Z</time>
      </trkpt>
      <trkpt lat="46.66749" lon="5.77013">
        <ele>495.2</ele>
        <time>2020-11-29T13:02:24Z</time>
      </trkpt>
      <trkpt lat="46.66744" lon="5.77013">
        <ele>495.5</ele>
        <time>2020-11-29T13:02:28Z</time>
      </trkpt>
      <trkpt lat="46.66739" lon="5.77013">
        <ele>495.8</ele>
        <time>2020-11-29T13:02:32Z</time>
      </trkpt>
      <trkpt lat="46.66734" lon="5.77014">
        <ele>496</ele>
        <time>2020-11-29T13:02:36Z</time>
      </trkpt>
      <trkpt lat="46.66729" lon="5.77015">
        <ele>496.1</ele>
        <time>2020-11-29T13:02:40Z</time>
      </trkpt>
      <trkpt lat="46.66724" lon="5.77017">
        <ele>496</ele>
        <time>2020-11-29T13:02:44Z</time>
      </trkpt>
      <trkpt lat="46.6672" lon="5.7702">
        <ele>495.7</ele>
        <time>2020-11-29T13:02:48Z</time>
      </trkpt>
      <trkpt lat="46.66716" lon="5.77022">
        <ele>495.1</ele>
        <time>2020-11-29T13:02:52Z</time>
      </trkpt>
      <trkpt lat="46.66711" lon="5.77026">
        <ele>494.7</ele>
        <time>2020-11-29T13:02:57Z</time>
      </trkpt>
      <trkpt lat="46.66707" lon="5.77031">
        <ele>495</ele>
        <time>2020-11-29T13:03:02Z</time>
      </trkpt>
      <trkpt lat="46.66704" lon="5.77037">
        <ele>495.2</ele>
        <time>2020-11-29T13:03:07Z</time>
      </trkpt>
      <trkpt lat="46.66701" lon="5.77042">
        <ele>495.1</ele>
        <time>2020-11-29T13:03:11Z</time>
      </trkpt>
      <trkpt lat="46.66699" lon="5.77049">
        <ele>495</ele>
        <time>2020-11-29T13:03:15Z</time>
      </trkpt>
      <trkpt lat="46.66697" lon="5.77056">
        <ele>494.9</ele>
        <time>2020-11-29T13:03:19Z</time>
      </trkpt>
      <trkpt lat="46.66697" lon="5.77062">
        <ele>494.7</ele>
        <time>2020-11-29T13:03:23Z</time>
      </trkpt>
      <trkpt lat="46.66695" lon="5.77069">
        <ele>494.5</ele>
        <time>2020-11-29T13:03:27Z</time>
      </trkpt>
      <trkpt lat="46.66694" lon="5.77076">
        <ele>494.4</ele>
        <time>2020-11-29T13:03:31Z</time>
      </trkpt>
      <trkpt lat="46.66694" lon="5.77083">
        <ele>494.2</ele>
        <time>2020-11-29T13:03:35Z</time>
      </trkpt>
      <trkpt lat="46.66693" lon="5.7709">
        <ele>494</ele>
        <time>2020-11-29T13:03:40Z</time>
      </trkpt>
      <trkpt lat="46.66691" lon="5.77097">
        <ele>493.9</ele>
        <time>2020-11-29T13:03:44Z</time>
      </trkpt>
      <trkpt lat="46.6669" lon="5.77103">
        <ele>494</ele>
        <time>2020-11-29T13:03:48Z</time>
      </trkpt>
      <trkpt lat="46.6669" lon="5.7711">
        <ele>494</ele>
        <time>2020-11-29T13:03:52Z</time>
      </trkpt>
      <trkpt lat="46.66689" lon="5.77117">
        <ele>493.9</ele>
        <time>2020-11-29T13:03:56Z</time>
      </trkpt>
      <trkpt lat="46.66688" lon="5.77123">
        <ele>493.9</ele>
        <time>2020-11-29T13:04:00Z</time>
      </trkpt>
      <trkpt lat="46.66687" lon="5.7713">
        <ele>493.9</ele>
        <time>2020-11-29T13:04:04Z</time>
      </trkpt>
      <trkpt lat="46.66686" lon="5.77137">
        <ele>493.7</ele>
        <time>2020-11-29T13:04:08Z</time>
      </trkpt>
      <trkpt lat="46.66685" lon="5.77144">
        <ele>493.6</ele>
        <time>2020-11-29T13:04:12Z</time>
      </trkpt>
      <trkpt lat="46.66683" lon="5.77152">
        <ele>493.9</ele>
        <time>2020-11-29T13:04:17Z</time>
      </trkpt>
      <trkpt lat="46.66682" lon="5.77159">
        <ele>494.2</ele>
        <time>2020-11-29T13:04:22Z</time>
      </trkpt>
      <trkpt lat="46.66681" lon="5.77166">
        <ele>494.2</ele>
        <time>2020-11-29T13:04:26Z</time>
      </trkpt>
      <trkpt lat="46.6668" lon="5.77173">
        <ele>494.1</ele>
        <time>2020-11-29T13:04:30Z</time>
      </trkpt>
      <trkpt lat="46.66679" lon="5.77179">
        <ele>494.2</ele>
        <time>2020-11-29T13:04:34Z</time>
      </trkpt>
      <trkpt lat="46.66678" lon="5.77187">
        <ele>494.1</ele>
        <time>2020-11-29T13:04:39Z</time>
      </trkpt>
      <trkpt lat="46.66677" lon="5.77193">
        <ele>494.1</ele>
        <time>2020-11-29T13:04:43Z</time>
      </trkpt>
      <trkpt lat="46.66676" lon="5.772">
        <ele>494.1</ele>
        <time>2020-11-29T13:04:47Z</time>
      </trkpt>
      <trkpt lat="46.66675" lon="5.77207">
        <ele>494.3</ele>
        <time>2020-11-29T13:04:51Z</time>
      </trkpt>
      <trkpt lat="46.66673" lon="5.77213">
        <ele>494.7</ele>
        <time>2020-11-29T13:04:55Z</time>
      </trkpt>
      <trkpt lat="46.66673" lon="5.77221">
        <ele>495</ele>
        <time>2020-11-29T13:05:00Z</time>
      </trkpt>
      <trkpt lat="46.66672" lon="5.77228">
        <ele>495.2</ele>
        <time>2020-11-29T13:05:04Z</time>
      </trkpt>
      <trkpt lat="46.66671" lon="5.77235">
        <ele>495.2</ele>
        <time>2020-11-29T13:05:08Z</time>
      </trkpt>
      <trkpt lat="46.6667" lon="5.77242">
        <ele>495.2</ele>
        <time>2020-11-29T13:05:13Z</time>
      </trkpt>
      <trkpt lat="46.66669" lon="5.7725">
        <ele>495.2</ele>
        <time>2020-11-29T13:05:17Z</time>
      </trkpt>
      <trkpt lat="46.66668" lon="5.77257">
        <ele>495.3</ele>
        <time>2020-11-29T13:05:21Z</time>
      </trkpt>
      <trkpt lat="46.66667" lon="5.77263">
        <ele>495.5</ele>
        <time>2020-11-29T13:05:25Z</time>
      </trkpt>
      <trkpt lat="46.66666" lon="5.77271">
        <ele>495.3</ele>
        <time>2020-11-29T13:05:30Z</time>
      </trkpt>
      <trkpt lat="46.66665" lon="5.77279">
        <ele>494.9</ele>
        <time>2020-11-29T13:05:34Z</time>
      </trkpt>
      <trkpt lat="46.66664" lon="5.77286">
        <ele>494.5</ele>
        <time>2020-11-29T13:05:38Z</time>
      </trkpt>
      <trkpt lat="46.66663" lon="5.77293">
        <ele>493.9</ele>
        <time>2020-11-29T13:05:42Z</time>
      </trkpt>
      <trkpt lat="46.66662" lon="5.773">
        <ele>492.8</ele>
        <time>2020-11-29T13:05:47Z</time>
      </trkpt>
      <trkpt lat="46.66661" lon="5.77306">
        <ele>491.6</ele>
        <time>2020-11-29T13:05:52Z</time>
      </trkpt>
      <trkpt lat="46.6666" lon="5.77313">
        <ele>490.6</ele>
        <time>2020-11-29T13:05:57Z</time>
      </trkpt>
      <trkpt lat="46.66658" lon="5.7732">
        <ele>489.7</ele>
        <time>2020-11-29T13:06:02Z</time>
      </trkpt>
      <trkpt lat="46.66658" lon="5.77327">
        <ele>488.5</ele>
        <time>2020-11-29T13:06:07Z</time>
      </trkpt>
      <trkpt lat="46.66657" lon="5.77334">
        <ele>487.7</ele>
        <time>2020-11-29T13:06:11Z</time>
      </trkpt>
      <trkpt lat="46.66657" lon="5.77341">
        <ele>487</ele>
        <time>2020-11-29T13:06:15Z</time>
      </trkpt>
      <trkpt lat="46.66656" lon="5.77349">
        <ele>486.6</ele>
        <time>2020-11-29T13:06:19Z</time>
      </trkpt>
      <trkpt lat="46.66656" lon="5.77356">
        <ele>486</ele>
        <time>2020-11-29T13:06:24Z</time>
      </trkpt>
      <trkpt lat="46.66655" lon="5.77363">
        <ele>485.7</ele>
        <time>2020-11-29T13:06:29Z</time>
      </trkpt>
      <trkpt lat="46.66653" lon="5.77371">
        <ele>485.4</ele>
        <time>2020-11-29T13:06:34Z</time>
      </trkpt>
      <trkpt lat="46.66652" lon="5.77378">
        <ele>485.3</ele>
        <time>2020-11-29T13:06:38Z</time>
      </trkpt>
      <trkpt lat="46.66651" lon="5.77386">
        <ele>485.1</ele>
        <time>2020-11-29T13:06:43Z</time>
      </trkpt>
      <trkpt lat="46.66649" lon="5.77393">
        <ele>484.9</ele>
        <time>2020-11-29T13:06:48Z</time>
      </trkpt>
      <trkpt lat="46.66648" lon="5.774">
        <ele>484.5</ele>
        <time>2020-11-29T13:06:53Z</time>
      </trkpt>
      <trkpt lat="46.66647" lon="5.77407">
        <ele>483.9</ele>
        <time>2020-11-29T13:06:58Z</time>
      </trkpt>
      <trkpt lat="46.66647" lon="5.77415">
        <ele>483</ele>
        <time>2020-11-29T13:07:03Z</time>
      </trkpt>
      <trkpt lat="46.66647" lon="5.77423">
        <ele>482</ele>
        <time>2020-11-29T13:07:09Z</time>
      </trkpt>
      <trkpt lat="46.66647" lon="5.7743">
        <ele>481.1</ele>
        <time>2020-11-29T13:07:14Z</time>
      </trkpt>
      <trkpt lat="46.66646" lon="5.77436">
        <ele>480.4</ele>
        <time>2020-11-29T13:07:19Z</time>
      </trkpt>
      <trkpt lat="46.66645" lon="5.77443">
        <ele>479.9</ele>
        <time>2020-11-29T13:07:23Z</time>
      </trkpt>
      <trkpt lat="46.66644" lon="5.7745">
        <ele>479.3</ele>
        <time>2020-11-29T13:07:27Z</time>
      </trkpt>
      <trkpt lat="46.66643" lon="5.77457">
        <ele>480.4</ele>
        <time>2020-11-29T13:07:29Z</time>
      </trkpt>
      <trkpt lat="46.66642" lon="5.77465">
        <ele>481.2</ele>
        <time>2020-11-29T13:07:32Z</time>
      </trkpt>
      <trkpt lat="46.66641" lon="5.77472">
        <ele>482</ele>
        <time>2020-11-29T13:07:36Z</time>
      </trkpt>
      <trkpt lat="46.6664" lon="5.77479">
        <ele>482.4</ele>
        <time>2020-11-29T13:07:40Z</time>
      </trkpt>
      <trkpt lat="46.6664" lon="5.77485">
        <ele>482.6</ele>
        <time>2020-11-29T13:07:44Z</time>
      </trkpt>
      <trkpt lat="46.66639" lon="5.77492">
        <ele>482.5</ele>
        <time>2020-11-29T13:07:48Z</time>
      </trkpt>
      <trkpt lat="46.66638" lon="5.775">
        <ele>482.5</ele>
        <time>2020-11-29T13:07:53Z</time>
      </trkpt>
      <trkpt lat="46.66637" lon="5.77507">
        <ele>482.3</ele>
        <time>2020-11-29T13:07:58Z</time>
      </trkpt>
      <trkpt lat="46.66637" lon="5.77514">
        <ele>482</ele>
        <time>2020-11-29T13:08:03Z</time>
      </trkpt>
      <trkpt lat="46.66637" lon="5.77521">
        <ele>481.9</ele>
        <time>2020-11-29T13:08:09Z</time>
      </trkpt>
      <trkpt lat="46.66637" lon="5.77527">
        <ele>482.5</ele>
        <time>2020-11-29T13:08:14Z</time>
      </trkpt>
      <trkpt lat="46.66639" lon="5.77535">
        <ele>483.4</ele>
        <time>2020-11-29T13:08:19Z</time>
      </trkpt>
      <trkpt lat="46.66641" lon="5.77542">
        <ele>484</ele>
        <time>2020-11-29T13:08:24Z</time>
      </trkpt>
      <trkpt lat="46.66641" lon="5.77549">
        <ele>483.4</ele>
        <time>2020-11-29T13:08:29Z</time>
      </trkpt>
      <trkpt lat="46.6664" lon="5.77557">
        <ele>484.2</ele>
        <time>2020-11-29T13:08:31Z</time>
      </trkpt>
      <trkpt lat="46.66639" lon="5.77563">
        <ele>484.6</ele>
        <time>2020-11-29T13:08:33Z</time>
      </trkpt>
      <trkpt lat="46.66637" lon="5.77571">
        <ele>485.6</ele>
        <time>2020-11-29T13:08:36Z</time>
      </trkpt>
      <trkpt lat="46.66636" lon="5.77577">
        <ele>486.7</ele>
        <time>2020-11-29T13:08:40Z</time>
      </trkpt>
      <trkpt lat="46.66635" lon="5.77584">
        <ele>488.2</ele>
        <time>2020-11-29T13:08:45Z</time>
      </trkpt>
      <trkpt lat="46.66633" lon="5.7759">
        <ele>490</ele>
        <time>2020-11-29T13:08:51Z</time>
      </trkpt>
      <trkpt lat="46.66635" lon="5.77597">
        <ele>491.4</ele>
        <time>2020-11-29T13:08:56Z</time>
      </trkpt>
      <trkpt lat="46.66639" lon="5.776">
        <ele>492.3</ele>
        <time>2020-11-29T13:09:01Z</time>
      </trkpt>
      <trkpt lat="46.66644" lon="5.77602">
        <ele>493.1</ele>
        <time>2020-11-29T13:09:05Z</time>
      </trkpt>
      <trkpt lat="46.66649" lon="5.77603">
        <ele>494</ele>
        <time>2020-11-29T13:09:09Z</time>
      </trkpt>
      <trkpt lat="46.66653" lon="5.77603">
        <ele>495.1</ele>
        <time>2020-11-29T13:09:14Z</time>
      </trkpt>
      <trkpt lat="46.6665" lon="5.77599">
        <ele>495.5</ele>
        <time>2020-11-29T13:09:55Z</time>
      </trkpt>
      <trkpt lat="46.66646" lon="5.77606">
        <ele>494.7</ele>
        <time>2020-11-29T13:10:01Z</time>
      </trkpt>
      <trkpt lat="46.66645" lon="5.77612">
        <ele>494</ele>
        <time>2020-11-29T13:10:05Z</time>
      </trkpt>
      <trkpt lat="46.66645" lon="5.77619">
        <ele>493.3</ele>
        <time>2020-11-29T13:10:09Z</time>
      </trkpt>
      <trkpt lat="46.66646" lon="5.77627">
        <ele>492.4</ele>
        <time>2020-11-29T13:10:14Z</time>
      </trkpt>
      <trkpt lat="46.66647" lon="5.77634">
        <ele>491.6</ele>
        <time>2020-11-29T13:10:18Z</time>
      </trkpt>
      <trkpt lat="46.66647" lon="5.77641">
        <ele>490.8</ele>
        <time>2020-11-29T13:10:22Z</time>
      </trkpt>
      <trkpt lat="46.66647" lon="5.77648">
        <ele>489.9</ele>
        <time>2020-11-29T13:10:26Z</time>
      </trkpt>
      <trkpt lat="46.66648" lon="5.77655">
        <ele>489.1</ele>
        <time>2020-11-29T13:10:31Z</time>
      </trkpt>
      <trkpt lat="46.66648" lon="5.77663">
        <ele>488.5</ele>
        <time>2020-11-29T13:10:36Z</time>
      </trkpt>
      <trkpt lat="46.66648" lon="5.77671">
        <ele>487.8</ele>
        <time>2020-11-29T13:10:41Z</time>
      </trkpt>
      <trkpt lat="46.6665" lon="5.77678">
        <ele>486.9</ele>
        <time>2020-11-29T13:10:45Z</time>
      </trkpt>
      <trkpt lat="46.6665" lon="5.77685">
        <ele>486</ele>
        <time>2020-11-29T13:10:49Z</time>
      </trkpt>
      <trkpt lat="46.66651" lon="5.77692">
        <ele>485.5</ele>
        <time>2020-11-29T13:10:52Z</time>
      </trkpt>
      <trkpt lat="46.66651" lon="5.777">
        <ele>484.9</ele>
        <time>2020-11-29T13:10:56Z</time>
      </trkpt>
      <trkpt lat="46.6665" lon="5.77707">
        <ele>484.2</ele>
        <time>2020-11-29T13:11:00Z</time>
      </trkpt>
      <trkpt lat="46.6665" lon="5.77714">
        <ele>483.6</ele>
        <time>2020-11-29T13:11:05Z</time>
      </trkpt>
      <trkpt lat="46.6665" lon="5.7772">
        <ele>483.8</ele>
        <time>2020-11-29T13:11:10Z</time>
      </trkpt>
      <trkpt lat="46.66651" lon="5.77728">
        <ele>484.2</ele>
        <time>2020-11-29T13:11:15Z</time>
      </trkpt>
      <trkpt lat="46.66651" lon="5.77735">
        <ele>484.7</ele>
        <time>2020-11-29T13:11:20Z</time>
      </trkpt>
      <trkpt lat="46.66651" lon="5.77742">
        <ele>484.7</ele>
        <time>2020-11-29T13:11:25Z</time>
      </trkpt>
      <trkpt lat="46.66652" lon="5.7775">
        <ele>484.7</ele>
        <time>2020-11-29T13:11:30Z</time>
      </trkpt>
      <trkpt lat="46.66653" lon="5.77757">
        <ele>485.1</ele>
        <time>2020-11-29T13:11:35Z</time>
      </trkpt>
      <trkpt lat="46.66653" lon="5.77765">
        <ele>485.7</ele>
        <time>2020-11-29T13:11:40Z</time>
      </trkpt>
      <trkpt lat="46.66653" lon="5.77773">
        <ele>486.1</ele>
        <time>2020-11-29T13:11:44Z</time>
      </trkpt>
      <trkpt lat="46.66653" lon="5.77781">
        <ele>486.5</ele>
        <time>2020-11-29T13:11:49Z</time>
      </trkpt>
      <trkpt lat="46.66655" lon="5.77788">
        <ele>487.1</ele>
        <time>2020-11-29T13:11:54Z</time>
      </trkpt>
      <trkpt lat="46.66656" lon="5.77795">
        <ele>487.6</ele>
        <time>2020-11-29T13:11:59Z</time>
      </trkpt>
      <trkpt lat="46.66656" lon="5.77803">
        <ele>487.8</ele>
        <time>2020-11-29T13:12:04Z</time>
      </trkpt>
      <trkpt lat="46.66656" lon="5.77811">
        <ele>487.6</ele>
        <time>2020-11-29T13:12:09Z</time>
      </trkpt>
      <trkpt lat="46.66657" lon="5.77819">
        <ele>486.9</ele>
        <time>2020-11-29T13:12:14Z</time>
      </trkpt>
      <trkpt lat="46.66657" lon="5.77826">
        <ele>485.8</ele>
        <time>2020-11-29T13:12:19Z</time>
      </trkpt>
      <trkpt lat="46.66657" lon="5.77834">
        <ele>484.9</ele>
        <time>2020-11-29T13:12:24Z</time>
      </trkpt>
      <trkpt lat="46.66657" lon="5.77841">
        <ele>484.6</ele>
        <time>2020-11-29T13:12:28Z</time>
      </trkpt>
      <trkpt lat="46.66657" lon="5.77847">
        <ele>484.5</ele>
        <time>2020-11-29T13:12:32Z</time>
      </trkpt>
      <trkpt lat="46.66657" lon="5.77855">
        <ele>484.4</ele>
        <time>2020-11-29T13:12:37Z</time>
      </trkpt>
      <trkpt lat="46.66657" lon="5.77863">
        <ele>484.3</ele>
        <time>2020-11-29T13:12:42Z</time>
      </trkpt>
      <trkpt lat="46.66657" lon="5.7787">
        <ele>484.4</ele>
        <time>2020-11-29T13:12:47Z</time>
      </trkpt>
      <trkpt lat="46.66656" lon="5.77878">
        <ele>484.5</ele>
        <time>2020-11-29T13:12:52Z</time>
      </trkpt>
      <trkpt lat="46.66657" lon="5.77885">
        <ele>484.5</ele>
        <time>2020-11-29T13:12:57Z</time>
      </trkpt>
      <trkpt lat="46.66657" lon="5.77893">
        <ele>484.3</ele>
        <time>2020-11-29T13:13:02Z</time>
      </trkpt>
      <trkpt lat="46.66657" lon="5.77901">
        <ele>484.1</ele>
        <time>2020-11-29T13:13:07Z</time>
      </trkpt>
      <trkpt lat="46.66657" lon="5.77909">
        <ele>484</ele>
        <time>2020-11-29T13:13:12Z</time>
      </trkpt>
      <trkpt lat="46.66657" lon="5.77916">
        <ele>483.9</ele>
        <time>2020-11-29T13:13:16Z</time>
      </trkpt>
      <trkpt lat="46.66658" lon="5.77922">
        <ele>484</ele>
        <time>2020-11-29T13:13:20Z</time>
      </trkpt>
      <trkpt lat="46.66658" lon="5.7793">
        <ele>484.3</ele>
        <time>2020-11-29T13:13:25Z</time>
      </trkpt>
      <trkpt lat="46.66658" lon="5.77938">
        <ele>484.6</ele>
        <time>2020-11-29T13:13:30Z</time>
      </trkpt>
      <trkpt lat="46.66658" lon="5.77946">
        <ele>484.8</ele>
        <time>2020-11-29T13:13:35Z</time>
      </trkpt>
      <trkpt lat="46.66657" lon="5.77953">
        <ele>484.9</ele>
        <time>2020-11-29T13:13:40Z</time>
      </trkpt>
      <trkpt lat="46.66655" lon="5.7796">
        <ele>484.9</ele>
        <time>2020-11-29T13:13:44Z</time>
      </trkpt>
      <trkpt lat="46.66653" lon="5.77966">
        <ele>484.7</ele>
        <time>2020-11-29T13:13:49Z</time>
      </trkpt>
      <trkpt lat="46.66652" lon="5.77974">
        <ele>484.7</ele>
        <time>2020-11-29T13:13:54Z</time>
      </trkpt>
      <trkpt lat="46.66652" lon="5.77981">
        <ele>484.8</ele>
        <time>2020-11-29T13:13:58Z</time>
      </trkpt>
      <trkpt lat="46.66651" lon="5.77988">
        <ele>485</ele>
        <time>2020-11-29T13:14:02Z</time>
      </trkpt>
      <trkpt lat="46.66649" lon="5.77995">
        <ele>485.4</ele>
        <time>2020-11-29T13:14:06Z</time>
      </trkpt>
      <trkpt lat="46.66648" lon="5.78002">
        <ele>486.1</ele>
        <time>2020-11-29T13:14:11Z</time>
      </trkpt>
      <trkpt lat="46.66646" lon="5.78009">
        <ele>486.7</ele>
        <time>2020-11-29T13:14:15Z</time>
      </trkpt>
      <trkpt lat="46.66644" lon="5.78016">
        <ele>487.5</ele>
        <time>2020-11-29T13:14:19Z</time>
      </trkpt>
      <trkpt lat="46.66644" lon="5.78023">
        <ele>488</ele>
        <time>2020-11-29T13:14:23Z</time>
      </trkpt>
      <trkpt lat="46.66642" lon="5.7803">
        <ele>488.5</ele>
        <time>2020-11-29T13:14:28Z</time>
      </trkpt>
      <trkpt lat="46.66641" lon="5.78037">
        <ele>489</ele>
        <time>2020-11-29T13:14:33Z</time>
      </trkpt>
      <trkpt lat="46.66641" lon="5.78045">
        <ele>489.5</ele>
        <time>2020-11-29T13:14:38Z</time>
      </trkpt>
      <trkpt lat="46.66641" lon="5.78053">
        <ele>490</ele>
        <time>2020-11-29T13:14:43Z</time>
      </trkpt>
      <trkpt lat="46.66641" lon="5.7806">
        <ele>490.2</ele>
        <time>2020-11-29T13:14:47Z</time>
      </trkpt>
      <trkpt lat="46.6664" lon="5.78068">
        <ele>490.2</ele>
        <time>2020-11-29T13:14:52Z</time>
      </trkpt>
      <trkpt lat="46.6664" lon="5.78075">
        <ele>489.9</ele>
        <time>2020-11-29T13:14:57Z</time>
      </trkpt>
      <trkpt lat="46.6664" lon="5.78083">
        <ele>489.6</ele>
        <time>2020-11-29T13:15:02Z</time>
      </trkpt>
      <trkpt lat="46.66641" lon="5.78091">
        <ele>489.3</ele>
        <time>2020-11-29T13:15:07Z</time>
      </trkpt>
      <trkpt lat="46.66641" lon="5.78097">
        <ele>489.2</ele>
        <time>2020-11-29T13:15:12Z</time>
      </trkpt>
      <trkpt lat="46.66642" lon="5.78105">
        <ele>489</ele>
        <time>2020-11-29T13:15:17Z</time>
      </trkpt>
      <trkpt lat="46.66643" lon="5.78111">
        <ele>489.2</ele>
        <time>2020-11-29T13:15:21Z</time>
      </trkpt>
      <trkpt lat="46.66644" lon="5.78119">
        <ele>489.4</ele>
        <time>2020-11-29T13:15:26Z</time>
      </trkpt>
      <trkpt lat="46.66645" lon="5.78127">
        <ele>490</ele>
        <time>2020-11-29T13:15:31Z</time>
      </trkpt>
      <trkpt lat="46.66645" lon="5.78134">
        <ele>490.1</ele>
        <time>2020-11-29T13:15:35Z</time>
      </trkpt>
      <trkpt lat="46.66644" lon="5.78142">
        <ele>490.3</ele>
        <time>2020-11-29T13:15:40Z</time>
      </trkpt>
      <trkpt lat="46.66644" lon="5.78149">
        <ele>490.2</ele>
        <time>2020-11-29T13:15:44Z</time>
      </trkpt>
      <trkpt lat="46.66645" lon="5.78156">
        <ele>490.1</ele>
        <time>2020-11-29T13:15:48Z</time>
      </trkpt>
      <trkpt lat="46.66646" lon="5.78163">
        <ele>489.8</ele>
        <time>2020-11-29T13:15:52Z</time>
      </trkpt>
      <trkpt lat="46.66645" lon="5.7817">
        <ele>489.6</ele>
        <time>2020-11-29T13:15:56Z</time>
      </trkpt>
      <trkpt lat="46.66643" lon="5.78177">
        <ele>489.7</ele>
        <time>2020-11-29T13:16:00Z</time>
      </trkpt>
      <trkpt lat="46.6664" lon="5.78183">
        <ele>489.9</ele>
        <time>2020-11-29T13:16:05Z</time>
      </trkpt>
      <trkpt lat="46.66636" lon="5.78188">
        <ele>490.5</ele>
        <time>2020-11-29T13:16:09Z</time>
      </trkpt>
      <trkpt lat="46.66632" lon="5.78189">
        <ele>491.2</ele>
        <time>2020-11-29T13:16:13Z</time>
      </trkpt>
      <trkpt lat="46.66627" lon="5.78192">
        <ele>492.6</ele>
        <time>2020-11-29T13:16:19Z</time>
      </trkpt>
      <trkpt lat="46.66622" lon="5.78191">
        <ele>493.8</ele>
        <time>2020-11-29T13:16:24Z</time>
      </trkpt>
      <trkpt lat="46.66617" lon="5.7819">
        <ele>495</ele>
        <time>2020-11-29T13:16:30Z</time>
      </trkpt>
      <trkpt lat="46.66612" lon="5.7819">
        <ele>496</ele>
        <time>2020-11-29T13:16:35Z</time>
      </trkpt>
      <trkpt lat="46.66606" lon="5.78191">
        <ele>496.8</ele>
        <time>2020-11-29T13:16:40Z</time>
      </trkpt>
      <trkpt lat="46.66602" lon="5.7819">
        <ele>497.4</ele>
        <time>2020-11-29T13:16:44Z</time>
      </trkpt>
      <trkpt lat="46.66597" lon="5.7819">
        <ele>498.5</ele>
        <time>2020-11-29T13:16:50Z</time>
      </trkpt>
      <trkpt lat="46.66591" lon="5.78189">
        <ele>499.6</ele>
        <time>2020-11-29T13:16:56Z</time>
      </trkpt>
      <trkpt lat="46.66586" lon="5.78188">
        <ele>500.4</ele>
        <time>2020-11-29T13:17:02Z</time>
      </trkpt>
      <trkpt lat="46.66582" lon="5.7819">
        <ele>500.8</ele>
        <time>2020-11-29T13:17:07Z</time>
      </trkpt>
      <trkpt lat="46.66577" lon="5.78192">
        <ele>501.6</ele>
        <time>2020-11-29T13:17:12Z</time>
      </trkpt>
      <trkpt lat="46.66572" lon="5.78194">
        <ele>502.3</ele>
        <time>2020-11-29T13:17:17Z</time>
      </trkpt>
      <trkpt lat="46.66567" lon="5.78194">
        <ele>502.9</ele>
        <time>2020-11-29T13:17:22Z</time>
      </trkpt>
      <trkpt lat="46.66562" lon="5.78193">
        <ele>503.3</ele>
        <time>2020-11-29T13:17:28Z</time>
      </trkpt>
      <trkpt lat="46.66558" lon="5.7819">
        <ele>503.3</ele>
        <time>2020-11-29T13:17:34Z</time>
      </trkpt>
      <trkpt lat="46.66553" lon="5.78188">
        <ele>503</ele>
        <time>2020-11-29T13:17:39Z</time>
      </trkpt>
      <trkpt lat="46.66548" lon="5.78186">
        <ele>502.6</ele>
        <time>2020-11-29T13:17:44Z</time>
      </trkpt>
      <trkpt lat="46.66543" lon="5.78185">
        <ele>501.9</ele>
        <time>2020-11-29T13:17:50Z</time>
      </trkpt>
      <trkpt lat="46.66539" lon="5.78187">
        <ele>501</ele>
        <time>2020-11-29T13:17:57Z</time>
      </trkpt>
      <trkpt lat="46.66534" lon="5.78189">
        <ele>500.3</ele>
        <time>2020-11-29T13:18:03Z</time>
      </trkpt>
      <trkpt lat="46.66529" lon="5.78192">
        <ele>499.7</ele>
        <time>2020-11-29T13:18:08Z</time>
      </trkpt>
      <trkpt lat="46.66526" lon="5.78195">
        <ele>501.4</ele>
        <time>2020-11-29T13:18:10Z</time>
      </trkpt>
      <trkpt lat="46.66521" lon="5.78199">
        <ele>502.5</ele>
        <time>2020-11-29T13:18:13Z</time>
      </trkpt>
      <trkpt lat="46.66517" lon="5.78202">
        <ele>503.6</ele>
        <time>2020-11-29T13:18:17Z</time>
      </trkpt>
      <trkpt lat="46.66513" lon="5.78205">
        <ele>504.1</ele>
        <time>2020-11-29T13:18:21Z</time>
      </trkpt>
      <trkpt lat="46.66508" lon="5.78208">
        <ele>504.3</ele>
        <time>2020-11-29T13:18:26Z</time>
      </trkpt>
      <trkpt lat="46.66504" lon="5.7821">
        <ele>504.4</ele>
        <time>2020-11-29T13:18:32Z</time>
      </trkpt>
      <trkpt lat="46.665" lon="5.78213">
        <ele>504.4</ele>
        <time>2020-11-29T13:18:37Z</time>
      </trkpt>
      <trkpt lat="46.66495" lon="5.78217">
        <ele>504.1</ele>
        <time>2020-11-29T13:18:43Z</time>
      </trkpt>
      <trkpt lat="46.6649" lon="5.78221">
        <ele>503.9</ele>
        <time>2020-11-29T13:18:47Z</time>
      </trkpt>
      <trkpt lat="46.66487" lon="5.78226">
        <ele>503.8</ele>
        <time>2020-11-29T13:18:52Z</time>
      </trkpt>
      <trkpt lat="46.66483" lon="5.7823">
        <ele>503.9</ele>
        <time>2020-11-29T13:18:57Z</time>
      </trkpt>
      <trkpt lat="46.6648" lon="5.78234">
        <ele>503.9</ele>
        <time>2020-11-29T13:19:02Z</time>
      </trkpt>
      <trkpt lat="46.66476" lon="5.78241">
        <ele>504.1</ele>
        <time>2020-11-29T13:19:08Z</time>
      </trkpt>
      <trkpt lat="46.66474" lon="5.78246">
        <ele>504.4</ele>
        <time>2020-11-29T13:19:12Z</time>
      </trkpt>
      <trkpt lat="46.66471" lon="5.78252">
        <ele>504.5</ele>
        <time>2020-11-29T13:19:17Z</time>
      </trkpt>
      <trkpt lat="46.66471" lon="5.78259">
        <ele>504.6</ele>
        <time>2020-11-29T13:19:23Z</time>
      </trkpt>
      <trkpt lat="46.66472" lon="5.78266">
        <ele>504.5</ele>
        <time>2020-11-29T13:19:30Z</time>
      </trkpt>
      <trkpt lat="46.66474" lon="5.78273">
        <ele>504.4</ele>
        <time>2020-11-29T13:19:37Z</time>
      </trkpt>
      <trkpt lat="46.66478" lon="5.78276">
        <ele>504</ele>
        <time>2020-11-29T13:19:42Z</time>
      </trkpt>
      <trkpt lat="46.66483" lon="5.78279">
        <ele>503.5</ele>
        <time>2020-11-29T13:19:47Z</time>
      </trkpt>
      <trkpt lat="46.66487" lon="5.78283">
        <ele>503.1</ele>
        <time>2020-11-29T13:19:53Z</time>
      </trkpt>
      <trkpt lat="46.66492" lon="5.78281">
        <ele>502.6</ele>
        <time>2020-11-29T13:20:00Z</time>
      </trkpt>
      <trkpt lat="46.66494" lon="5.78274">
        <ele>502</ele>
        <time>2020-11-29T13:20:05Z</time>
      </trkpt>
      <trkpt lat="46.66497" lon="5.78268">
        <ele>501.3</ele>
        <time>2020-11-29T13:20:09Z</time>
      </trkpt>
      <trkpt lat="46.665" lon="5.78263">
        <ele>500.7</ele>
        <time>2020-11-29T13:20:14Z</time>
      </trkpt>
      <trkpt lat="46.66503" lon="5.78257">
        <ele>500</ele>
        <time>2020-11-29T13:20:20Z</time>
      </trkpt>
      <trkpt lat="46.66507" lon="5.78253">
        <ele>499.4</ele>
        <time>2020-11-29T13:20:26Z</time>
      </trkpt>
      <trkpt lat="46.66512" lon="5.78251">
        <ele>498.8</ele>
        <time>2020-11-29T13:20:31Z</time>
      </trkpt>
      <trkpt lat="46.66517" lon="5.78248">
        <ele>498.1</ele>
        <time>2020-11-29T13:20:36Z</time>
      </trkpt>
      <trkpt lat="46.66522" lon="5.78248">
        <ele>497.3</ele>
        <time>2020-11-29T13:20:42Z</time>
      </trkpt>
      <trkpt lat="46.66527" lon="5.78246">
        <ele>496.6</ele>
        <time>2020-11-29T13:20:51Z</time>
      </trkpt>
      <trkpt lat="46.66532" lon="5.78248">
        <ele>496.2</ele>
        <time>2020-11-29T13:20:59Z</time>
      </trkpt>
      <trkpt lat="46.66536" lon="5.78252">
        <ele>495.8</ele>
        <time>2020-11-29T13:21:04Z</time>
      </trkpt>
      <trkpt lat="46.66541" lon="5.78254">
        <ele>496.1</ele>
        <time>2020-11-29T13:21:08Z</time>
      </trkpt>
      <trkpt lat="46.66546" lon="5.78255">
        <ele>496.9</ele>
        <time>2020-11-29T13:21:12Z</time>
      </trkpt>
      <trkpt lat="46.66551" lon="5.78256">
        <ele>498.5</ele>
        <time>2020-11-29T13:21:23Z</time>
      </trkpt>
      <trkpt lat="46.66556" lon="5.78257">
        <ele>498.9</ele>
        <time>2020-11-29T13:21:27Z</time>
      </trkpt>
      <trkpt lat="46.66561" lon="5.7826">
        <ele>498.9</ele>
        <time>2020-11-29T13:21:32Z</time>
      </trkpt>
      <trkpt lat="46.66565" lon="5.78262">
        <ele>498.3</ele>
        <time>2020-11-29T13:21:36Z</time>
      </trkpt>
      <trkpt lat="46.6657" lon="5.78263">
        <ele>497.3</ele>
        <time>2020-11-29T13:21:41Z</time>
      </trkpt>
      <trkpt lat="46.66574" lon="5.78266">
        <ele>496.1</ele>
        <time>2020-11-29T13:21:46Z</time>
      </trkpt>
      <trkpt lat="46.66579" lon="5.78269">
        <ele>494.8</ele>
        <time>2020-11-29T13:21:52Z</time>
      </trkpt>
      <trkpt lat="46.66584" lon="5.78272">
        <ele>493.8</ele>
        <time>2020-11-29T13:21:58Z</time>
      </trkpt>
      <trkpt lat="46.66589" lon="5.78275">
        <ele>493.4</ele>
        <time>2020-11-29T13:22:03Z</time>
      </trkpt>
      <trkpt lat="46.66593" lon="5.78278">
        <ele>493.1</ele>
        <time>2020-11-29T13:22:08Z</time>
      </trkpt>
      <trkpt lat="46.66597" lon="5.78281">
        <ele>492.4</ele>
        <time>2020-11-29T13:22:14Z</time>
      </trkpt>
      <trkpt lat="46.66602" lon="5.78284">
        <ele>491.5</ele>
        <time>2020-11-29T13:22:20Z</time>
      </trkpt>
      <trkpt lat="46.66606" lon="5.78286">
        <ele>491.1</ele>
        <time>2020-11-29T13:22:24Z</time>
      </trkpt>
      <trkpt lat="46.6661" lon="5.7829">
        <ele>491</ele>
        <time>2020-11-29T13:22:28Z</time>
      </trkpt>
      <trkpt lat="46.66617" lon="5.7829">
        <ele>492.9</ele>
        <time>2020-11-29T13:22:30Z</time>
      </trkpt>
      <trkpt lat="46.66622" lon="5.78292">
        <ele>494.4</ele>
        <time>2020-11-29T13:22:34Z</time>
      </trkpt>
      <trkpt lat="46.66626" lon="5.78296">
        <ele>495.2</ele>
        <time>2020-11-29T13:22:39Z</time>
      </trkpt>
      <trkpt lat="46.66629" lon="5.78301">
        <ele>495.4</ele>
        <time>2020-11-29T13:22:44Z</time>
      </trkpt>
      <trkpt lat="46.66632" lon="5.78306">
        <ele>495.3</ele>
        <time>2020-11-29T13:22:48Z</time>
      </trkpt>
      <trkpt lat="46.66635" lon="5.78312">
        <ele>495.2</ele>
        <time>2020-11-29T13:22:52Z</time>
      </trkpt>
      <trkpt lat="46.66637" lon="5.78318">
        <ele>494.7</ele>
        <time>2020-11-29T13:22:57Z</time>
      </trkpt>
      <trkpt lat="46.66639" lon="5.78325">
        <ele>493.9</ele>
        <time>2020-11-29T13:23:02Z</time>
      </trkpt>
      <trkpt lat="46.6664" lon="5.78332">
        <ele>492.8</ele>
        <time>2020-11-29T13:23:07Z</time>
      </trkpt>
      <trkpt lat="46.6664" lon="5.7834">
        <ele>491.3</ele>
        <time>2020-11-29T13:23:13Z</time>
      </trkpt>
      <trkpt lat="46.66641" lon="5.78348">
        <ele>490.2</ele>
        <time>2020-11-29T13:23:19Z</time>
      </trkpt>
      <trkpt lat="46.66641" lon="5.78355">
        <ele>489.7</ele>
        <time>2020-11-29T13:23:24Z</time>
      </trkpt>
      <trkpt lat="46.66641" lon="5.78362">
        <ele>489.2</ele>
        <time>2020-11-29T13:23:29Z</time>
      </trkpt>
      <trkpt lat="46.66642" lon="5.7837">
        <ele>488.3</ele>
        <time>2020-11-29T13:23:34Z</time>
      </trkpt>
      <trkpt lat="46.66641" lon="5.78377">
        <ele>487.1</ele>
        <time>2020-11-29T13:23:39Z</time>
      </trkpt>
      <trkpt lat="46.66641" lon="5.78385">
        <ele>486</ele>
        <time>2020-11-29T13:23:44Z</time>
      </trkpt>
      <trkpt lat="46.6664" lon="5.78393">
        <ele>485.1</ele>
        <time>2020-11-29T13:23:49Z</time>
      </trkpt>
      <trkpt lat="46.6664" lon="5.784">
        <ele>484.6</ele>
        <time>2020-11-29T13:23:53Z</time>
      </trkpt>
      <trkpt lat="46.66639" lon="5.78406">
        <ele>484.4</ele>
        <time>2020-11-29T13:23:57Z</time>
      </trkpt>
      <trkpt lat="46.66639" lon="5.78414">
        <ele>484.4</ele>
        <time>2020-11-29T13:24:02Z</time>
      </trkpt>
      <trkpt lat="46.66639" lon="5.78421">
        <ele>484.6</ele>
        <time>2020-11-29T13:24:06Z</time>
      </trkpt>
      <trkpt lat="46.66639" lon="5.78429">
        <ele>484.8</ele>
        <time>2020-11-29T13:24:11Z</time>
      </trkpt>
      <trkpt lat="46.66639" lon="5.78436">
        <ele>484.8</ele>
        <time>2020-11-29T13:24:17Z</time>
      </trkpt>
      <trkpt lat="46.6664" lon="5.78443">
        <ele>484.4</ele>
        <time>2020-11-29T13:24:22Z</time>
      </trkpt>
      <trkpt lat="46.6664" lon="5.78451">
        <ele>484.2</ele>
        <time>2020-11-29T13:24:27Z</time>
      </trkpt>
      <trkpt lat="46.6664" lon="5.78459">
        <ele>484</ele>
        <time>2020-11-29T13:24:32Z</time>
      </trkpt>
      <trkpt lat="46.6664" lon="5.78467">
        <ele>484.1</ele>
        <time>2020-11-29T13:24:37Z</time>
      </trkpt>
      <trkpt lat="46.6664" lon="5.78473">
        <ele>484.2</ele>
        <time>2020-11-29T13:24:42Z</time>
      </trkpt>
      <trkpt lat="46.6664" lon="5.7848">
        <ele>484.1</ele>
        <time>2020-11-29T13:24:47Z</time>
      </trkpt>
      <trkpt lat="46.6664" lon="5.78487">
        <ele>484.2</ele>
        <time>2020-11-29T13:24:51Z</time>
      </trkpt>
      <trkpt lat="46.66639" lon="5.78494">
        <ele>483.9</ele>
        <time>2020-11-29T13:24:56Z</time>
      </trkpt>
      <trkpt lat="46.66638" lon="5.78502">
        <ele>483.7</ele>
        <time>2020-11-29T13:25:01Z</time>
      </trkpt>
      <trkpt lat="46.66638" lon="5.7851">
        <ele>483.5</ele>
        <time>2020-11-29T13:25:06Z</time>
      </trkpt>
      <trkpt lat="46.66638" lon="5.78517">
        <ele>483.1</ele>
        <time>2020-11-29T13:25:11Z</time>
      </trkpt>
      <trkpt lat="46.66638" lon="5.78524">
        <ele>482.6</ele>
        <time>2020-11-29T13:25:16Z</time>
      </trkpt>
      <trkpt lat="46.66638" lon="5.78532">
        <ele>482.3</ele>
        <time>2020-11-29T13:25:21Z</time>
      </trkpt>
      <trkpt lat="46.66638" lon="5.7854">
        <ele>481.8</ele>
        <time>2020-11-29T13:25:26Z</time>
      </trkpt>
      <trkpt lat="46.66638" lon="5.78547">
        <ele>481.3</ele>
        <time>2020-11-29T13:25:31Z</time>
      </trkpt>
      <trkpt lat="46.66637" lon="5.78553">
        <ele>483.1</ele>
        <time>2020-11-29T13:25:33Z</time>
      </trkpt>
      <trkpt lat="46.66638" lon="5.7856">
        <ele>484.3</ele>
        <time>2020-11-29T13:25:36Z</time>
      </trkpt>
      <trkpt lat="46.66639" lon="5.78567">
        <ele>486</ele>
        <time>2020-11-29T13:25:41Z</time>
      </trkpt>
      <trkpt lat="46.6664" lon="5.78575">
        <ele>486.7</ele>
        <time>2020-11-29T13:25:48Z</time>
      </trkpt>
      <trkpt lat="46.6664" lon="5.78582">
        <ele>486.4</ele>
        <time>2020-11-29T13:25:53Z</time>
      </trkpt>
      <trkpt lat="46.66639" lon="5.7859">
        <ele>485.7</ele>
        <time>2020-11-29T13:25:59Z</time>
      </trkpt>
      <trkpt lat="46.66638" lon="5.78598">
        <ele>484.8</ele>
        <time>2020-11-29T13:26:04Z</time>
      </trkpt>
      <trkpt lat="46.66637" lon="5.78606">
        <ele>484</ele>
        <time>2020-11-29T13:26:08Z</time>
      </trkpt>
      <trkpt lat="46.66637" lon="5.78613">
        <ele>483.1</ele>
        <time>2020-11-29T13:26:12Z</time>
      </trkpt>
      <trkpt lat="46.66638" lon="5.78619">
        <ele>481.8</ele>
        <time>2020-11-29T13:26:18Z</time>
      </trkpt>
      <trkpt lat="46.66639" lon="5.78626">
        <ele>481.1</ele>
        <time>2020-11-29T13:26:22Z</time>
      </trkpt>
      <trkpt lat="46.66641" lon="5.78633">
        <ele>480.6</ele>
        <time>2020-11-29T13:26:27Z</time>
      </trkpt>
      <trkpt lat="46.66644" lon="5.7864">
        <ele>480.9</ele>
        <time>2020-11-29T13:26:31Z</time>
      </trkpt>
      <trkpt lat="46.66645" lon="5.78647">
        <ele>481.3</ele>
        <time>2020-11-29T13:26:35Z</time>
      </trkpt>
      <trkpt lat="46.66645" lon="5.78653">
        <ele>481.4</ele>
        <time>2020-11-29T13:26:40Z</time>
      </trkpt>
      <trkpt lat="46.66647" lon="5.78661">
        <ele>480.8</ele>
        <time>2020-11-29T13:26:47Z</time>
      </trkpt>
      <trkpt lat="46.66646" lon="5.78668">
        <ele>479.8</ele>
        <time>2020-11-29T13:26:54Z</time>
      </trkpt>
      <trkpt lat="46.66645" lon="5.78675">
        <ele>480.1</ele>
        <time>2020-11-29T13:26:58Z</time>
      </trkpt>
      <trkpt lat="46.66643" lon="5.78682">
        <ele>481.2</ele>
        <time>2020-11-29T13:27:02Z</time>
      </trkpt>
      <trkpt lat="46.66643" lon="5.78689">
        <ele>481.6</ele>
        <time>2020-11-29T13:27:10Z</time>
      </trkpt>
      <trkpt lat="46.66643" lon="5.78697">
        <ele>481.3</ele>
        <time>2020-11-29T13:27:16Z</time>
      </trkpt>
      <trkpt lat="46.66644" lon="5.78704">
        <ele>481.8</ele>
        <time>2020-11-29T13:27:20Z</time>
      </trkpt>
      <trkpt lat="46.66643" lon="5.78711">
        <ele>482.5</ele>
        <time>2020-11-29T13:27:24Z</time>
      </trkpt>
      <trkpt lat="46.66642" lon="5.78718">
        <ele>483.3</ele>
        <time>2020-11-29T13:27:31Z</time>
      </trkpt>
      <trkpt lat="46.66642" lon="5.78726">
        <ele>485.3</ele>
        <time>2020-11-29T13:28:11Z</time>
      </trkpt>
      <trkpt lat="46.66642" lon="5.78733">
        <ele>486.7</ele>
        <time>2020-11-29T13:28:15Z</time>
      </trkpt>
      <trkpt lat="46.66645" lon="5.78728">
        <ele>489.2</ele>
        <time>2020-11-29T13:28:48Z</time>
      </trkpt>
      <trkpt lat="46.66646" lon="5.78737">
        <ele>490.6</ele>
        <time>2020-11-29T13:30:04Z</time>
      </trkpt>
      <trkpt lat="46.66646" lon="5.78744">
        <ele>491.2</ele>
        <time>2020-11-29T13:30:09Z</time>
      </trkpt>
      <trkpt lat="46.66647" lon="5.78752">
        <ele>491.3</ele>
        <time>2020-11-29T13:30:17Z</time>
      </trkpt>
      <trkpt lat="46.66646" lon="5.78759">
        <ele>490.9</ele>
        <time>2020-11-29T13:30:28Z</time>
      </trkpt>
      <trkpt lat="46.66646" lon="5.78767">
        <ele>490.6</ele>
        <time>2020-11-29T13:30:32Z</time>
      </trkpt>
      <trkpt lat="46.66646" lon="5.78774">
        <ele>490.6</ele>
        <time>2020-11-29T13:30:37Z</time>
      </trkpt>
      <trkpt lat="46.66645" lon="5.78781">
        <ele>490.9</ele>
        <time>2020-11-29T13:30:41Z</time>
      </trkpt>
      <trkpt lat="46.66645" lon="5.78788">
        <ele>491.4</ele>
        <time>2020-11-29T13:30:46Z</time>
      </trkpt>
      <trkpt lat="46.66645" lon="5.78796">
        <ele>492</ele>
        <time>2020-11-29T13:30:51Z</time>
      </trkpt>
      <trkpt lat="46.66646" lon="5.78803">
        <ele>492.6</ele>
        <time>2020-11-29T13:30:57Z</time>
      </trkpt>
      <trkpt lat="46.66645" lon="5.7881">
        <ele>492</ele>
        <time>2020-11-29T13:31:02Z</time>
      </trkpt>
      <trkpt lat="46.66645" lon="5.78817">
        <ele>491.4</ele>
        <time>2020-11-29T13:31:08Z</time>
      </trkpt>
      <trkpt lat="46.66646" lon="5.78823">
        <ele>490.9</ele>
        <time>2020-11-29T13:31:11Z</time>
      </trkpt>
      <trkpt lat="46.66647" lon="5.7883">
        <ele>490.2</ele>
        <time>2020-11-29T13:31:15Z</time>
      </trkpt>
      <trkpt lat="46.66648" lon="5.78837">
        <ele>489.4</ele>
        <time>2020-11-29T13:31:20Z</time>
      </trkpt>
      <trkpt lat="46.66649" lon="5.78844">
        <ele>488.7</ele>
        <time>2020-11-29T13:31:25Z</time>
      </trkpt>
      <trkpt lat="46.66651" lon="5.78851">
        <ele>488.1</ele>
        <time>2020-11-29T13:31:30Z</time>
      </trkpt>
      <trkpt lat="46.66651" lon="5.78858">
        <ele>487.8</ele>
        <time>2020-11-29T13:31:36Z</time>
      </trkpt>
      <trkpt lat="46.66651" lon="5.78864">
        <ele>487.6</ele>
        <time>2020-11-29T13:31:42Z</time>
      </trkpt>
      <trkpt lat="46.66651" lon="5.78871">
        <ele>487.5</ele>
        <time>2020-11-29T13:31:47Z</time>
      </trkpt>
      <trkpt lat="46.6665" lon="5.78879">
        <ele>487.7</ele>
        <time>2020-11-29T13:31:53Z</time>
      </trkpt>
      <trkpt lat="46.66649" lon="5.78886">
        <ele>487.7</ele>
        <time>2020-11-29T13:31:58Z</time>
      </trkpt>
      <trkpt lat="46.66649" lon="5.78893">
        <ele>487.4</ele>
        <time>2020-11-29T13:32:03Z</time>
      </trkpt>
      <trkpt lat="46.66648" lon="5.78901">
        <ele>487</ele>
        <time>2020-11-29T13:32:08Z</time>
      </trkpt>
      <trkpt lat="46.66647" lon="5.78908">
        <ele>486.6</ele>
        <time>2020-11-29T13:32:12Z</time>
      </trkpt>
      <trkpt lat="46.66645" lon="5.78914">
        <ele>486.4</ele>
        <time>2020-11-29T13:32:16Z</time>
      </trkpt>
      <trkpt lat="46.66644" lon="5.7892">
        <ele>486.5</ele>
        <time>2020-11-29T13:32:20Z</time>
      </trkpt>
      <trkpt lat="46.66642" lon="5.78926">
        <ele>486.8</ele>
        <time>2020-11-29T13:32:24Z</time>
      </trkpt>
      <trkpt lat="46.66639" lon="5.78936">
        <ele>486.2</ele>
        <time>2020-11-29T13:32:29Z</time>
      </trkpt>
      <trkpt lat="46.66637" lon="5.78944">
        <ele>485.6</ele>
        <time>2020-11-29T13:32:33Z</time>
      </trkpt>
      <trkpt lat="46.66636" lon="5.78951">
        <ele>485</ele>
        <time>2020-11-29T13:32:38Z</time>
      </trkpt>
      <trkpt lat="46.66635" lon="5.78959">
        <ele>485</ele>
        <time>2020-11-29T13:32:41Z</time>
      </trkpt>
      <trkpt lat="46.66635" lon="5.78966">
        <ele>485.2</ele>
        <time>2020-11-29T13:32:45Z</time>
      </trkpt>
      <trkpt lat="46.66634" lon="5.78973">
        <ele>485.3</ele>
        <time>2020-11-29T13:32:50Z</time>
      </trkpt>
      <trkpt lat="46.66634" lon="5.7898">
        <ele>485.8</ele>
        <time>2020-11-29T13:32:55Z</time>
      </trkpt>
      <trkpt lat="46.66634" lon="5.78988">
        <ele>486</ele>
        <time>2020-11-29T13:32:59Z</time>
      </trkpt>
      <trkpt lat="46.66634" lon="5.78996">
        <ele>486.2</ele>
        <time>2020-11-29T13:33:04Z</time>
      </trkpt>
      <trkpt lat="46.66634" lon="5.79003">
        <ele>486.3</ele>
        <time>2020-11-29T13:33:08Z</time>
      </trkpt>
      <trkpt lat="46.66634" lon="5.7901">
        <ele>486.7</ele>
        <time>2020-11-29T13:33:13Z</time>
      </trkpt>
      <trkpt lat="46.66633" lon="5.79018">
        <ele>486.8</ele>
        <time>2020-11-29T13:33:18Z</time>
      </trkpt>
      <trkpt lat="46.66632" lon="5.79025">
        <ele>486.6</ele>
        <time>2020-11-29T13:33:23Z</time>
      </trkpt>
      <trkpt lat="46.66632" lon="5.79032">
        <ele>486.4</ele>
        <time>2020-11-29T13:33:28Z</time>
      </trkpt>
      <trkpt lat="46.6663" lon="5.79039">
        <ele>486</ele>
        <time>2020-11-29T13:33:33Z</time>
      </trkpt>
      <trkpt lat="46.66629" lon="5.79046">
        <ele>485.7</ele>
        <time>2020-11-29T13:33:37Z</time>
      </trkpt>
      <trkpt lat="46.66628" lon="5.79052">
        <ele>485.5</ele>
        <time>2020-11-29T13:33:41Z</time>
      </trkpt>
      <trkpt lat="46.66627" lon="5.7906">
        <ele>485.4</ele>
        <time>2020-11-29T13:33:45Z</time>
      </trkpt>
      <trkpt lat="46.66627" lon="5.79068">
        <ele>485.4</ele>
        <time>2020-11-29T13:33:49Z</time>
      </trkpt>
      <trkpt lat="46.66626" lon="5.79075">
        <ele>485.3</ele>
        <time>2020-11-29T13:33:54Z</time>
      </trkpt>
      <trkpt lat="46.66625" lon="5.79082">
        <ele>485.2</ele>
        <time>2020-11-29T13:33:58Z</time>
      </trkpt>
      <trkpt lat="46.66624" lon="5.7909">
        <ele>485.3</ele>
        <time>2020-11-29T13:34:02Z</time>
      </trkpt>
      <trkpt lat="46.66623" lon="5.79097">
        <ele>485.4</ele>
        <time>2020-11-29T13:34:06Z</time>
      </trkpt>
      <trkpt lat="46.66622" lon="5.79104">
        <ele>485.6</ele>
        <time>2020-11-29T13:34:10Z</time>
      </trkpt>
      <trkpt lat="46.66621" lon="5.7911">
        <ele>485.8</ele>
        <time>2020-11-29T13:34:15Z</time>
      </trkpt>
      <trkpt lat="46.66619" lon="5.79117">
        <ele>486.1</ele>
        <time>2020-11-29T13:34:20Z</time>
      </trkpt>
      <trkpt lat="46.66618" lon="5.79125">
        <ele>486.3</ele>
        <time>2020-11-29T13:34:25Z</time>
      </trkpt>
      <trkpt lat="46.66618" lon="5.79132">
        <ele>486.6</ele>
        <time>2020-11-29T13:34:29Z</time>
      </trkpt>
      <trkpt lat="46.66618" lon="5.79139">
        <ele>486.8</ele>
        <time>2020-11-29T13:34:33Z</time>
      </trkpt>
      <trkpt lat="46.66618" lon="5.79145">
        <ele>487</ele>
        <time>2020-11-29T13:34:37Z</time>
      </trkpt>
      <trkpt lat="46.66618" lon="5.79153">
        <ele>487.3</ele>
        <time>2020-11-29T13:34:42Z</time>
      </trkpt>
      <trkpt lat="46.66617" lon="5.7916">
        <ele>487.7</ele>
        <time>2020-11-29T13:34:47Z</time>
      </trkpt>
      <trkpt lat="46.66617" lon="5.79166">
        <ele>488</ele>
        <time>2020-11-29T13:34:52Z</time>
      </trkpt>
      <trkpt lat="46.66616" lon="5.79174">
        <ele>488.9</ele>
        <time>2020-11-29T13:34:59Z</time>
      </trkpt>
      <trkpt lat="46.66615" lon="5.79182">
        <ele>489.7</ele>
        <time>2020-11-29T13:35:04Z</time>
      </trkpt>
      <trkpt lat="46.66615" lon="5.79189">
        <ele>490.2</ele>
        <time>2020-11-29T13:35:09Z</time>
      </trkpt>
      <trkpt lat="46.66614" lon="5.79196">
        <ele>490.5</ele>
        <time>2020-11-29T13:35:14Z</time>
      </trkpt>
      <trkpt lat="46.66614" lon="5.79204">
        <ele>490.6</ele>
        <time>2020-11-29T13:35:19Z</time>
      </trkpt>
      <trkpt lat="46.66614" lon="5.79211">
        <ele>490.8</ele>
        <time>2020-11-29T13:35:23Z</time>
      </trkpt>
      <trkpt lat="46.66615" lon="5.79219">
        <ele>491.3</ele>
        <time>2020-11-29T13:35:28Z</time>
      </trkpt>
      <trkpt lat="46.66615" lon="5.79225">
        <ele>491.7</ele>
        <time>2020-11-29T13:35:33Z</time>
      </trkpt>
      <trkpt lat="46.66616" lon="5.79233">
        <ele>492.1</ele>
        <time>2020-11-29T13:35:38Z</time>
      </trkpt>
      <trkpt lat="46.66616" lon="5.79241">
        <ele>492.5</ele>
        <time>2020-11-29T13:35:43Z</time>
      </trkpt>
      <trkpt lat="46.66616" lon="5.79248">
        <ele>492.8</ele>
        <time>2020-11-29T13:35:48Z</time>
      </trkpt>
      <trkpt lat="46.66616" lon="5.79255">
        <ele>493.1</ele>
        <time>2020-11-29T13:35:52Z</time>
      </trkpt>
      <trkpt lat="46.66615" lon="5.79263">
        <ele>493.3</ele>
        <time>2020-11-29T13:35:56Z</time>
      </trkpt>
      <trkpt lat="46.66614" lon="5.7927">
        <ele>493.4</ele>
        <time>2020-11-29T13:36:00Z</time>
      </trkpt>
      <trkpt lat="46.66613" lon="5.79277">
        <ele>493.6</ele>
        <time>2020-11-29T13:36:05Z</time>
      </trkpt>
      <trkpt lat="46.66613" lon="5.79284">
        <ele>494</ele>
        <time>2020-11-29T13:36:10Z</time>
      </trkpt>
      <trkpt lat="46.6661" lon="5.79291">
        <ele>495.4</ele>
        <time>2020-11-29T13:36:15Z</time>
      </trkpt>
      <trkpt lat="46.66609" lon="5.79298">
        <ele>497</ele>
        <time>2020-11-29T13:36:21Z</time>
      </trkpt>
      <trkpt lat="46.6661" lon="5.79304">
        <ele>497.9</ele>
        <time>2020-11-29T13:36:26Z</time>
      </trkpt>
      <trkpt lat="46.66611" lon="5.79311">
        <ele>498.1</ele>
        <time>2020-11-29T13:36:31Z</time>
      </trkpt>
      <trkpt lat="46.66612" lon="5.79319">
        <ele>498.1</ele>
        <time>2020-11-29T13:36:36Z</time>
      </trkpt>
      <trkpt lat="46.66613" lon="5.79326">
        <ele>498</ele>
        <time>2020-11-29T13:36:41Z</time>
      </trkpt>
      <trkpt lat="46.66613" lon="5.79333">
        <ele>497.9</ele>
        <time>2020-11-29T13:36:46Z</time>
      </trkpt>
      <trkpt lat="46.66613" lon="5.79339">
        <ele>497.4</ele>
        <time>2020-11-29T13:36:51Z</time>
      </trkpt>
      <trkpt lat="46.66614" lon="5.79346">
        <ele>496.7</ele>
        <time>2020-11-29T13:36:56Z</time>
      </trkpt>
      <trkpt lat="46.66612" lon="5.79355">
        <ele>495.3</ele>
        <time>2020-11-29T13:37:00Z</time>
      </trkpt>
      <trkpt lat="46.6661" lon="5.79362">
        <ele>493.7</ele>
        <time>2020-11-29T13:37:04Z</time>
      </trkpt>
      <trkpt lat="46.66611" lon="5.7937">
        <ele>491.9</ele>
        <time>2020-11-29T13:37:11Z</time>
      </trkpt>
      <trkpt lat="46.66612" lon="5.79377">
        <ele>491.8</ele>
        <time>2020-11-29T13:37:14Z</time>
      </trkpt>
      <trkpt lat="46.66612" lon="5.79383">
        <ele>491.5</ele>
        <time>2020-11-29T13:37:19Z</time>
      </trkpt>
      <trkpt lat="46.66614" lon="5.7939">
        <ele>490.9</ele>
        <time>2020-11-29T13:37:25Z</time>
      </trkpt>
      <trkpt lat="46.66615" lon="5.79398">
        <ele>490.2</ele>
        <time>2020-11-29T13:37:30Z</time>
      </trkpt>
      <trkpt lat="46.66615" lon="5.79405">
        <ele>489.5</ele>
        <time>2020-11-29T13:37:34Z</time>
      </trkpt>
      <trkpt lat="46.66615" lon="5.79412">
        <ele>488.8</ele>
        <time>2020-11-29T13:37:38Z</time>
      </trkpt>
      <trkpt lat="46.66614" lon="5.7942">
        <ele>487.9</ele>
        <time>2020-11-29T13:37:43Z</time>
      </trkpt>
      <trkpt lat="46.66614" lon="5.79428">
        <ele>486.9</ele>
        <time>2020-11-29T13:37:48Z</time>
      </trkpt>
      <trkpt lat="46.66614" lon="5.79435">
        <ele>485.7</ele>
        <time>2020-11-29T13:37:54Z</time>
      </trkpt>
      <trkpt lat="46.66613" lon="5.79442">
        <ele>484.8</ele>
        <time>2020-11-29T13:37:59Z</time>
      </trkpt>
      <trkpt lat="46.66613" lon="5.7945">
        <ele>484.2</ele>
        <time>2020-11-29T13:38:03Z</time>
      </trkpt>
      <trkpt lat="46.66614" lon="5.79457">
        <ele>483.6</ele>
        <time>2020-11-29T13:38:08Z</time>
      </trkpt>
      <trkpt lat="46.66613" lon="5.79464">
        <ele>483</ele>
        <time>2020-11-29T13:38:13Z</time>
      </trkpt>
      <trkpt lat="46.66615" lon="5.7947">
        <ele>482.5</ele>
        <time>2020-11-29T13:38:18Z</time>
      </trkpt>
      <trkpt lat="46.66616" lon="5.79479">
        <ele>483</ele>
        <time>2020-11-29T13:38:22Z</time>
      </trkpt>
      <trkpt lat="46.66616" lon="5.79487">
        <ele>483.5</ele>
        <time>2020-11-29T13:38:26Z</time>
      </trkpt>
      <trkpt lat="46.66615" lon="5.79495">
        <ele>483.6</ele>
        <time>2020-11-29T13:38:30Z</time>
      </trkpt>
      <trkpt lat="46.66615" lon="5.79502">
        <ele>483.5</ele>
        <time>2020-11-29T13:38:34Z</time>
      </trkpt>
      <trkpt lat="46.66615" lon="5.7951">
        <ele>483</ele>
        <time>2020-11-29T13:38:39Z</time>
      </trkpt>
      <trkpt lat="46.66614" lon="5.79517">
        <ele>482.5</ele>
        <time>2020-11-29T13:38:45Z</time>
      </trkpt>
      <trkpt lat="46.66614" lon="5.79525">
        <ele>482</ele>
        <time>2020-11-29T13:38:50Z</time>
      </trkpt>
      <trkpt lat="46.66615" lon="5.79531">
        <ele>481.6</ele>
        <time>2020-11-29T13:38:54Z</time>
      </trkpt>
      <trkpt lat="46.66616" lon="5.79538">
        <ele>481.1</ele>
        <time>2020-11-29T13:38:59Z</time>
      </trkpt>
      <trkpt lat="46.66616" lon="5.79545">
        <ele>480.5</ele>
        <time>2020-11-29T13:39:04Z</time>
      </trkpt>
      <trkpt lat="46.66616" lon="5.79553">
        <ele>479.9</ele>
        <time>2020-11-29T13:39:09Z</time>
      </trkpt>
      <trkpt lat="46.66615" lon="5.7956">
        <ele>479.2</ele>
        <time>2020-11-29T13:39:14Z</time>
      </trkpt>
      <trkpt lat="46.66616" lon="5.79566">
        <ele>478.5</ele>
        <time>2020-11-29T13:39:19Z</time>
      </trkpt>
      <trkpt lat="46.66617" lon="5.79573">
        <ele>478.1</ele>
        <time>2020-11-29T13:39:23Z</time>
      </trkpt>
      <trkpt lat="46.66617" lon="5.7958">
        <ele>477.6</ele>
        <time>2020-11-29T13:39:27Z</time>
      </trkpt>
      <trkpt lat="46.66617" lon="5.79587">
        <ele>477.1</ele>
        <time>2020-11-29T13:39:31Z</time>
      </trkpt>
      <trkpt lat="46.66616" lon="5.79594">
        <ele>476.8</ele>
        <time>2020-11-29T13:39:35Z</time>
      </trkpt>
      <trkpt lat="46.66616" lon="5.79601">
        <ele>476.4</ele>
        <time>2020-11-29T13:39:40Z</time>
      </trkpt>
      <trkpt lat="46.66617" lon="5.79609">
        <ele>476</ele>
        <time>2020-11-29T13:39:45Z</time>
      </trkpt>
      <trkpt lat="46.66618" lon="5.79615">
        <ele>475.8</ele>
        <time>2020-11-29T13:39:49Z</time>
      </trkpt>
      <trkpt lat="46.66619" lon="5.79622">
        <ele>475.5</ele>
        <time>2020-11-29T13:39:54Z</time>
      </trkpt>
      <trkpt lat="46.66619" lon="5.79628">
        <ele>475.2</ele>
        <time>2020-11-29T13:39:59Z</time>
      </trkpt>
      <trkpt lat="46.66619" lon="5.79636">
        <ele>475.3</ele>
        <time>2020-11-29T13:40:04Z</time>
      </trkpt>
      <trkpt lat="46.66618" lon="5.79643">
        <ele>475.3</ele>
        <time>2020-11-29T13:40:08Z</time>
      </trkpt>
      <trkpt lat="46.66619" lon="5.79651">
        <ele>475.5</ele>
        <time>2020-11-29T13:40:13Z</time>
      </trkpt>
      <trkpt lat="46.66619" lon="5.79658">
        <ele>475.7</ele>
        <time>2020-11-29T13:40:18Z</time>
      </trkpt>
      <trkpt lat="46.66619" lon="5.79665">
        <ele>475.8</ele>
        <time>2020-11-29T13:40:22Z</time>
      </trkpt>
      <trkpt lat="46.66619" lon="5.79672">
        <ele>476</ele>
        <time>2020-11-29T13:40:26Z</time>
      </trkpt>
      <trkpt lat="46.6662" lon="5.79679">
        <ele>476.6</ele>
        <time>2020-11-29T13:40:31Z</time>
      </trkpt>
      <trkpt lat="46.66621" lon="5.79685">
        <ele>477.5</ele>
        <time>2020-11-29T13:40:36Z</time>
      </trkpt>
      <trkpt lat="46.66623" lon="5.79692">
        <ele>477.9</ele>
        <time>2020-11-29T13:40:41Z</time>
      </trkpt>
      <trkpt lat="46.66622" lon="5.79699">
        <ele>478.1</ele>
        <time>2020-11-29T13:40:45Z</time>
      </trkpt>
      <trkpt lat="46.66622" lon="5.79707">
        <ele>477.9</ele>
        <time>2020-11-29T13:40:49Z</time>
      </trkpt>
      <trkpt lat="46.66623" lon="5.79713">
        <ele>477.9</ele>
        <time>2020-11-29T13:40:53Z</time>
      </trkpt>
      <trkpt lat="46.66623" lon="5.7972">
        <ele>477.6</ele>
        <time>2020-11-29T13:41:01Z</time>
      </trkpt>
      <trkpt lat="46.66622" lon="5.79727">
        <ele>476.8</ele>
        <time>2020-11-29T13:41:08Z</time>
      </trkpt>
      <trkpt lat="46.66622" lon="5.79735">
        <ele>475.1</ele>
        <time>2020-11-29T13:41:15Z</time>
      </trkpt>
      <trkpt lat="46.66625" lon="5.79743">
        <ele>475.2</ele>
        <time>2020-11-29T13:41:19Z</time>
      </trkpt>
      <trkpt lat="46.66627" lon="5.7975">
        <ele>476</ele>
        <time>2020-11-29T13:41:22Z</time>
      </trkpt>
      <trkpt lat="46.66627" lon="5.79756">
        <ele>477.3</ele>
        <time>2020-11-29T13:41:25Z</time>
      </trkpt>
      <trkpt lat="46.66628" lon="5.79765">
        <ele>479.1</ele>
        <time>2020-11-29T13:41:28Z</time>
      </trkpt>
      <trkpt lat="46.6663" lon="5.79773">
        <ele>482.6</ele>
        <time>2020-11-29T13:41:33Z</time>
      </trkpt>
      <trkpt lat="46.66632" lon="5.79779">
        <ele>486</ele>
        <time>2020-11-29T13:41:38Z</time>
      </trkpt>
      <trkpt lat="46.66634" lon="5.79787">
        <ele>489.3</ele>
        <time>2020-11-29T13:41:45Z</time>
      </trkpt>
      <trkpt lat="46.66634" lon="5.79794">
        <ele>490.9</ele>
        <time>2020-11-29T13:41:49Z</time>
      </trkpt>
      <trkpt lat="46.66634" lon="5.79801">
        <ele>492.2</ele>
        <time>2020-11-29T13:41:53Z</time>
      </trkpt>
      <trkpt lat="46.66634" lon="5.79808">
        <ele>493.1</ele>
        <time>2020-11-29T13:41:57Z</time>
      </trkpt>
      <trkpt lat="46.66633" lon="5.79814">
        <ele>493.6</ele>
        <time>2020-11-29T13:42:01Z</time>
      </trkpt>
      <trkpt lat="46.66633" lon="5.79821">
        <ele>493.7</ele>
        <time>2020-11-29T13:42:05Z</time>
      </trkpt>
      <trkpt lat="46.66634" lon="5.79827">
        <ele>493.9</ele>
        <time>2020-11-29T13:42:10Z</time>
      </trkpt>
      <trkpt lat="46.66632" lon="5.79834">
        <ele>493.8</ele>
        <time>2020-11-29T13:42:16Z</time>
      </trkpt>
      <trkpt lat="46.6663" lon="5.79841">
        <ele>493.5</ele>
        <time>2020-11-29T13:42:23Z</time>
      </trkpt>
      <trkpt lat="46.66628" lon="5.7985">
        <ele>492.9</ele>
        <time>2020-11-29T13:42:25Z</time>
      </trkpt>
      <trkpt lat="46.66627" lon="5.79858">
        <ele>492.6</ele>
        <time>2020-11-29T13:42:29Z</time>
      </trkpt>
      <trkpt lat="46.66627" lon="5.79864">
        <ele>492.7</ele>
        <time>2020-11-29T13:42:34Z</time>
      </trkpt>
      <trkpt lat="46.66625" lon="5.79871">
        <ele>493.3</ele>
        <time>2020-11-29T13:42:41Z</time>
      </trkpt>
      <trkpt lat="46.66626" lon="5.79878">
        <ele>494</ele>
        <time>2020-11-29T13:42:47Z</time>
      </trkpt>
      <trkpt lat="46.66623" lon="5.79886">
        <ele>492.8</ele>
        <time>2020-11-29T13:42:50Z</time>
      </trkpt>
      <trkpt lat="46.66621" lon="5.79894">
        <ele>492</ele>
        <time>2020-11-29T13:42:53Z</time>
      </trkpt>
      <trkpt lat="46.66621" lon="5.79901">
        <ele>491</ele>
        <time>2020-11-29T13:42:58Z</time>
      </trkpt>
      <trkpt lat="46.66622" lon="5.79908">
        <ele>490.6</ele>
        <time>2020-11-29T13:43:03Z</time>
      </trkpt>
      <trkpt lat="46.66622" lon="5.79914">
        <ele>490.3</ele>
        <time>2020-11-29T13:43:08Z</time>
      </trkpt>
      <trkpt lat="46.66622" lon="5.79921">
        <ele>490.2</ele>
        <time>2020-11-29T13:43:13Z</time>
      </trkpt>
      <trkpt lat="46.66623" lon="5.79928">
        <ele>490</ele>
        <time>2020-11-29T13:43:18Z</time>
      </trkpt>
      <trkpt lat="46.66623" lon="5.79935">
        <ele>490</ele>
        <time>2020-11-29T13:43:23Z</time>
      </trkpt>
      <trkpt lat="46.66621" lon="5.79945">
        <ele>489.2</ele>
        <time>2020-11-29T13:43:28Z</time>
      </trkpt>
      <trkpt lat="46.6662" lon="5.79952">
        <ele>488.4</ele>
        <time>2020-11-29T13:43:31Z</time>
      </trkpt>
      <trkpt lat="46.66621" lon="5.7996">
        <ele>487.6</ele>
        <time>2020-11-29T13:43:35Z</time>
      </trkpt>
      <trkpt lat="46.66622" lon="5.79967">
        <ele>486.8</ele>
        <time>2020-11-29T13:43:40Z</time>
      </trkpt>
      <trkpt lat="46.66622" lon="5.79974">
        <ele>486.4</ele>
        <time>2020-11-29T13:43:45Z</time>
      </trkpt>
      <trkpt lat="46.66622" lon="5.79981">
        <ele>486.1</ele>
        <time>2020-11-29T13:43:52Z</time>
      </trkpt>
      <trkpt lat="46.66623" lon="5.79988">
        <ele>485.6</ele>
        <time>2020-11-29T13:44:00Z</time>
      </trkpt>
      <trkpt lat="46.66625" lon="5.79995">
        <ele>485.5</ele>
        <time>2020-11-29T13:44:06Z</time>
      </trkpt>
      <trkpt lat="46.66626" lon="5.80001">
        <ele>485.4</ele>
        <time>2020-11-29T13:44:10Z</time>
      </trkpt>
      <trkpt lat="46.66627" lon="5.80008">
        <ele>485.3</ele>
        <time>2020-11-29T13:44:15Z</time>
      </trkpt>
      <trkpt lat="46.66627" lon="5.80016">
        <ele>485.2</ele>
        <time>2020-11-29T13:44:21Z</time>
      </trkpt>
      <trkpt lat="46.66626" lon="5.80023">
        <ele>484.8</ele>
        <time>2020-11-29T13:44:27Z</time>
      </trkpt>
      <trkpt lat="46.66625" lon="5.8003">
        <ele>484.6</ele>
        <time>2020-11-29T13:44:32Z</time>
      </trkpt>
      <trkpt lat="46.66624" lon="5.80037">
        <ele>484.4</ele>
        <time>2020-11-29T13:44:37Z</time>
      </trkpt>
      <trkpt lat="46.66621" lon="5.80049">
        <ele>483.5</ele>
        <time>2020-11-29T13:44:41Z</time>
      </trkpt>
      <trkpt lat="46.66619" lon="5.80055">
        <ele>483.1</ele>
        <time>2020-11-29T13:44:43Z</time>
      </trkpt>
      <trkpt lat="46.66619" lon="5.80062">
        <ele>482.3</ele>
        <time>2020-11-29T13:44:47Z</time>
      </trkpt>
      <trkpt lat="46.66618" lon="5.80069">
        <ele>481.6</ele>
        <time>2020-11-29T13:44:53Z</time>
      </trkpt>
      <trkpt lat="46.66618" lon="5.80076">
        <ele>481.3</ele>
        <time>2020-11-29T13:44:59Z</time>
      </trkpt>
      <trkpt lat="46.66619" lon="5.80085">
        <ele>482.6</ele>
        <time>2020-11-29T13:45:03Z</time>
      </trkpt>
      <trkpt lat="46.66619" lon="5.80091">
        <ele>483.8</ele>
        <time>2020-11-29T13:45:07Z</time>
      </trkpt>
      <trkpt lat="46.66619" lon="5.80098">
        <ele>485.2</ele>
        <time>2020-11-29T13:45:16Z</time>
      </trkpt>
      <trkpt lat="46.66618" lon="5.80106">
        <ele>485.4</ele>
        <time>2020-11-29T13:45:22Z</time>
      </trkpt>
      <trkpt lat="46.66617" lon="5.80116">
        <ele>485.6</ele>
        <time>2020-11-29T13:45:25Z</time>
      </trkpt>
      <trkpt lat="46.66617" lon="5.80124">
        <ele>485.8</ele>
        <time>2020-11-29T13:45:28Z</time>
      </trkpt>
      <trkpt lat="46.66616" lon="5.80131">
        <ele>485.8</ele>
        <time>2020-11-29T13:45:33Z</time>
      </trkpt>
      <trkpt lat="46.66615" lon="5.80138">
        <ele>485.6</ele>
        <time>2020-11-29T13:45:39Z</time>
      </trkpt>
      <trkpt lat="46.66614" lon="5.80144">
        <ele>485.4</ele>
        <time>2020-11-29T13:45:44Z</time>
      </trkpt>
      <trkpt lat="46.66614" lon="5.80151">
        <ele>485.2</ele>
        <time>2020-11-29T13:45:49Z</time>
      </trkpt>
      <trkpt lat="46.66612" lon="5.80159">
        <ele>484.8</ele>
        <time>2020-11-29T13:45:53Z</time>
      </trkpt>
      <trkpt lat="46.66611" lon="5.80167">
        <ele>484.2</ele>
        <time>2020-11-29T13:45:59Z</time>
      </trkpt>
      <trkpt lat="46.6661" lon="5.80174">
        <ele>483.8</ele>
        <time>2020-11-29T13:46:04Z</time>
      </trkpt>
      <trkpt lat="46.66609" lon="5.80182">
        <ele>483.5</ele>
        <time>2020-11-29T13:46:08Z</time>
      </trkpt>
      <trkpt lat="46.66608" lon="5.80188">
        <ele>483.1</ele>
        <time>2020-11-29T13:46:14Z</time>
      </trkpt>
      <trkpt lat="46.66605" lon="5.80195">
        <ele>482.3</ele>
        <time>2020-11-29T13:46:22Z</time>
      </trkpt>
      <trkpt lat="46.66602" lon="5.80202">
        <ele>482</ele>
        <time>2020-11-29T13:46:26Z</time>
      </trkpt>
      <trkpt lat="46.66601" lon="5.8021">
        <ele>481.7</ele>
        <time>2020-11-29T13:46:29Z</time>
      </trkpt>
      <trkpt lat="46.666" lon="5.80219">
        <ele>481.3</ele>
        <time>2020-11-29T13:46:33Z</time>
      </trkpt>
      <trkpt lat="46.66601" lon="5.80227">
        <ele>481.1</ele>
        <time>2020-11-29T13:46:38Z</time>
      </trkpt>
      <trkpt lat="46.66601" lon="5.80233">
        <ele>480.9</ele>
        <time>2020-11-29T13:46:46Z</time>
      </trkpt>
      <trkpt lat="46.666" lon="5.80242">
        <ele>480.3</ele>
        <time>2020-11-29T13:46:58Z</time>
      </trkpt>
      <trkpt lat="46.66597" lon="5.8025">
        <ele>480.3</ele>
        <time>2020-11-29T13:47:03Z</time>
      </trkpt>
      <trkpt lat="46.66595" lon="5.80257">
        <ele>480.2</ele>
        <time>2020-11-29T13:47:07Z</time>
      </trkpt>
      <trkpt lat="46.66594" lon="5.80264">
        <ele>480.2</ele>
        <time>2020-11-29T13:47:11Z</time>
      </trkpt>
      <trkpt lat="46.66593" lon="5.80271">
        <ele>480.4</ele>
        <time>2020-11-29T13:47:17Z</time>
      </trkpt>
      <trkpt lat="46.6659" lon="5.80276">
        <ele>480.5</ele>
        <time>2020-11-29T13:47:22Z</time>
      </trkpt>
      <trkpt lat="46.66588" lon="5.80283">
        <ele>480.6</ele>
        <time>2020-11-29T13:47:28Z</time>
      </trkpt>
      <trkpt lat="46.66587" lon="5.8029">
        <ele>480.6</ele>
        <time>2020-11-29T13:47:32Z</time>
      </trkpt>
      <trkpt lat="46.66586" lon="5.80298">
        <ele>480.9</ele>
        <time>2020-11-29T13:47:36Z</time>
      </trkpt>
      <trkpt lat="46.66584" lon="5.80305">
        <ele>481.3</ele>
        <time>2020-11-29T13:47:39Z</time>
      </trkpt>
      <trkpt lat="46.66583" lon="5.80313">
        <ele>481.8</ele>
        <time>2020-11-29T13:47:42Z</time>
      </trkpt>
      <trkpt lat="46.66583" lon="5.80319">
        <ele>482.2</ele>
        <time>2020-11-29T13:47:45Z</time>
      </trkpt>
      <trkpt lat="46.66582" lon="5.80327">
        <ele>482.5</ele>
        <time>2020-11-29T13:47:48Z</time>
      </trkpt>
      <trkpt lat="46.66581" lon="5.80333">
        <ele>482.7</ele>
        <time>2020-11-29T13:47:51Z</time>
      </trkpt>
      <trkpt lat="46.6658" lon="5.8034">
        <ele>482.8</ele>
        <time>2020-11-29T13:47:55Z</time>
      </trkpt>
      <trkpt lat="46.66581" lon="5.80348">
        <ele>482.9</ele>
        <time>2020-11-29T13:48:00Z</time>
      </trkpt>
      <trkpt lat="46.66581" lon="5.80355">
        <ele>482.9</ele>
        <time>2020-11-29T13:48:05Z</time>
      </trkpt>
      <trkpt lat="46.66579" lon="5.80363">
        <ele>483.9</ele>
        <time>2020-11-29T13:48:08Z</time>
      </trkpt>
      <trkpt lat="46.66578" lon="5.8037">
        <ele>484.7</ele>
        <time>2020-11-29T13:48:12Z</time>
      </trkpt>
      <trkpt lat="46.66577" lon="5.80379">
        <ele>485.4</ele>
        <time>2020-11-29T13:48:17Z</time>
      </trkpt>
      <trkpt lat="46.66576" lon="5.80386">
        <ele>485.5</ele>
        <time>2020-11-29T13:48:24Z</time>
      </trkpt>
      <trkpt lat="46.6658" lon="5.80391">
        <ele>487.9</ele>
        <time>2020-11-29T13:48:28Z</time>
      </trkpt>
      <trkpt lat="46.66581" lon="5.80398">
        <ele>491.6</ele>
        <time>2020-11-29T13:48:40Z</time>
      </trkpt>
      <trkpt lat="46.6658" lon="5.80405">
        <ele>491.9</ele>
        <time>2020-11-29T13:48:45Z</time>
      </trkpt>
      <trkpt lat="46.6658" lon="5.80411">
        <ele>492.1</ele>
        <time>2020-11-29T13:48:50Z</time>
      </trkpt>
      <trkpt lat="46.66581" lon="5.80419">
        <ele>492</ele>
        <time>2020-11-29T13:48:56Z</time>
      </trkpt>
      <trkpt lat="46.6658" lon="5.80426">
        <ele>491.7</ele>
        <time>2020-11-29T13:48:59Z</time>
      </trkpt>
      <trkpt lat="46.66579" lon="5.80433">
        <ele>491.4</ele>
        <time>2020-11-29T13:49:05Z</time>
      </trkpt>
      <trkpt lat="46.66579" lon="5.8044">
        <ele>491.1</ele>
        <time>2020-11-29T13:49:10Z</time>
      </trkpt>
      <trkpt lat="46.66581" lon="5.80447">
        <ele>490.8</ele>
        <time>2020-11-29T13:49:14Z</time>
      </trkpt>
      <trkpt lat="46.66582" lon="5.80454">
        <ele>490.4</ele>
        <time>2020-11-29T13:49:18Z</time>
      </trkpt>
      <trkpt lat="46.66583" lon="5.80461">
        <ele>489.7</ele>
        <time>2020-11-29T13:49:23Z</time>
      </trkpt>
      <trkpt lat="46.66583" lon="5.80469">
        <ele>488.8</ele>
        <time>2020-11-29T13:49:28Z</time>
      </trkpt>
      <trkpt lat="46.66583" lon="5.80477">
        <ele>487.7</ele>
        <time>2020-11-29T13:49:33Z</time>
      </trkpt>
      <trkpt lat="46.66583" lon="5.80484">
        <ele>486.8</ele>
        <time>2020-11-29T13:49:37Z</time>
      </trkpt>
      <trkpt lat="46.66583" lon="5.80491">
        <ele>485.5</ele>
        <time>2020-11-29T13:49:42Z</time>
      </trkpt>
      <trkpt lat="46.66583" lon="5.80498">
        <ele>484.4</ele>
        <time>2020-11-29T13:49:47Z</time>
      </trkpt>
      <trkpt lat="46.66584" lon="5.80505">
        <ele>483.5</ele>
        <time>2020-11-29T13:49:52Z</time>
      </trkpt>
      <trkpt lat="46.66585" lon="5.80511">
        <ele>482.4</ele>
        <time>2020-11-29T13:49:57Z</time>
      </trkpt>
      <trkpt lat="46.66584" lon="5.80523">
        <ele>481</ele>
        <time>2020-11-29T13:50:02Z</time>
      </trkpt>
      <trkpt lat="46.66582" lon="5.80531">
        <ele>480.3</ele>
        <time>2020-11-29T13:50:05Z</time>
      </trkpt>
      <trkpt lat="46.66581" lon="5.80539">
        <ele>479.5</ele>
        <time>2020-11-29T13:50:09Z</time>
      </trkpt>
      <trkpt lat="46.66579" lon="5.80546">
        <ele>478.6</ele>
        <time>2020-11-29T13:50:13Z</time>
      </trkpt>
      <trkpt lat="46.66578" lon="5.80553">
        <ele>477.3</ele>
        <time>2020-11-29T13:50:18Z</time>
      </trkpt>
      <trkpt lat="46.66578" lon="5.8056">
        <ele>476.1</ele>
        <time>2020-11-29T13:50:25Z</time>
      </trkpt>
      <trkpt lat="46.66578" lon="5.80567">
        <ele>476</ele>
        <time>2020-11-29T13:50:29Z</time>
      </trkpt>
      <trkpt lat="46.66578" lon="5.80574">
        <ele>476.4</ele>
        <time>2020-11-29T13:50:34Z</time>
      </trkpt>
      <trkpt lat="46.66579" lon="5.80582">
        <ele>477.1</ele>
        <time>2020-11-29T13:50:40Z</time>
      </trkpt>
      <trkpt lat="46.66579" lon="5.80589">
        <ele>477.8</ele>
        <time>2020-11-29T13:50:44Z</time>
      </trkpt>
      <trkpt lat="46.66578" lon="5.80597">
        <ele>478</ele>
        <time>2020-11-29T13:50:50Z</time>
      </trkpt>
      <trkpt lat="46.66576" lon="5.80604">
        <ele>477.9</ele>
        <time>2020-11-29T13:50:55Z</time>
      </trkpt>
      <trkpt lat="46.66574" lon="5.80611">
        <ele>478.1</ele>
        <time>2020-11-29T13:51:00Z</time>
      </trkpt>
      <trkpt lat="46.66572" lon="5.80617">
        <ele>478.4</ele>
        <time>2020-11-29T13:51:05Z</time>
      </trkpt>
      <trkpt lat="46.66571" lon="5.80623">
        <ele>478.7</ele>
        <time>2020-11-29T13:51:10Z</time>
      </trkpt>
      <trkpt lat="46.66569" lon="5.80631">
        <ele>479.2</ele>
        <time>2020-11-29T13:51:15Z</time>
      </trkpt>
      <trkpt lat="46.66566" lon="5.80636">
        <ele>479.3</ele>
        <time>2020-11-29T13:51:23Z</time>
      </trkpt>
      <trkpt lat="46.66563" lon="5.80642">
        <ele>478.1</ele>
        <time>2020-11-29T13:51:31Z</time>
      </trkpt>
      <trkpt lat="46.66561" lon="5.80649">
        <ele>477.1</ele>
        <time>2020-11-29T13:51:37Z</time>
      </trkpt>
      <trkpt lat="46.66558" lon="5.80654">
        <ele>475.8</ele>
        <time>2020-11-29T13:51:43Z</time>
      </trkpt>
      <trkpt lat="46.66556" lon="5.8066">
        <ele>474.8</ele>
        <time>2020-11-29T13:51:48Z</time>
      </trkpt>
      <trkpt lat="46.66553" lon="5.80666">
        <ele>474.4</ele>
        <time>2020-11-29T13:51:53Z</time>
      </trkpt>
      <trkpt lat="46.66552" lon="5.80672">
        <ele>473.7</ele>
        <time>2020-11-29T13:51:58Z</time>
      </trkpt>
      <trkpt lat="46.66549" lon="5.80679">
        <ele>472.9</ele>
        <time>2020-11-29T13:52:04Z</time>
      </trkpt>
      <trkpt lat="46.66547" lon="5.80685">
        <ele>472</ele>
        <time>2020-11-29T13:52:09Z</time>
      </trkpt>
      <trkpt lat="46.66543" lon="5.80702">
        <ele>473.1</ele>
        <time>2020-11-29T13:52:14Z</time>
      </trkpt>
      <trkpt lat="46.66542" lon="5.80713">
        <ele>473.7</ele>
        <time>2020-11-29T13:52:16Z</time>
      </trkpt>
      <trkpt lat="46.66541" lon="5.80721">
        <ele>474.7</ele>
        <time>2020-11-29T13:52:19Z</time>
      </trkpt>
      <trkpt lat="46.6654" lon="5.80728">
        <ele>475.5</ele>
        <time>2020-11-29T13:52:23Z</time>
      </trkpt>
      <trkpt lat="46.66538" lon="5.80734">
        <ele>475.6</ele>
        <time>2020-11-29T13:52:30Z</time>
      </trkpt>
      <trkpt lat="46.66535" lon="5.8074">
        <ele>475.3</ele>
        <time>2020-11-29T13:52:42Z</time>
      </trkpt>
      <trkpt lat="46.66532" lon="5.80745">
        <ele>475</ele>
        <time>2020-11-29T13:52:48Z</time>
      </trkpt>
      <trkpt lat="46.66529" lon="5.80751">
        <ele>474.8</ele>
        <time>2020-11-29T13:52:52Z</time>
      </trkpt>
      <trkpt lat="46.66527" lon="5.80758">
        <ele>474.3</ele>
        <time>2020-11-29T13:52:57Z</time>
      </trkpt>
      <trkpt lat="46.66523" lon="5.80762">
        <ele>473.9</ele>
        <time>2020-11-29T13:53:03Z</time>
      </trkpt>
      <trkpt lat="46.6652" lon="5.80768">
        <ele>473.4</ele>
        <time>2020-11-29T13:53:10Z</time>
      </trkpt>
      <trkpt lat="46.66516" lon="5.80772">
        <ele>473.1</ele>
        <time>2020-11-29T13:53:14Z</time>
      </trkpt>
      <trkpt lat="46.66513" lon="5.80778">
        <ele>472.8</ele>
        <time>2020-11-29T13:53:19Z</time>
      </trkpt>
      <trkpt lat="46.6651" lon="5.80784">
        <ele>472.6</ele>
        <time>2020-11-29T13:53:24Z</time>
      </trkpt>
      <trkpt lat="46.66509" lon="5.80792">
        <ele>472.2</ele>
        <time>2020-11-29T13:53:29Z</time>
      </trkpt>
      <trkpt lat="46.66507" lon="5.80799">
        <ele>471.7</ele>
        <time>2020-11-29T13:53:34Z</time>
      </trkpt>
      <trkpt lat="46.66505" lon="5.80805">
        <ele>471.2</ele>
        <time>2020-11-29T13:53:39Z</time>
      </trkpt>
      <trkpt lat="46.66504" lon="5.80811">
        <ele>471.2</ele>
        <time>2020-11-29T13:53:42Z</time>
      </trkpt>
      <trkpt lat="46.66502" lon="5.8082">
        <ele>471.5</ele>
        <time>2020-11-29T13:53:45Z</time>
      </trkpt>
      <trkpt lat="46.66501" lon="5.80827">
        <ele>472.1</ele>
        <time>2020-11-29T13:53:49Z</time>
      </trkpt>
      <trkpt lat="46.66499" lon="5.80836">
        <ele>473.5</ele>
        <time>2020-11-29T13:54:02Z</time>
      </trkpt>
      <trkpt lat="46.66498" lon="5.80843">
        <ele>474</ele>
        <time>2020-11-29T13:54:06Z</time>
      </trkpt>
      <trkpt lat="46.66498" lon="5.8085">
        <ele>474.6</ele>
        <time>2020-11-29T13:54:11Z</time>
      </trkpt>
      <trkpt lat="46.66496" lon="5.80857">
        <ele>474.9</ele>
        <time>2020-11-29T13:54:18Z</time>
      </trkpt>
      <trkpt lat="46.66494" lon="5.80864">
        <ele>474.5</ele>
        <time>2020-11-29T13:54:28Z</time>
      </trkpt>
      <trkpt lat="46.6649" lon="5.8087">
        <ele>474.1</ele>
        <time>2020-11-29T13:54:32Z</time>
      </trkpt>
      <trkpt lat="46.66486" lon="5.80875">
        <ele>473.9</ele>
        <time>2020-11-29T13:54:36Z</time>
      </trkpt>
      <trkpt lat="46.66484" lon="5.80885">
        <ele>475</ele>
        <time>2020-11-29T13:54:39Z</time>
      </trkpt>
      <trkpt lat="46.66482" lon="5.80892">
        <ele>475.7</ele>
        <time>2020-11-29T13:54:42Z</time>
      </trkpt>
      <trkpt lat="46.6648" lon="5.80899">
        <ele>476.6</ele>
        <time>2020-11-29T13:54:45Z</time>
      </trkpt>
      <trkpt lat="46.66476" lon="5.80903">
        <ele>477.6</ele>
        <time>2020-11-29T13:54:55Z</time>
      </trkpt>
      <trkpt lat="46.66471" lon="5.80907">
        <ele>477.8</ele>
        <time>2020-11-29T13:55:03Z</time>
      </trkpt>
      <trkpt lat="46.66467" lon="5.80909">
        <ele>477.8</ele>
        <time>2020-11-29T13:55:08Z</time>
      </trkpt>
      <trkpt lat="46.66463" lon="5.80914">
        <ele>477.6</ele>
        <time>2020-11-29T13:55:14Z</time>
      </trkpt>
      <trkpt lat="46.66462" lon="5.80921">
        <ele>477.5</ele>
        <time>2020-11-29T13:55:19Z</time>
      </trkpt>
      <trkpt lat="46.66461" lon="5.80927">
        <ele>477.6</ele>
        <time>2020-11-29T13:55:27Z</time>
      </trkpt>
      <trkpt lat="46.66459" lon="5.80934">
        <ele>477.7</ele>
        <time>2020-11-29T13:55:34Z</time>
      </trkpt>
      <trkpt lat="46.66457" lon="5.8094">
        <ele>477.8</ele>
        <time>2020-11-29T13:55:39Z</time>
      </trkpt>
      <trkpt lat="46.66455" lon="5.80946">
        <ele>477.8</ele>
        <time>2020-11-29T13:55:44Z</time>
      </trkpt>
      <trkpt lat="46.66452" lon="5.80957">
        <ele>479</ele>
        <time>2020-11-29T13:55:47Z</time>
      </trkpt>
      <trkpt lat="46.66451" lon="5.80964">
        <ele>479.6</ele>
        <time>2020-11-29T13:55:49Z</time>
      </trkpt>
      <trkpt lat="46.66449" lon="5.8097">
        <ele>480.6</ele>
        <time>2020-11-29T13:55:53Z</time>
      </trkpt>
      <trkpt lat="46.66446" lon="5.80977">
        <ele>481.3</ele>
        <time>2020-11-29T13:55:59Z</time>
      </trkpt>
      <trkpt lat="46.66442" lon="5.80982">
        <ele>481.5</ele>
        <time>2020-11-29T13:56:04Z</time>
      </trkpt>
      <trkpt lat="46.66438" lon="5.80988">
        <ele>481.6</ele>
        <time>2020-11-29T13:56:09Z</time>
      </trkpt>
      <trkpt lat="46.66436" lon="5.80994">
        <ele>481.5</ele>
        <time>2020-11-29T13:56:13Z</time>
      </trkpt>
      <trkpt lat="46.66433" lon="5.80998">
        <ele>481.2</ele>
        <time>2020-11-29T13:56:23Z</time>
      </trkpt>
      <trkpt lat="46.66428" lon="5.81002">
        <ele>480.7</ele>
        <time>2020-11-29T13:56:30Z</time>
      </trkpt>
      <trkpt lat="46.66424" lon="5.81007">
        <ele>480.2</ele>
        <time>2020-11-29T13:56:36Z</time>
      </trkpt>
      <trkpt lat="46.66422" lon="5.81013">
        <ele>479.5</ele>
        <time>2020-11-29T13:56:41Z</time>
      </trkpt>
      <trkpt lat="46.66419" lon="5.81018">
        <ele>478.8</ele>
        <time>2020-11-29T13:56:47Z</time>
      </trkpt>
      <trkpt lat="46.66416" lon="5.81024">
        <ele>478.3</ele>
        <time>2020-11-29T13:56:53Z</time>
      </trkpt>
      <trkpt lat="46.66414" lon="5.8103">
        <ele>478</ele>
        <time>2020-11-29T13:56:57Z</time>
      </trkpt>
      <trkpt lat="46.66412" lon="5.81035">
        <ele>477.7</ele>
        <time>2020-11-29T13:57:01Z</time>
      </trkpt>
      <trkpt lat="46.66409" lon="5.81041">
        <ele>477.5</ele>
        <time>2020-11-29T13:57:05Z</time>
      </trkpt>
      <trkpt lat="46.66406" lon="5.81046">
        <ele>477.5</ele>
        <time>2020-11-29T13:57:08Z</time>
      </trkpt>
      <trkpt lat="46.66404" lon="5.81054">
        <ele>478.2</ele>
        <time>2020-11-29T13:57:12Z</time>
      </trkpt>
      <trkpt lat="46.66401" lon="5.81059">
        <ele>479.1</ele>
        <time>2020-11-29T13:57:18Z</time>
      </trkpt>
      <trkpt lat="46.66398" lon="5.81064">
        <ele>479.8</ele>
        <time>2020-11-29T13:57:24Z</time>
      </trkpt>
      <trkpt lat="46.66396" lon="5.81072">
        <ele>480.5</ele>
        <time>2020-11-29T13:57:29Z</time>
      </trkpt>
      <trkpt lat="46.66396" lon="5.81079">
        <ele>481</ele>
        <time>2020-11-29T13:57:33Z</time>
      </trkpt>
      <trkpt lat="46.66395" lon="5.81087">
        <ele>481.6</ele>
        <time>2020-11-29T13:57:37Z</time>
      </trkpt>
      <trkpt lat="46.66394" lon="5.81094">
        <ele>481.9</ele>
        <time>2020-11-29T13:57:41Z</time>
      </trkpt>
      <trkpt lat="46.66392" lon="5.811">
        <ele>482.3</ele>
        <time>2020-11-29T13:57:47Z</time>
      </trkpt>
      <trkpt lat="46.6639" lon="5.81106">
        <ele>482.5</ele>
        <time>2020-11-29T13:57:51Z</time>
      </trkpt>
      <trkpt lat="46.6639" lon="5.81113">
        <ele>482.6</ele>
        <time>2020-11-29T13:57:55Z</time>
      </trkpt>
      <trkpt lat="46.66391" lon="5.81121">
        <ele>482.5</ele>
        <time>2020-11-29T13:58:01Z</time>
      </trkpt>
      <trkpt lat="46.66393" lon="5.81128">
        <ele>482</ele>
        <time>2020-11-29T13:58:06Z</time>
      </trkpt>
      <trkpt lat="46.66395" lon="5.81134">
        <ele>481.6</ele>
        <time>2020-11-29T13:58:10Z</time>
      </trkpt>
      <trkpt lat="46.66398" lon="5.8114">
        <ele>481</ele>
        <time>2020-11-29T13:58:14Z</time>
      </trkpt>
      <trkpt lat="46.66399" lon="5.81147">
        <ele>480.3</ele>
        <time>2020-11-29T13:58:19Z</time>
      </trkpt>
      <trkpt lat="46.664" lon="5.81154">
        <ele>480</ele>
        <time>2020-11-29T13:58:24Z</time>
      </trkpt>
      <trkpt lat="46.66403" lon="5.8116">
        <ele>480.3</ele>
        <time>2020-11-29T13:58:29Z</time>
      </trkpt>
      <trkpt lat="46.664" lon="5.81166">
        <ele>481.7</ele>
        <time>2020-11-29T14:01:26Z</time>
      </trkpt>
      <trkpt lat="46.66404" lon="5.8117">
        <ele>480.9</ele>
        <time>2020-11-29T14:03:25Z</time>
      </trkpt>
      <trkpt lat="46.66408" lon="5.81175">
        <ele>480.3</ele>
        <time>2020-11-29T14:03:30Z</time>
      </trkpt>
      <trkpt lat="46.6641" lon="5.81181">
        <ele>479.9</ele>
        <time>2020-11-29T14:03:35Z</time>
      </trkpt>
      <trkpt lat="46.66412" lon="5.81188">
        <ele>479.4</ele>
        <time>2020-11-29T14:03:39Z</time>
      </trkpt>
      <trkpt lat="46.66414" lon="5.81194">
        <ele>479</ele>
        <time>2020-11-29T14:03:43Z</time>
      </trkpt>
      <trkpt lat="46.66417" lon="5.81201">
        <ele>478.5</ele>
        <time>2020-11-29T14:03:47Z</time>
      </trkpt>
      <trkpt lat="46.66421" lon="5.81207">
        <ele>478.3</ele>
        <time>2020-11-29T14:03:51Z</time>
      </trkpt>
      <trkpt lat="46.66423" lon="5.81213">
        <ele>478</ele>
        <time>2020-11-29T14:03:55Z</time>
      </trkpt>
      <trkpt lat="46.66425" lon="5.81219">
        <ele>477.4</ele>
        <time>2020-11-29T14:04:00Z</time>
      </trkpt>
      <trkpt lat="46.66428" lon="5.81226">
        <ele>476.9</ele>
        <time>2020-11-29T14:04:06Z</time>
      </trkpt>
      <trkpt lat="46.6643" lon="5.81232">
        <ele>476.5</ele>
        <time>2020-11-29T14:04:10Z</time>
      </trkpt>
      <trkpt lat="46.66433" lon="5.81238">
        <ele>476.1</ele>
        <time>2020-11-29T14:04:14Z</time>
      </trkpt>
      <trkpt lat="46.66436" lon="5.81245">
        <ele>475.8</ele>
        <time>2020-11-29T14:04:18Z</time>
      </trkpt>
      <trkpt lat="46.66438" lon="5.81251">
        <ele>475.5</ele>
        <time>2020-11-29T14:04:22Z</time>
      </trkpt>
      <trkpt lat="46.6644" lon="5.81258">
        <ele>475.4</ele>
        <time>2020-11-29T14:04:26Z</time>
      </trkpt>
      <trkpt lat="46.66442" lon="5.81263">
        <ele>475.5</ele>
        <time>2020-11-29T14:04:30Z</time>
      </trkpt>
      <trkpt lat="46.66445" lon="5.81269">
        <ele>475.6</ele>
        <time>2020-11-29T14:04:34Z</time>
      </trkpt>
      <trkpt lat="46.66448" lon="5.81275">
        <ele>476</ele>
        <time>2020-11-29T14:04:39Z</time>
      </trkpt>
      <trkpt lat="46.66451" lon="5.81281">
        <ele>476.7</ele>
        <time>2020-11-29T14:04:43Z</time>
      </trkpt>
      <trkpt lat="46.66453" lon="5.81287">
        <ele>477.4</ele>
        <time>2020-11-29T14:04:47Z</time>
      </trkpt>
      <trkpt lat="46.66454" lon="5.81294">
        <ele>478.2</ele>
        <time>2020-11-29T14:04:51Z</time>
      </trkpt>
      <trkpt lat="46.66454" lon="5.81301">
        <ele>479.2</ele>
        <time>2020-11-29T14:04:55Z</time>
      </trkpt>
      <trkpt lat="46.66455" lon="5.81309">
        <ele>480.5</ele>
        <time>2020-11-29T14:05:00Z</time>
      </trkpt>
      <trkpt lat="46.66455" lon="5.81316">
        <ele>481.8</ele>
        <time>2020-11-29T14:05:05Z</time>
      </trkpt>
      <trkpt lat="46.66455" lon="5.81323">
        <ele>482.9</ele>
        <time>2020-11-29T14:05:10Z</time>
      </trkpt>
      <trkpt lat="46.66457" lon="5.8133">
        <ele>483.6</ele>
        <time>2020-11-29T14:05:15Z</time>
      </trkpt>
      <trkpt lat="46.66459" lon="5.81338">
        <ele>484.1</ele>
        <time>2020-11-29T14:05:19Z</time>
      </trkpt>
      <trkpt lat="46.66461" lon="5.81345">
        <ele>484.5</ele>
        <time>2020-11-29T14:05:23Z</time>
      </trkpt>
      <trkpt lat="46.66463" lon="5.81351">
        <ele>484.7</ele>
        <time>2020-11-29T14:05:27Z</time>
      </trkpt>
      <trkpt lat="46.66466" lon="5.81357">
        <ele>485</ele>
        <time>2020-11-29T14:05:31Z</time>
      </trkpt>
      <trkpt lat="46.66469" lon="5.81362">
        <ele>485.3</ele>
        <time>2020-11-29T14:05:35Z</time>
      </trkpt>
      <trkpt lat="46.66471" lon="5.8137">
        <ele>485.4</ele>
        <time>2020-11-29T14:05:39Z</time>
      </trkpt>
      <trkpt lat="46.66474" lon="5.81376">
        <ele>485.6</ele>
        <time>2020-11-29T14:05:43Z</time>
      </trkpt>
      <trkpt lat="46.66477" lon="5.81381">
        <ele>485.9</ele>
        <time>2020-11-29T14:05:48Z</time>
      </trkpt>
      <trkpt lat="46.6648" lon="5.81386">
        <ele>486</ele>
        <time>2020-11-29T14:05:53Z</time>
      </trkpt>
      <trkpt lat="46.66484" lon="5.81392">
        <ele>485.8</ele>
        <time>2020-11-29T14:05:58Z</time>
      </trkpt>
      <trkpt lat="46.66487" lon="5.81397">
        <ele>485.8</ele>
        <time>2020-11-29T14:06:03Z</time>
      </trkpt>
      <trkpt lat="46.66491" lon="5.81401">
        <ele>486.3</ele>
        <time>2020-11-29T14:06:09Z</time>
      </trkpt>
      <trkpt lat="46.66495" lon="5.81404">
        <ele>486.3</ele>
        <time>2020-11-29T14:06:14Z</time>
      </trkpt>
      <trkpt lat="46.665" lon="5.81409">
        <ele>486.1</ele>
        <time>2020-11-29T14:06:19Z</time>
      </trkpt>
      <trkpt lat="46.66503" lon="5.81414">
        <ele>485.9</ele>
        <time>2020-11-29T14:06:23Z</time>
      </trkpt>
      <trkpt lat="46.66505" lon="5.8142">
        <ele>485.5</ele>
        <time>2020-11-29T14:06:27Z</time>
      </trkpt>
      <trkpt lat="46.66507" lon="5.81427">
        <ele>484.9</ele>
        <time>2020-11-29T14:06:32Z</time>
      </trkpt>
      <trkpt lat="46.66509" lon="5.81433">
        <ele>484.5</ele>
        <time>2020-11-29T14:06:37Z</time>
      </trkpt>
      <trkpt lat="46.66511" lon="5.8144">
        <ele>484.2</ele>
        <time>2020-11-29T14:06:41Z</time>
      </trkpt>
      <trkpt lat="46.66514" lon="5.81445">
        <ele>483.9</ele>
        <time>2020-11-29T14:06:45Z</time>
      </trkpt>
      <trkpt lat="46.66517" lon="5.8145">
        <ele>483.8</ele>
        <time>2020-11-29T14:06:50Z</time>
      </trkpt>
      <trkpt lat="46.66521" lon="5.81455">
        <ele>484</ele>
        <time>2020-11-29T14:06:54Z</time>
      </trkpt>
      <trkpt lat="46.66525" lon="5.81459">
        <ele>484.4</ele>
        <time>2020-11-29T14:06:58Z</time>
      </trkpt>
      <trkpt lat="46.66529" lon="5.81462">
        <ele>484.7</ele>
        <time>2020-11-29T14:07:03Z</time>
      </trkpt>
      <trkpt lat="46.66534" lon="5.81465">
        <ele>485</ele>
        <time>2020-11-29T14:07:07Z</time>
      </trkpt>
      <trkpt lat="46.66539" lon="5.81468">
        <ele>485.8</ele>
        <time>2020-11-29T14:07:11Z</time>
      </trkpt>
      <trkpt lat="46.66545" lon="5.81469">
        <ele>487.3</ele>
        <time>2020-11-29T14:07:16Z</time>
      </trkpt>
      <trkpt lat="46.6655" lon="5.81471">
        <ele>489.2</ele>
        <time>2020-11-29T14:07:21Z</time>
      </trkpt>
      <trkpt lat="46.66555" lon="5.81472">
        <ele>490.5</ele>
        <time>2020-11-29T14:07:24Z</time>
      </trkpt>
      <trkpt lat="46.66561" lon="5.81473">
        <ele>492</ele>
        <time>2020-11-29T14:07:28Z</time>
      </trkpt>
      <trkpt lat="46.66566" lon="5.81475">
        <ele>493.2</ele>
        <time>2020-11-29T14:07:32Z</time>
      </trkpt>
      <trkpt lat="46.6657" lon="5.81478">
        <ele>494.1</ele>
        <time>2020-11-29T14:07:38Z</time>
      </trkpt>
      <trkpt lat="46.66575" lon="5.81479">
        <ele>494.4</ele>
        <time>2020-11-29T14:07:43Z</time>
      </trkpt>
      <trkpt lat="46.6658" lon="5.8148">
        <ele>494.5</ele>
        <time>2020-11-29T14:07:47Z</time>
      </trkpt>
      <trkpt lat="46.66585" lon="5.81481">
        <ele>494.6</ele>
        <time>2020-11-29T14:07:51Z</time>
      </trkpt>
      <trkpt lat="46.6659" lon="5.81482">
        <ele>494.5</ele>
        <time>2020-11-29T14:07:55Z</time>
      </trkpt>
      <trkpt lat="46.66594" lon="5.81483">
        <ele>494.4</ele>
        <time>2020-11-29T14:07:59Z</time>
      </trkpt>
      <trkpt lat="46.666" lon="5.81483">
        <ele>494.6</ele>
        <time>2020-11-29T14:08:03Z</time>
      </trkpt>
      <trkpt lat="46.66605" lon="5.81484">
        <ele>495.1</ele>
        <time>2020-11-29T14:08:07Z</time>
      </trkpt>
      <trkpt lat="46.6661" lon="5.81485">
        <ele>495.6</ele>
        <time>2020-11-29T14:08:13Z</time>
      </trkpt>
      <trkpt lat="46.66615" lon="5.81486">
        <ele>495.9</ele>
        <time>2020-11-29T14:08:18Z</time>
      </trkpt>
      <trkpt lat="46.66619" lon="5.81487">
        <ele>496.3</ele>
        <time>2020-11-29T14:08:22Z</time>
      </trkpt>
      <trkpt lat="46.66624" lon="5.81489">
        <ele>496.6</ele>
        <time>2020-11-29T14:08:26Z</time>
      </trkpt>
      <trkpt lat="46.66629" lon="5.8149">
        <ele>496.8</ele>
        <time>2020-11-29T14:08:30Z</time>
      </trkpt>
      <trkpt lat="46.66634" lon="5.81493">
        <ele>496.6</ele>
        <time>2020-11-29T14:08:35Z</time>
      </trkpt>
      <trkpt lat="46.66638" lon="5.81494">
        <ele>496.7</ele>
        <time>2020-11-29T14:08:40Z</time>
      </trkpt>
      <trkpt lat="46.66643" lon="5.81494">
        <ele>496.8</ele>
        <time>2020-11-29T14:08:44Z</time>
      </trkpt>
      <trkpt lat="46.66648" lon="5.81494">
        <ele>497</ele>
        <time>2020-11-29T14:08:48Z</time>
      </trkpt>
      <trkpt lat="46.66654" lon="5.81496">
        <ele>497.3</ele>
        <time>2020-11-29T14:08:52Z</time>
      </trkpt>
      <trkpt lat="46.66659" lon="5.81498">
        <ele>497.4</ele>
        <time>2020-11-29T14:08:56Z</time>
      </trkpt>
      <trkpt lat="46.66664" lon="5.81499">
        <ele>497.6</ele>
        <time>2020-11-29T14:09:00Z</time>
      </trkpt>
      <trkpt lat="46.6667" lon="5.815">
        <ele>497.8</ele>
        <time>2020-11-29T14:09:04Z</time>
      </trkpt>
      <trkpt lat="46.66675" lon="5.81499">
        <ele>498</ele>
        <time>2020-11-29T14:09:09Z</time>
      </trkpt>
      <trkpt lat="46.66679" lon="5.81499">
        <ele>498.1</ele>
        <time>2020-11-29T14:09:13Z</time>
      </trkpt>
      <trkpt lat="46.66685" lon="5.815">
        <ele>498.3</ele>
        <time>2020-11-29T14:09:17Z</time>
      </trkpt>
      <trkpt lat="46.66691" lon="5.81501">
        <ele>498.5</ele>
        <time>2020-11-29T14:09:20Z</time>
      </trkpt>
      <trkpt lat="46.66695" lon="5.81501">
        <ele>498.8</ele>
        <time>2020-11-29T14:09:23Z</time>
      </trkpt>
      <trkpt lat="46.667" lon="5.81503">
        <ele>499.3</ele>
        <time>2020-11-29T14:09:27Z</time>
      </trkpt>
      <trkpt lat="46.66705" lon="5.81504">
        <ele>500</ele>
        <time>2020-11-29T14:09:32Z</time>
      </trkpt>
      <trkpt lat="46.6671" lon="5.81506">
        <ele>501.5</ele>
        <time>2020-11-29T14:09:38Z</time>
      </trkpt>
      <trkpt lat="46.66715" lon="5.81506">
        <ele>502.5</ele>
        <time>2020-11-29T14:09:43Z</time>
      </trkpt>
      <trkpt lat="46.6672" lon="5.81506">
        <ele>503.2</ele>
        <time>2020-11-29T14:09:47Z</time>
      </trkpt>
      <trkpt lat="46.66725" lon="5.81507">
        <ele>503.9</ele>
        <time>2020-11-29T14:09:51Z</time>
      </trkpt>
      <trkpt lat="46.6673" lon="5.81509">
        <ele>504.3</ele>
        <time>2020-11-29T14:09:55Z</time>
      </trkpt>
      <trkpt lat="46.66735" lon="5.81509">
        <ele>504.8</ele>
        <time>2020-11-29T14:10:01Z</time>
      </trkpt>
      <trkpt lat="46.6674" lon="5.81506">
        <ele>505.2</ele>
        <time>2020-11-29T14:10:06Z</time>
      </trkpt>
      <trkpt lat="46.66742" lon="5.81499">
        <ele>505.7</ele>
        <time>2020-11-29T14:10:11Z</time>
      </trkpt>
      <trkpt lat="46.66745" lon="5.81494">
        <ele>506.2</ele>
        <time>2020-11-29T14:10:15Z</time>
      </trkpt>
      <trkpt lat="46.6675" lon="5.8149">
        <ele>506.7</ele>
        <time>2020-11-29T14:10:19Z</time>
      </trkpt>
      <trkpt lat="46.66753" lon="5.81484">
        <ele>507</ele>
        <time>2020-11-29T14:10:23Z</time>
      </trkpt>
      <trkpt lat="46.66756" lon="5.81479">
        <ele>507.3</ele>
        <time>2020-11-29T14:10:27Z</time>
      </trkpt>
      <trkpt lat="46.66759" lon="5.81472">
        <ele>507.6</ele>
        <time>2020-11-29T14:10:31Z</time>
      </trkpt>
      <trkpt lat="46.66761" lon="5.81466">
        <ele>508.3</ele>
        <time>2020-11-29T14:10:37Z</time>
      </trkpt>
      <trkpt lat="46.66765" lon="5.81461">
        <ele>509</ele>
        <time>2020-11-29T14:10:43Z</time>
      </trkpt>
      <trkpt lat="46.66767" lon="5.81454">
        <ele>509.3</ele>
        <time>2020-11-29T14:10:51Z</time>
      </trkpt>
      <trkpt lat="46.66771" lon="5.81449">
        <ele>508.4</ele>
        <time>2020-11-29T14:10:57Z</time>
      </trkpt>
      <trkpt lat="46.66774" lon="5.81444">
        <ele>507</ele>
        <time>2020-11-29T14:11:04Z</time>
      </trkpt>
      <trkpt lat="46.66776" lon="5.81437">
        <ele>506.2</ele>
        <time>2020-11-29T14:11:10Z</time>
      </trkpt>
      <trkpt lat="46.66779" lon="5.81432">
        <ele>505.8</ele>
        <time>2020-11-29T14:11:14Z</time>
      </trkpt>
      <trkpt lat="46.66782" lon="5.81426">
        <ele>505.7</ele>
        <time>2020-11-29T14:11:18Z</time>
      </trkpt>
      <trkpt lat="46.66784" lon="5.81418">
        <ele>505.9</ele>
        <time>2020-11-29T14:11:23Z</time>
      </trkpt>
      <trkpt lat="46.66786" lon="5.81413">
        <ele>506.2</ele>
        <time>2020-11-29T14:11:27Z</time>
      </trkpt>
      <trkpt lat="46.6679" lon="5.81409">
        <ele>506.5</ele>
        <time>2020-11-29T14:11:31Z</time>
      </trkpt>
      <trkpt lat="46.66794" lon="5.81404">
        <ele>506.7</ele>
        <time>2020-11-29T14:11:35Z</time>
      </trkpt>
      <trkpt lat="46.66798" lon="5.814">
        <ele>506.9</ele>
        <time>2020-11-29T14:11:39Z</time>
      </trkpt>
      <trkpt lat="46.66802" lon="5.81395">
        <ele>504.9</ele>
        <time>2020-11-29T14:11:45Z</time>
      </trkpt>
      <trkpt lat="46.66805" lon="5.8139">
        <ele>503.3</ele>
        <time>2020-11-29T14:11:49Z</time>
      </trkpt>
      <trkpt lat="46.66809" lon="5.81385">
        <ele>501.8</ele>
        <time>2020-11-29T14:11:53Z</time>
      </trkpt>
      <trkpt lat="46.66814" lon="5.81381">
        <ele>500.3</ele>
        <time>2020-11-29T14:11:57Z</time>
      </trkpt>
      <trkpt lat="46.66818" lon="5.81377">
        <ele>499.1</ele>
        <time>2020-11-29T14:12:01Z</time>
      </trkpt>
      <trkpt lat="46.66822" lon="5.81371">
        <ele>498.6</ele>
        <time>2020-11-29T14:12:05Z</time>
      </trkpt>
      <trkpt lat="46.66826" lon="5.81367">
        <ele>498.7</ele>
        <time>2020-11-29T14:12:09Z</time>
      </trkpt>
      <trkpt lat="46.66829" lon="5.81362">
        <ele>498.8</ele>
        <time>2020-11-29T14:12:13Z</time>
      </trkpt>
      <trkpt lat="46.66834" lon="5.81357">
        <ele>498.8</ele>
        <time>2020-11-29T14:12:17Z</time>
      </trkpt>
      <trkpt lat="46.66838" lon="5.81353">
        <ele>498.8</ele>
        <time>2020-11-29T14:12:21Z</time>
      </trkpt>
      <trkpt lat="46.66842" lon="5.81348">
        <ele>498.9</ele>
        <time>2020-11-29T14:12:26Z</time>
      </trkpt>
      <trkpt lat="46.66845" lon="5.81343">
        <ele>498.9</ele>
        <time>2020-11-29T14:12:31Z</time>
      </trkpt>
      <trkpt lat="46.66849" lon="5.81337">
        <ele>498.9</ele>
        <time>2020-11-29T14:12:36Z</time>
      </trkpt>
      <trkpt lat="46.66851" lon="5.8133">
        <ele>498.8</ele>
        <time>2020-11-29T14:12:41Z</time>
      </trkpt>
      <trkpt lat="46.66854" lon="5.81324">
        <ele>499.2</ele>
        <time>2020-11-29T14:12:46Z</time>
      </trkpt>
      <trkpt lat="46.66858" lon="5.81319">
        <ele>499.8</ele>
        <time>2020-11-29T14:12:51Z</time>
      </trkpt>
      <trkpt lat="46.66862" lon="5.81313">
        <ele>500.4</ele>
        <time>2020-11-29T14:12:56Z</time>
      </trkpt>
      <trkpt lat="46.66864" lon="5.81308">
        <ele>501.1</ele>
        <time>2020-11-29T14:13:01Z</time>
      </trkpt>
      <trkpt lat="46.66867" lon="5.81303">
        <ele>501.8</ele>
        <time>2020-11-29T14:13:05Z</time>
      </trkpt>
      <trkpt lat="46.6687" lon="5.81297">
        <ele>502.4</ele>
        <time>2020-11-29T14:13:09Z</time>
      </trkpt>
      <trkpt lat="46.66875" lon="5.81292">
        <ele>503.3</ele>
        <time>2020-11-29T14:13:13Z</time>
      </trkpt>
      <trkpt lat="46.66879" lon="5.81287">
        <ele>504.2</ele>
        <time>2020-11-29T14:13:18Z</time>
      </trkpt>
      <trkpt lat="46.66882" lon="5.81283">
        <ele>505.2</ele>
        <time>2020-11-29T14:13:25Z</time>
      </trkpt>
      <trkpt lat="46.66885" lon="5.81277">
        <ele>506.2</ele>
        <time>2020-11-29T14:13:31Z</time>
      </trkpt>
      <trkpt lat="46.66888" lon="5.81272">
        <ele>507.2</ele>
        <time>2020-11-29T14:13:36Z</time>
      </trkpt>
      <trkpt lat="46.66891" lon="5.81266">
        <ele>508.3</ele>
        <time>2020-11-29T14:13:42Z</time>
      </trkpt>
      <trkpt lat="46.66896" lon="5.81261">
        <ele>509</ele>
        <time>2020-11-29T14:13:48Z</time>
      </trkpt>
      <trkpt lat="46.669" lon="5.81258">
        <ele>509.3</ele>
        <time>2020-11-29T14:13:51Z</time>
      </trkpt>
      <trkpt lat="46.66905" lon="5.81255">
        <ele>509.5</ele>
        <time>2020-11-29T14:13:54Z</time>
      </trkpt>
      <trkpt lat="46.66909" lon="5.81251">
        <ele>509.6</ele>
        <time>2020-11-29T14:13:57Z</time>
      </trkpt>
      <trkpt lat="46.66914" lon="5.81247">
        <ele>509.4</ele>
        <time>2020-11-29T14:14:02Z</time>
      </trkpt>
      <trkpt lat="46.66919" lon="5.81243">
        <ele>508.9</ele>
        <time>2020-11-29T14:14:10Z</time>
      </trkpt>
      <trkpt lat="46.66922" lon="5.81238">
        <ele>508.7</ele>
        <time>2020-11-29T14:14:16Z</time>
      </trkpt>
      <trkpt lat="46.66926" lon="5.81233">
        <ele>508.5</ele>
        <time>2020-11-29T14:14:20Z</time>
      </trkpt>
      <trkpt lat="46.66929" lon="5.81228">
        <ele>508.3</ele>
        <time>2020-11-29T14:14:24Z</time>
      </trkpt>
      <trkpt lat="46.66932" lon="5.81223">
        <ele>508.3</ele>
        <time>2020-11-29T14:14:29Z</time>
      </trkpt>
      <trkpt lat="46.66936" lon="5.81218">
        <ele>508.7</ele>
        <time>2020-11-29T14:14:33Z</time>
      </trkpt>
      <trkpt lat="46.66939" lon="5.81214">
        <ele>508.9</ele>
        <time>2020-11-29T14:14:37Z</time>
      </trkpt>
      <trkpt lat="46.66944" lon="5.81212">
        <ele>509.1</ele>
        <time>2020-11-29T14:14:42Z</time>
      </trkpt>
      <trkpt lat="46.66949" lon="5.8121">
        <ele>509.1</ele>
        <time>2020-11-29T14:14:48Z</time>
      </trkpt>
      <trkpt lat="46.66952" lon="5.81204">
        <ele>509.1</ele>
        <time>2020-11-29T14:14:53Z</time>
      </trkpt>
      <trkpt lat="46.66955" lon="5.81198">
        <ele>509.3</ele>
        <time>2020-11-29T14:14:58Z</time>
      </trkpt>
      <trkpt lat="46.66957" lon="5.81191">
        <ele>509.5</ele>
        <time>2020-11-29T14:15:02Z</time>
      </trkpt>
      <trkpt lat="46.6696" lon="5.81186">
        <ele>509.7</ele>
        <time>2020-11-29T14:15:07Z</time>
      </trkpt>
      <trkpt lat="46.66965" lon="5.81182">
        <ele>510.2</ele>
        <time>2020-11-29T14:15:12Z</time>
      </trkpt>
      <trkpt lat="46.66969" lon="5.81179">
        <ele>510.4</ele>
        <time>2020-11-29T14:15:17Z</time>
      </trkpt>
      <trkpt lat="46.66974" lon="5.81175">
        <ele>510.3</ele>
        <time>2020-11-29T14:15:22Z</time>
      </trkpt>
      <trkpt lat="46.66978" lon="5.81169">
        <ele>510.2</ele>
        <time>2020-11-29T14:15:28Z</time>
      </trkpt>
      <trkpt lat="46.66981" lon="5.81164">
        <ele>510</ele>
        <time>2020-11-29T14:15:32Z</time>
      </trkpt>
      <trkpt lat="46.66986" lon="5.81161">
        <ele>509.7</ele>
        <time>2020-11-29T14:15:37Z</time>
      </trkpt>
      <trkpt lat="46.6699" lon="5.81156">
        <ele>509.4</ele>
        <time>2020-11-29T14:15:42Z</time>
      </trkpt>
      <trkpt lat="46.66993" lon="5.8115">
        <ele>509.4</ele>
        <time>2020-11-29T14:15:46Z</time>
      </trkpt>
      <trkpt lat="46.66996" lon="5.81145">
        <ele>509.6</ele>
        <time>2020-11-29T14:15:49Z</time>
      </trkpt>
      <trkpt lat="46.66997" lon="5.81138">
        <ele>509.6</ele>
        <time>2020-11-29T14:15:52Z</time>
      </trkpt>
      <trkpt lat="46.67001" lon="5.81132">
        <ele>509.6</ele>
        <time>2020-11-29T14:15:56Z</time>
      </trkpt>
      <trkpt lat="46.67004" lon="5.81128">
        <ele>509.6</ele>
        <time>2020-11-29T14:16:00Z</time>
      </trkpt>
      <trkpt lat="46.67008" lon="5.81123">
        <ele>509.4</ele>
        <time>2020-11-29T14:16:05Z</time>
      </trkpt>
      <trkpt lat="46.67012" lon="5.8112">
        <ele>509.4</ele>
        <time>2020-11-29T14:16:09Z</time>
      </trkpt>
      <trkpt lat="46.67015" lon="5.81115">
        <ele>509.5</ele>
        <time>2020-11-29T14:16:13Z</time>
      </trkpt>
      <trkpt lat="46.67018" lon="5.81109">
        <ele>509.8</ele>
        <time>2020-11-29T14:16:18Z</time>
      </trkpt>
      <trkpt lat="46.67023" lon="5.81106">
        <ele>510.3</ele>
        <time>2020-11-29T14:16:24Z</time>
      </trkpt>
      <trkpt lat="46.67027" lon="5.81102">
        <ele>511.1</ele>
        <time>2020-11-29T14:16:30Z</time>
      </trkpt>
      <trkpt lat="46.67032" lon="5.81098">
        <ele>511.7</ele>
        <time>2020-11-29T14:16:36Z</time>
      </trkpt>
      <trkpt lat="46.67036" lon="5.81094">
        <ele>512.3</ele>
        <time>2020-11-29T14:16:41Z</time>
      </trkpt>
      <trkpt lat="46.6704" lon="5.81089">
        <ele>512.7</ele>
        <time>2020-11-29T14:16:45Z</time>
      </trkpt>
      <trkpt lat="46.67043" lon="5.81083">
        <ele>513.3</ele>
        <time>2020-11-29T14:16:49Z</time>
      </trkpt>
      <trkpt lat="46.67048" lon="5.81077">
        <ele>514.3</ele>
        <time>2020-11-29T14:16:53Z</time>
      </trkpt>
      <trkpt lat="46.67052" lon="5.81072">
        <ele>515.3</ele>
        <time>2020-11-29T14:16:57Z</time>
      </trkpt>
      <trkpt lat="46.67056" lon="5.81067">
        <ele>516</ele>
        <time>2020-11-29T14:17:01Z</time>
      </trkpt>
      <trkpt lat="46.67059" lon="5.81062">
        <ele>516.7</ele>
        <time>2020-11-29T14:17:07Z</time>
      </trkpt>
      <trkpt lat="46.67062" lon="5.81057">
        <ele>517.1</ele>
        <time>2020-11-29T14:17:13Z</time>
      </trkpt>
      <trkpt lat="46.67064" lon="5.81049">
        <ele>517.8</ele>
        <time>2020-11-29T14:17:18Z</time>
      </trkpt>
      <trkpt lat="46.67066" lon="5.81043">
        <ele>518.4</ele>
        <time>2020-11-29T14:17:23Z</time>
      </trkpt>
      <trkpt lat="46.6707" lon="5.81039">
        <ele>518.8</ele>
        <time>2020-11-29T14:17:28Z</time>
      </trkpt>
      <trkpt lat="46.67076" lon="5.81036">
        <ele>518.7</ele>
        <time>2020-11-29T14:17:32Z</time>
      </trkpt>
      <trkpt lat="46.6708" lon="5.81034">
        <ele>519.1</ele>
        <time>2020-11-29T14:17:37Z</time>
      </trkpt>
      <trkpt lat="46.67085" lon="5.8103">
        <ele>519.4</ele>
        <time>2020-11-29T14:17:41Z</time>
      </trkpt>
      <trkpt lat="46.6709" lon="5.81026">
        <ele>520</ele>
        <time>2020-11-29T14:17:46Z</time>
      </trkpt>
      <trkpt lat="46.67093" lon="5.81021">
        <ele>520.6</ele>
        <time>2020-11-29T14:17:50Z</time>
      </trkpt>
      <trkpt lat="46.67096" lon="5.81014">
        <ele>521.2</ele>
        <time>2020-11-29T14:17:54Z</time>
      </trkpt>
      <trkpt lat="46.671" lon="5.8101">
        <ele>521.9</ele>
        <time>2020-11-29T14:17:59Z</time>
      </trkpt>
      <trkpt lat="46.67105" lon="5.81005">
        <ele>522.7</ele>
        <time>2020-11-29T14:18:05Z</time>
      </trkpt>
      <trkpt lat="46.67109" lon="5.81001">
        <ele>523.3</ele>
        <time>2020-11-29T14:18:10Z</time>
      </trkpt>
      <trkpt lat="46.67113" lon="5.80998">
        <ele>523.7</ele>
        <time>2020-11-29T14:18:14Z</time>
      </trkpt>
      <trkpt lat="46.67117" lon="5.80994">
        <ele>524.2</ele>
        <time>2020-11-29T14:18:18Z</time>
      </trkpt>
      <trkpt lat="46.67122" lon="5.8099">
        <ele>524.7</ele>
        <time>2020-11-29T14:18:22Z</time>
      </trkpt>
      <trkpt lat="46.67125" lon="5.80986">
        <ele>525.4</ele>
        <time>2020-11-29T14:18:27Z</time>
      </trkpt>
      <trkpt lat="46.67128" lon="5.80981">
        <ele>525.9</ele>
        <time>2020-11-29T14:18:32Z</time>
      </trkpt>
      <trkpt lat="46.6713" lon="5.80974">
        <ele>526</ele>
        <time>2020-11-29T14:18:36Z</time>
      </trkpt>
      <trkpt lat="46.67133" lon="5.80969">
        <ele>526.1</ele>
        <time>2020-11-29T14:18:40Z</time>
      </trkpt>
      <trkpt lat="46.67137" lon="5.80963">
        <ele>525.9</ele>
        <time>2020-11-29T14:18:45Z</time>
      </trkpt>
      <trkpt lat="46.6714" lon="5.8096">
        <ele>525.7</ele>
        <time>2020-11-29T14:18:49Z</time>
      </trkpt>
      <trkpt lat="46.67144" lon="5.80955">
        <ele>525.2</ele>
        <time>2020-11-29T14:18:53Z</time>
      </trkpt>
      <trkpt lat="46.67147" lon="5.8095">
        <ele>524.7</ele>
        <time>2020-11-29T14:18:56Z</time>
      </trkpt>
      <trkpt lat="46.6715" lon="5.80944">
        <ele>524.1</ele>
        <time>2020-11-29T14:19:00Z</time>
      </trkpt>
      <trkpt lat="46.67153" lon="5.80939">
        <ele>523.7</ele>
        <time>2020-11-29T14:19:04Z</time>
      </trkpt>
      <trkpt lat="46.67155" lon="5.80932">
        <ele>523.3</ele>
        <time>2020-11-29T14:19:09Z</time>
      </trkpt>
      <trkpt lat="46.67158" lon="5.80926">
        <ele>522.6</ele>
        <time>2020-11-29T14:19:14Z</time>
      </trkpt>
      <trkpt lat="46.6716" lon="5.80919">
        <ele>521.4</ele>
        <time>2020-11-29T14:19:20Z</time>
      </trkpt>
      <trkpt lat="46.67163" lon="5.80913">
        <ele>520.6</ele>
        <time>2020-11-29T14:19:25Z</time>
      </trkpt>
      <trkpt lat="46.67165" lon="5.80907">
        <ele>520.1</ele>
        <time>2020-11-29T14:19:29Z</time>
      </trkpt>
      <trkpt lat="46.67168" lon="5.80901">
        <ele>519.5</ele>
        <time>2020-11-29T14:19:34Z</time>
      </trkpt>
      <trkpt lat="46.67171" lon="5.80895">
        <ele>518.9</ele>
        <time>2020-11-29T14:19:39Z</time>
      </trkpt>
      <trkpt lat="46.67171" lon="5.80887">
        <ele>518.2</ele>
        <time>2020-11-29T14:19:44Z</time>
      </trkpt>
      <trkpt lat="46.67172" lon="5.8088">
        <ele>517.2</ele>
        <time>2020-11-29T14:19:50Z</time>
      </trkpt>
      <trkpt lat="46.67174" lon="5.80873">
        <ele>516.1</ele>
        <time>2020-11-29T14:19:57Z</time>
      </trkpt>
      <trkpt lat="46.67175" lon="5.80867">
        <ele>515.4</ele>
        <time>2020-11-29T14:20:03Z</time>
      </trkpt>
      <trkpt lat="46.67177" lon="5.80859">
        <ele>514.8</ele>
        <time>2020-11-29T14:20:11Z</time>
      </trkpt>
      <trkpt lat="46.67177" lon="5.80853">
        <ele>514.3</ele>
        <time>2020-11-29T14:20:15Z</time>
      </trkpt>
      <trkpt lat="46.67177" lon="5.80845">
        <ele>513.5</ele>
        <time>2020-11-29T14:20:19Z</time>
      </trkpt>
      <trkpt lat="46.67177" lon="5.80838">
        <ele>512.4</ele>
        <time>2020-11-29T14:20:25Z</time>
      </trkpt>
      <trkpt lat="46.67178" lon="5.80827">
        <ele>511.4</ele>
        <time>2020-11-29T14:20:29Z</time>
      </trkpt>
      <trkpt lat="46.67178" lon="5.8082">
        <ele>510.8</ele>
        <time>2020-11-29T14:20:31Z</time>
      </trkpt>
      <trkpt lat="46.67179" lon="5.80813">
        <ele>509.9</ele>
        <time>2020-11-29T14:20:36Z</time>
      </trkpt>
      <trkpt lat="46.67179" lon="5.80805">
        <ele>510.3</ele>
        <time>2020-11-29T14:20:38Z</time>
      </trkpt>
      <trkpt lat="46.67179" lon="5.80796">
        <ele>510.5</ele>
        <time>2020-11-29T14:20:41Z</time>
      </trkpt>
      <trkpt lat="46.6718" lon="5.80789">
        <ele>510.8</ele>
        <time>2020-11-29T14:20:46Z</time>
      </trkpt>
      <trkpt lat="46.67183" lon="5.80784">
        <ele>511.1</ele>
        <time>2020-11-29T14:20:54Z</time>
      </trkpt>
      <trkpt lat="46.67186" lon="5.80777">
        <ele>511.5</ele>
        <time>2020-11-29T14:20:59Z</time>
      </trkpt>
      <trkpt lat="46.67188" lon="5.80771">
        <ele>511.7</ele>
        <time>2020-11-29T14:21:03Z</time>
      </trkpt>
      <trkpt lat="46.67191" lon="5.80764">
        <ele>512.1</ele>
        <time>2020-11-29T14:21:07Z</time>
      </trkpt>
      <trkpt lat="46.67194" lon="5.80759">
        <ele>512.6</ele>
        <time>2020-11-29T14:21:11Z</time>
      </trkpt>
      <trkpt lat="46.67196" lon="5.80752">
        <ele>513.2</ele>
        <time>2020-11-29T14:21:16Z</time>
      </trkpt>
      <trkpt lat="46.67198" lon="5.80747">
        <ele>513.7</ele>
        <time>2020-11-29T14:21:21Z</time>
      </trkpt>
      <trkpt lat="46.67199" lon="5.80734">
        <ele>514.5</ele>
        <time>2020-11-29T14:21:25Z</time>
      </trkpt>
      <trkpt lat="46.67198" lon="5.80727">
        <ele>514.9</ele>
        <time>2020-11-29T14:21:27Z</time>
      </trkpt>
      <trkpt lat="46.67197" lon="5.8072">
        <ele>515.1</ele>
        <time>2020-11-29T14:21:30Z</time>
      </trkpt>
      <trkpt lat="46.67198" lon="5.80712">
        <ele>514.9</ele>
        <time>2020-11-29T14:21:35Z</time>
      </trkpt>
      <trkpt lat="46.67199" lon="5.80705">
        <ele>514.2</ele>
        <time>2020-11-29T14:21:40Z</time>
      </trkpt>
      <trkpt lat="46.67201" lon="5.80698">
        <ele>513.3</ele>
        <time>2020-11-29T14:21:46Z</time>
      </trkpt>
      <trkpt lat="46.67206" lon="5.80695">
        <ele>512.3</ele>
        <time>2020-11-29T14:21:53Z</time>
      </trkpt>
      <trkpt lat="46.67208" lon="5.80688">
        <ele>512.3</ele>
        <time>2020-11-29T14:21:55Z</time>
      </trkpt>
      <trkpt lat="46.6721" lon="5.80681">
        <ele>511.7</ele>
        <time>2020-11-29T14:21:59Z</time>
      </trkpt>
      <trkpt lat="46.67212" lon="5.80674">
        <ele>510</ele>
        <time>2020-11-29T14:22:07Z</time>
      </trkpt>
      <trkpt lat="46.67211" lon="5.80667">
        <ele>509.2</ele>
        <time>2020-11-29T14:22:11Z</time>
      </trkpt>
      <trkpt lat="46.67212" lon="5.8066">
        <ele>504.7</ele>
        <time>2020-11-29T14:22:22Z</time>
      </trkpt>
      <trkpt lat="46.67214" lon="5.80654">
        <ele>499.9</ele>
        <time>2020-11-29T14:22:30Z</time>
      </trkpt>
      <trkpt lat="46.67216" lon="5.80648">
        <ele>497.3</ele>
        <time>2020-11-29T14:22:35Z</time>
      </trkpt>
      <trkpt lat="46.67218" lon="5.80641">
        <ele>495.1</ele>
        <time>2020-11-29T14:22:40Z</time>
      </trkpt>
      <trkpt lat="46.6722" lon="5.80635">
        <ele>492.6</ele>
        <time>2020-11-29T14:22:46Z</time>
      </trkpt>
      <trkpt lat="46.67222" lon="5.80629">
        <ele>491.1</ele>
        <time>2020-11-29T14:22:52Z</time>
      </trkpt>
      <trkpt lat="46.67221" lon="5.80612">
        <ele>495.3</ele>
        <time>2020-11-29T14:22:55Z</time>
      </trkpt>
      <trkpt lat="46.6722" lon="5.80602">
        <ele>496.9</ele>
        <time>2020-11-29T14:22:57Z</time>
      </trkpt>
      <trkpt lat="46.67219" lon="5.80595">
        <ele>499.5</ele>
        <time>2020-11-29T14:23:00Z</time>
      </trkpt>
      <trkpt lat="46.67223" lon="5.8059">
        <ele>502.3</ele>
        <time>2020-11-29T14:23:02Z</time>
      </trkpt>
      <trkpt lat="46.67225" lon="5.80584">
        <ele>504.9</ele>
        <time>2020-11-29T14:23:07Z</time>
      </trkpt>
      <trkpt lat="46.67229" lon="5.80579">
        <ele>506.7</ele>
        <time>2020-11-29T14:23:20Z</time>
      </trkpt>
      <trkpt lat="46.67232" lon="5.80573">
        <ele>506.3</ele>
        <time>2020-11-29T14:23:25Z</time>
      </trkpt>
      <trkpt lat="46.67235" lon="5.80568">
        <ele>505.6</ele>
        <time>2020-11-29T14:23:30Z</time>
      </trkpt>
      <trkpt lat="46.67238" lon="5.80563">
        <ele>505</ele>
        <time>2020-11-29T14:23:34Z</time>
      </trkpt>
      <trkpt lat="46.67241" lon="5.80557">
        <ele>504.1</ele>
        <time>2020-11-29T14:23:39Z</time>
      </trkpt>
      <trkpt lat="46.67242" lon="5.8055">
        <ele>503.7</ele>
        <time>2020-11-29T14:23:43Z</time>
      </trkpt>
      <trkpt lat="46.67241" lon="5.80537">
        <ele>505.9</ele>
        <time>2020-11-29T14:23:45Z</time>
      </trkpt>
      <trkpt lat="46.67242" lon="5.80529">
        <ele>507.2</ele>
        <time>2020-11-29T14:23:48Z</time>
      </trkpt>
      <trkpt lat="46.67243" lon="5.80523">
        <ele>508.4</ele>
        <time>2020-11-29T14:23:54Z</time>
      </trkpt>
      <trkpt lat="46.67245" lon="5.80517">
        <ele>508.7</ele>
        <time>2020-11-29T14:24:01Z</time>
      </trkpt>
      <trkpt lat="46.67245" lon="5.80507">
        <ele>510.2</ele>
        <time>2020-11-29T14:24:05Z</time>
      </trkpt>
      <trkpt lat="46.67246" lon="5.80499">
        <ele>511.4</ele>
        <time>2020-11-29T14:24:08Z</time>
      </trkpt>
      <trkpt lat="46.67247" lon="5.80492">
        <ele>512.8</ele>
        <time>2020-11-29T14:24:13Z</time>
      </trkpt>
      <trkpt lat="46.6725" lon="5.80488">
        <ele>513.8</ele>
        <time>2020-11-29T14:24:22Z</time>
      </trkpt>
      <trkpt lat="46.67251" lon="5.80481">
        <ele>514.3</ele>
        <time>2020-11-29T14:24:31Z</time>
      </trkpt>
      <trkpt lat="46.67253" lon="5.80475">
        <ele>514.7</ele>
        <time>2020-11-29T14:24:37Z</time>
      </trkpt>
      <trkpt lat="46.67255" lon="5.80468">
        <ele>514.5</ele>
        <time>2020-11-29T14:24:43Z</time>
      </trkpt>
      <trkpt lat="46.67257" lon="5.80461">
        <ele>514.2</ele>
        <time>2020-11-29T14:24:49Z</time>
      </trkpt>
      <trkpt lat="46.67259" lon="5.80456">
        <ele>513.9</ele>
        <time>2020-11-29T14:24:55Z</time>
      </trkpt>
      <trkpt lat="46.67261" lon="5.80449">
        <ele>513.6</ele>
        <time>2020-11-29T14:25:00Z</time>
      </trkpt>
      <trkpt lat="46.67262" lon="5.80443">
        <ele>513.1</ele>
        <time>2020-11-29T14:25:05Z</time>
      </trkpt>
      <trkpt lat="46.67263" lon="5.80436">
        <ele>512.2</ele>
        <time>2020-11-29T14:25:10Z</time>
      </trkpt>
      <trkpt lat="46.67266" lon="5.80431">
        <ele>511.4</ele>
        <time>2020-11-29T14:25:18Z</time>
      </trkpt>
      <trkpt lat="46.67268" lon="5.80424">
        <ele>510.9</ele>
        <time>2020-11-29T14:25:28Z</time>
      </trkpt>
      <trkpt lat="46.67269" lon="5.80416">
        <ele>510.4</ele>
        <time>2020-11-29T14:25:33Z</time>
      </trkpt>
      <trkpt lat="46.6727" lon="5.8041">
        <ele>509.8</ele>
        <time>2020-11-29T14:25:38Z</time>
      </trkpt>
      <trkpt lat="46.67272" lon="5.80402">
        <ele>509.4</ele>
        <time>2020-11-29T14:25:44Z</time>
      </trkpt>
      <trkpt lat="46.67273" lon="5.80395">
        <ele>509.3</ele>
        <time>2020-11-29T14:25:49Z</time>
      </trkpt>
      <trkpt lat="46.67276" lon="5.8039">
        <ele>509.3</ele>
        <time>2020-11-29T14:25:55Z</time>
      </trkpt>
      <trkpt lat="46.67278" lon="5.80383">
        <ele>509.4</ele>
        <time>2020-11-29T14:26:01Z</time>
      </trkpt>
      <trkpt lat="46.6728" lon="5.80377">
        <ele>509.2</ele>
        <time>2020-11-29T14:26:07Z</time>
      </trkpt>
      <trkpt lat="46.6728" lon="5.8037">
        <ele>508.8</ele>
        <time>2020-11-29T14:26:12Z</time>
      </trkpt>
      <trkpt lat="46.67281" lon="5.80363">
        <ele>508.1</ele>
        <time>2020-11-29T14:26:18Z</time>
      </trkpt>
      <trkpt lat="46.67283" lon="5.80357">
        <ele>507.6</ele>
        <time>2020-11-29T14:26:22Z</time>
      </trkpt>
      <trkpt lat="46.67284" lon="5.8035">
        <ele>506.8</ele>
        <time>2020-11-29T14:26:27Z</time>
      </trkpt>
      <trkpt lat="46.67286" lon="5.80343">
        <ele>505.8</ele>
        <time>2020-11-29T14:26:33Z</time>
      </trkpt>
      <trkpt lat="46.67288" lon="5.80337">
        <ele>504.8</ele>
        <time>2020-11-29T14:26:38Z</time>
      </trkpt>
      <trkpt lat="46.67289" lon="5.8033">
        <ele>503.7</ele>
        <time>2020-11-29T14:26:43Z</time>
      </trkpt>
      <trkpt lat="46.6729" lon="5.80323">
        <ele>503.1</ele>
        <time>2020-11-29T14:26:46Z</time>
      </trkpt>
      <trkpt lat="46.67292" lon="5.80316">
        <ele>502.3</ele>
        <time>2020-11-29T14:26:50Z</time>
      </trkpt>
      <trkpt lat="46.67294" lon="5.8031">
        <ele>501.7</ele>
        <time>2020-11-29T14:26:54Z</time>
      </trkpt>
      <trkpt lat="46.67296" lon="5.80303">
        <ele>501.3</ele>
        <time>2020-11-29T14:26:58Z</time>
      </trkpt>
      <trkpt lat="46.67298" lon="5.80297">
        <ele>500.9</ele>
        <time>2020-11-29T14:27:02Z</time>
      </trkpt>
      <trkpt lat="46.67299" lon="5.80288">
        <ele>504.8</ele>
        <time>2020-11-29T14:27:06Z</time>
      </trkpt>
      <trkpt lat="46.67298" lon="5.80279">
        <ele>507.9</ele>
        <time>2020-11-29T14:27:09Z</time>
      </trkpt>
      <trkpt lat="46.673" lon="5.80273">
        <ele>511.3</ele>
        <time>2020-11-29T14:27:14Z</time>
      </trkpt>
      <trkpt lat="46.673" lon="5.80265">
        <ele>512.5</ele>
        <time>2020-11-29T14:27:19Z</time>
      </trkpt>
      <trkpt lat="46.67302" lon="5.80257">
        <ele>512.8</ele>
        <time>2020-11-29T14:27:24Z</time>
      </trkpt>
      <trkpt lat="46.67305" lon="5.80252">
        <ele>512.7</ele>
        <time>2020-11-29T14:27:29Z</time>
      </trkpt>
      <trkpt lat="46.67307" lon="5.80246">
        <ele>512</ele>
        <time>2020-11-29T14:27:34Z</time>
      </trkpt>
      <trkpt lat="46.67307" lon="5.80239">
        <ele>511.1</ele>
        <time>2020-11-29T14:27:39Z</time>
      </trkpt>
      <trkpt lat="46.67306" lon="5.80232">
        <ele>510.5</ele>
        <time>2020-11-29T14:27:43Z</time>
      </trkpt>
      <trkpt lat="46.67304" lon="5.80225">
        <ele>509.9</ele>
        <time>2020-11-29T14:27:48Z</time>
      </trkpt>
      <trkpt lat="46.67307" lon="5.80218">
        <ele>509</ele>
        <time>2020-11-29T14:27:53Z</time>
      </trkpt>
      <trkpt lat="46.67308" lon="5.8021">
        <ele>507.8</ele>
        <time>2020-11-29T14:27:59Z</time>
      </trkpt>
      <trkpt lat="46.67309" lon="5.80203">
        <ele>506.4</ele>
        <time>2020-11-29T14:28:05Z</time>
      </trkpt>
      <trkpt lat="46.67309" lon="5.80196">
        <ele>505.1</ele>
        <time>2020-11-29T14:28:10Z</time>
      </trkpt>
      <trkpt lat="46.67312" lon="5.8019">
        <ele>503.4</ele>
        <time>2020-11-29T14:28:15Z</time>
      </trkpt>
      <trkpt lat="46.67316" lon="5.80184">
        <ele>502.4</ele>
        <time>2020-11-29T14:28:20Z</time>
      </trkpt>
      <trkpt lat="46.67319" lon="5.80178">
        <ele>501.7</ele>
        <time>2020-11-29T14:28:25Z</time>
      </trkpt>
      <trkpt lat="46.67319" lon="5.8017">
        <ele>501</ele>
        <time>2020-11-29T14:28:30Z</time>
      </trkpt>
      <trkpt lat="46.67319" lon="5.80163">
        <ele>500.3</ele>
        <time>2020-11-29T14:28:37Z</time>
      </trkpt>
      <trkpt lat="46.6732" lon="5.80156">
        <ele>500</ele>
        <time>2020-11-29T14:28:44Z</time>
      </trkpt>
      <trkpt lat="46.67318" lon="5.80136">
        <ele>506.1</ele>
        <time>2020-11-29T14:28:46Z</time>
      </trkpt>
      <trkpt lat="46.67317" lon="5.80128">
        <ele>508.9</ele>
        <time>2020-11-29T14:28:48Z</time>
      </trkpt>
      <trkpt lat="46.67317" lon="5.80121">
        <ele>513.6</ele>
        <time>2020-11-29T14:28:53Z</time>
      </trkpt>
      <trkpt lat="46.67318" lon="5.80114">
        <ele>515.6</ele>
        <time>2020-11-29T14:28:58Z</time>
      </trkpt>
      <trkpt lat="46.67319" lon="5.80107">
        <ele>516.1</ele>
        <time>2020-11-29T14:29:02Z</time>
      </trkpt>
      <trkpt lat="46.67321" lon="5.80101">
        <ele>516.3</ele>
        <time>2020-11-29T14:29:08Z</time>
      </trkpt>
      <trkpt lat="46.67321" lon="5.80094">
        <ele>516.1</ele>
        <time>2020-11-29T14:29:15Z</time>
      </trkpt>
      <trkpt lat="46.67322" lon="5.80087">
        <ele>516</ele>
        <time>2020-11-29T14:29:22Z</time>
      </trkpt>
      <trkpt lat="46.67324" lon="5.8008">
        <ele>515.8</ele>
        <time>2020-11-29T14:29:29Z</time>
      </trkpt>
      <trkpt lat="46.67326" lon="5.80074">
        <ele>515.7</ele>
        <time>2020-11-29T14:29:33Z</time>
      </trkpt>
      <trkpt lat="46.67326" lon="5.8006">
        <ele>515.8</ele>
        <time>2020-11-29T14:29:36Z</time>
      </trkpt>
      <trkpt lat="46.67326" lon="5.80052">
        <ele>515.8</ele>
        <time>2020-11-29T14:29:38Z</time>
      </trkpt>
      <trkpt lat="46.67325" lon="5.80046">
        <ele>515.9</ele>
        <time>2020-11-29T14:29:43Z</time>
      </trkpt>
      <trkpt lat="46.67327" lon="5.80038">
        <ele>516</ele>
        <time>2020-11-29T14:29:58Z</time>
      </trkpt>
      <trkpt lat="46.67326" lon="5.80032">
        <ele>516.1</ele>
        <time>2020-11-29T14:30:01Z</time>
      </trkpt>
      <trkpt lat="46.67325" lon="5.80024">
        <ele>516.4</ele>
        <time>2020-11-29T14:30:05Z</time>
      </trkpt>
      <trkpt lat="46.67325" lon="5.80017">
        <ele>516.8</ele>
        <time>2020-11-29T14:30:09Z</time>
      </trkpt>
      <trkpt lat="46.67324" lon="5.80009">
        <ele>517.3</ele>
        <time>2020-11-29T14:30:13Z</time>
      </trkpt>
      <trkpt lat="46.67323" lon="5.80002">
        <ele>517.7</ele>
        <time>2020-11-29T14:30:16Z</time>
      </trkpt>
      <trkpt lat="46.67325" lon="5.79995">
        <ele>517.6</ele>
        <time>2020-11-29T14:30:21Z</time>
      </trkpt>
      <trkpt lat="46.67328" lon="5.79988">
        <ele>516</ele>
        <time>2020-11-29T14:30:28Z</time>
      </trkpt>
      <trkpt lat="46.6733" lon="5.79982">
        <ele>513.6</ele>
        <time>2020-11-29T14:30:34Z</time>
      </trkpt>
      <trkpt lat="46.67331" lon="5.79975">
        <ele>510.9</ele>
        <time>2020-11-29T14:30:41Z</time>
      </trkpt>
      <trkpt lat="46.6733" lon="5.79968">
        <ele>509.9</ele>
        <time>2020-11-29T14:30:46Z</time>
      </trkpt>
      <trkpt lat="46.67331" lon="5.79961">
        <ele>508.2</ele>
        <time>2020-11-29T14:30:53Z</time>
      </trkpt>
      <trkpt lat="46.67333" lon="5.79953">
        <ele>507.3</ele>
        <time>2020-11-29T14:30:57Z</time>
      </trkpt>
      <trkpt lat="46.67332" lon="5.79941">
        <ele>511.6</ele>
        <time>2020-11-29T14:30:59Z</time>
      </trkpt>
      <trkpt lat="46.67333" lon="5.79933">
        <ele>514.2</ele>
        <time>2020-11-29T14:31:02Z</time>
      </trkpt>
      <trkpt lat="46.67335" lon="5.79927">
        <ele>516.2</ele>
        <time>2020-11-29T14:31:07Z</time>
      </trkpt>
      <trkpt lat="46.67337" lon="5.7992">
        <ele>517.1</ele>
        <time>2020-11-29T14:31:14Z</time>
      </trkpt>
      <trkpt lat="46.67339" lon="5.79913">
        <ele>516.9</ele>
        <time>2020-11-29T14:31:22Z</time>
      </trkpt>
      <trkpt lat="46.6734" lon="5.79906">
        <ele>516.2</ele>
        <time>2020-11-29T14:31:28Z</time>
      </trkpt>
      <trkpt lat="46.67337" lon="5.79892">
        <ele>516.8</ele>
        <time>2020-11-29T14:31:30Z</time>
      </trkpt>
      <trkpt lat="46.67336" lon="5.79884">
        <ele>517</ele>
        <time>2020-11-29T14:31:33Z</time>
      </trkpt>
      <trkpt lat="46.67337" lon="5.79878">
        <ele>516.8</ele>
        <time>2020-11-29T14:31:38Z</time>
      </trkpt>
      <trkpt lat="46.67338" lon="5.79872">
        <ele>516.1</ele>
        <time>2020-11-29T14:31:44Z</time>
      </trkpt>
      <trkpt lat="46.67338" lon="5.79864">
        <ele>515.2</ele>
        <time>2020-11-29T14:31:49Z</time>
      </trkpt>
      <trkpt lat="46.67338" lon="5.79857">
        <ele>514.2</ele>
        <time>2020-11-29T14:31:54Z</time>
      </trkpt>
      <trkpt lat="46.67338" lon="5.79848">
        <ele>514.3</ele>
        <time>2020-11-29T14:31:57Z</time>
      </trkpt>
      <trkpt lat="46.67339" lon="5.79842">
        <ele>514.4</ele>
        <time>2020-11-29T14:32:00Z</time>
      </trkpt>
      <trkpt lat="46.67342" lon="5.79837">
        <ele>511</ele>
        <time>2020-11-29T14:32:07Z</time>
      </trkpt>
      <trkpt lat="46.67343" lon="5.7983">
        <ele>507.7</ele>
        <time>2020-11-29T14:32:14Z</time>
      </trkpt>
      <trkpt lat="46.6734" lon="5.79816">
        <ele>506.6</ele>
        <time>2020-11-29T14:32:20Z</time>
      </trkpt>
      <trkpt lat="46.67338" lon="5.79808">
        <ele>506.5</ele>
        <time>2020-11-29T14:32:22Z</time>
      </trkpt>
      <trkpt lat="46.67337" lon="5.79801">
        <ele>506.6</ele>
        <time>2020-11-29T14:32:26Z</time>
      </trkpt>
      <trkpt lat="46.67339" lon="5.79795">
        <ele>506.3</ele>
        <time>2020-11-29T14:32:31Z</time>
      </trkpt>
      <trkpt lat="46.67339" lon="5.79787">
        <ele>505.8</ele>
        <time>2020-11-29T14:32:35Z</time>
      </trkpt>
      <trkpt lat="46.6734" lon="5.7978">
        <ele>505.1</ele>
        <time>2020-11-29T14:32:39Z</time>
      </trkpt>
      <trkpt lat="46.67342" lon="5.79773">
        <ele>503.6</ele>
        <time>2020-11-29T14:32:45Z</time>
      </trkpt>
      <trkpt lat="46.67344" lon="5.79766">
        <ele>502.4</ele>
        <time>2020-11-29T14:32:51Z</time>
      </trkpt>
      <trkpt lat="46.67346" lon="5.79758">
        <ele>501.9</ele>
        <time>2020-11-29T14:32:56Z</time>
      </trkpt>
      <trkpt lat="46.67347" lon="5.79751">
        <ele>502</ele>
        <time>2020-11-29T14:33:01Z</time>
      </trkpt>
      <trkpt lat="46.67349" lon="5.79744">
        <ele>502</ele>
        <time>2020-11-29T14:33:07Z</time>
      </trkpt>
      <trkpt lat="46.6735" lon="5.79737">
        <ele>501.8</ele>
        <time>2020-11-29T14:33:15Z</time>
      </trkpt>
      <trkpt lat="46.67349" lon="5.7973">
        <ele>501.6</ele>
        <time>2020-11-29T14:33:22Z</time>
      </trkpt>
      <trkpt lat="46.67352" lon="5.79723">
        <ele>501.3</ele>
        <time>2020-11-29T14:33:29Z</time>
      </trkpt>
      <trkpt lat="46.67351" lon="5.79706">
        <ele>504.8</ele>
        <time>2020-11-29T14:33:31Z</time>
      </trkpt>
      <trkpt lat="46.67351" lon="5.79695">
        <ele>506.4</ele>
        <time>2020-11-29T14:33:33Z</time>
      </trkpt>
      <trkpt lat="46.67351" lon="5.79689">
        <ele>508.5</ele>
        <time>2020-11-29T14:33:35Z</time>
      </trkpt>
      <trkpt lat="46.67352" lon="5.79682">
        <ele>510.9</ele>
        <time>2020-11-29T14:33:39Z</time>
      </trkpt>
      <trkpt lat="46.67353" lon="5.79675">
        <ele>513.7</ele>
        <time>2020-11-29T14:33:47Z</time>
      </trkpt>
      <trkpt lat="46.67354" lon="5.79668">
        <ele>515</ele>
        <time>2020-11-29T14:33:53Z</time>
      </trkpt>
      <trkpt lat="46.67355" lon="5.79662">
        <ele>515.8</ele>
        <time>2020-11-29T14:33:58Z</time>
      </trkpt>
      <trkpt lat="46.6736" lon="5.79661">
        <ele>517.1</ele>
        <time>2020-11-29T14:34:20Z</time>
      </trkpt>
      <trkpt lat="46.6736" lon="5.79653">
        <ele>518.1</ele>
        <time>2020-11-29T14:34:52Z</time>
      </trkpt>
      <trkpt lat="46.6736" lon="5.79646">
        <ele>518.8</ele>
        <time>2020-11-29T14:34:56Z</time>
      </trkpt>
      <trkpt lat="46.6736" lon="5.79638">
        <ele>519.6</ele>
        <time>2020-11-29T14:35:01Z</time>
      </trkpt>
      <trkpt lat="46.67361" lon="5.79631">
        <ele>520.1</ele>
        <time>2020-11-29T14:35:06Z</time>
      </trkpt>
      <trkpt lat="46.67361" lon="5.79623">
        <ele>520</ele>
        <time>2020-11-29T14:35:11Z</time>
      </trkpt>
      <trkpt lat="46.67362" lon="5.79616">
        <ele>520</ele>
        <time>2020-11-29T14:35:16Z</time>
      </trkpt>
      <trkpt lat="46.67366" lon="5.79611">
        <ele>520</ele>
        <time>2020-11-29T14:35:23Z</time>
      </trkpt>
      <trkpt lat="46.67369" lon="5.79605">
        <ele>520</ele>
        <time>2020-11-29T14:35:29Z</time>
      </trkpt>
      <trkpt lat="46.6737" lon="5.79598">
        <ele>520.1</ele>
        <time>2020-11-29T14:35:33Z</time>
      </trkpt>
      <trkpt lat="46.67371" lon="5.79592">
        <ele>520.3</ele>
        <time>2020-11-29T14:35:39Z</time>
      </trkpt>
      <trkpt lat="46.67372" lon="5.79585">
        <ele>520.4</ele>
        <time>2020-11-29T14:35:45Z</time>
      </trkpt>
      <trkpt lat="46.67375" lon="5.79578">
        <ele>520.4</ele>
        <time>2020-11-29T14:35:51Z</time>
      </trkpt>
      <trkpt lat="46.67378" lon="5.79571">
        <ele>520.3</ele>
        <time>2020-11-29T14:35:56Z</time>
      </trkpt>
      <trkpt lat="46.67378" lon="5.79565">
        <ele>520.4</ele>
        <time>2020-11-29T14:36:01Z</time>
      </trkpt>
      <trkpt lat="46.67381" lon="5.79559">
        <ele>520</ele>
        <time>2020-11-29T14:36:22Z</time>
      </trkpt>
      <trkpt lat="46.67385" lon="5.79555">
        <ele>519.9</ele>
        <time>2020-11-29T14:36:28Z</time>
      </trkpt>
      <trkpt lat="46.67387" lon="5.79549">
        <ele>519.8</ele>
        <time>2020-11-29T14:36:41Z</time>
      </trkpt>
      <trkpt lat="46.6739" lon="5.79544">
        <ele>519.8</ele>
        <time>2020-11-29T14:36:47Z</time>
      </trkpt>
      <trkpt lat="46.67394" lon="5.79539">
        <ele>519.8</ele>
        <time>2020-11-29T14:36:51Z</time>
      </trkpt>
      <trkpt lat="46.67397" lon="5.79533">
        <ele>519.8</ele>
        <time>2020-11-29T14:36:56Z</time>
      </trkpt>
      <trkpt lat="46.67401" lon="5.79529">
        <ele>519.5</ele>
        <time>2020-11-29T14:37:01Z</time>
      </trkpt>
      <trkpt lat="46.67405" lon="5.79524">
        <ele>519.2</ele>
        <time>2020-11-29T14:37:06Z</time>
      </trkpt>
      <trkpt lat="46.67408" lon="5.7952">
        <ele>518.8</ele>
        <time>2020-11-29T14:37:11Z</time>
      </trkpt>
      <trkpt lat="46.67412" lon="5.79516">
        <ele>518.7</ele>
        <time>2020-11-29T14:37:16Z</time>
      </trkpt>
      <trkpt lat="46.67416" lon="5.79513">
        <ele>518.9</ele>
        <time>2020-11-29T14:37:20Z</time>
      </trkpt>
      <trkpt lat="46.67421" lon="5.79509">
        <ele>519.2</ele>
        <time>2020-11-29T14:37:25Z</time>
      </trkpt>
      <trkpt lat="46.67424" lon="5.79503">
        <ele>519.7</ele>
        <time>2020-11-29T14:37:32Z</time>
      </trkpt>
      <trkpt lat="46.67428" lon="5.79497">
        <ele>519.9</ele>
        <time>2020-11-29T14:37:38Z</time>
      </trkpt>
      <trkpt lat="46.67431" lon="5.79491">
        <ele>520.3</ele>
        <time>2020-11-29T14:37:43Z</time>
      </trkpt>
      <trkpt lat="46.67435" lon="5.79488">
        <ele>520.7</ele>
        <time>2020-11-29T14:37:48Z</time>
      </trkpt>
      <trkpt lat="46.6744" lon="5.79486">
        <ele>521.2</ele>
        <time>2020-11-29T14:37:53Z</time>
      </trkpt>
      <trkpt lat="46.67445" lon="5.79485">
        <ele>521.5</ele>
        <time>2020-11-29T14:37:58Z</time>
      </trkpt>
      <trkpt lat="46.6745" lon="5.79484">
        <ele>521.9</ele>
        <time>2020-11-29T14:38:03Z</time>
      </trkpt>
      <trkpt lat="46.67455" lon="5.79481">
        <ele>522.2</ele>
        <time>2020-11-29T14:38:08Z</time>
      </trkpt>
      <trkpt lat="46.67459" lon="5.79477">
        <ele>522.4</ele>
        <time>2020-11-29T14:38:13Z</time>
      </trkpt>
      <trkpt lat="46.67464" lon="5.79474">
        <ele>522.4</ele>
        <time>2020-11-29T14:38:17Z</time>
      </trkpt>
      <trkpt lat="46.67468" lon="5.79469">
        <ele>522.3</ele>
        <time>2020-11-29T14:38:21Z</time>
      </trkpt>
      <trkpt lat="46.67472" lon="5.79465">
        <ele>521.7</ele>
        <time>2020-11-29T14:38:27Z</time>
      </trkpt>
      <trkpt lat="46.67477" lon="5.79465">
        <ele>520.9</ele>
        <time>2020-11-29T14:38:32Z</time>
      </trkpt>
      <trkpt lat="46.67482" lon="5.79464">
        <ele>520.1</ele>
        <time>2020-11-29T14:38:37Z</time>
      </trkpt>
      <trkpt lat="46.67487" lon="5.79461">
        <ele>519.6</ele>
        <time>2020-11-29T14:38:42Z</time>
      </trkpt>
      <trkpt lat="46.67491" lon="5.79457">
        <ele>518.9</ele>
        <time>2020-11-29T14:38:48Z</time>
      </trkpt>
      <trkpt lat="46.67492" lon="5.79451">
        <ele>517.9</ele>
        <time>2020-11-29T14:38:56Z</time>
      </trkpt>
      <trkpt lat="46.67491" lon="5.79442">
        <ele>519.3</ele>
        <time>2020-11-29T14:38:58Z</time>
      </trkpt>
      <trkpt lat="46.67491" lon="5.79434">
        <ele>520</ele>
        <time>2020-11-29T14:39:02Z</time>
      </trkpt>
      <trkpt lat="46.67493" lon="5.79427">
        <ele>520.1</ele>
        <time>2020-11-29T14:39:08Z</time>
      </trkpt>
      <trkpt lat="46.67495" lon="5.79421">
        <ele>519.8</ele>
        <time>2020-11-29T14:39:14Z</time>
      </trkpt>
      <trkpt lat="46.67495" lon="5.79414">
        <ele>519.3</ele>
        <time>2020-11-29T14:39:20Z</time>
      </trkpt>
      <trkpt lat="46.67496" lon="5.79407">
        <ele>519.3</ele>
        <time>2020-11-29T14:39:31Z</time>
      </trkpt>
      <trkpt lat="46.67498" lon="5.79401">
        <ele>519.5</ele>
        <time>2020-11-29T14:39:36Z</time>
      </trkpt>
      <trkpt lat="46.675" lon="5.79394">
        <ele>519.7</ele>
        <time>2020-11-29T14:39:41Z</time>
      </trkpt>
      <trkpt lat="46.67501" lon="5.79387">
        <ele>519.7</ele>
        <time>2020-11-29T14:39:45Z</time>
      </trkpt>
      <trkpt lat="46.67501" lon="5.79379">
        <ele>519.6</ele>
        <time>2020-11-29T14:39:50Z</time>
      </trkpt>
      <trkpt lat="46.67502" lon="5.79371">
        <ele>519.4</ele>
        <time>2020-11-29T14:39:56Z</time>
      </trkpt>
      <trkpt lat="46.67503" lon="5.79364">
        <ele>518.8</ele>
        <time>2020-11-29T14:40:01Z</time>
      </trkpt>
      <trkpt lat="46.67505" lon="5.79356">
        <ele>518.3</ele>
        <time>2020-11-29T14:40:06Z</time>
      </trkpt>
      <trkpt lat="46.67506" lon="5.79349">
        <ele>517.9</ele>
        <time>2020-11-29T14:40:12Z</time>
      </trkpt>
      <trkpt lat="46.67507" lon="5.79343">
        <ele>517.7</ele>
        <time>2020-11-29T14:40:18Z</time>
      </trkpt>
      <trkpt lat="46.67509" lon="5.79337">
        <ele>517.5</ele>
        <time>2020-11-29T14:40:24Z</time>
      </trkpt>
      <trkpt lat="46.67512" lon="5.7933">
        <ele>517.3</ele>
        <time>2020-11-29T14:40:30Z</time>
      </trkpt>
      <trkpt lat="46.67514" lon="5.79324">
        <ele>517.1</ele>
        <time>2020-11-29T14:40:37Z</time>
      </trkpt>
      <trkpt lat="46.67515" lon="5.79318">
        <ele>517.1</ele>
        <time>2020-11-29T14:40:42Z</time>
      </trkpt>
      <trkpt lat="46.67517" lon="5.79311">
        <ele>517</ele>
        <time>2020-11-29T14:40:47Z</time>
      </trkpt>
      <trkpt lat="46.67518" lon="5.79304">
        <ele>516.9</ele>
        <time>2020-11-29T14:40:51Z</time>
      </trkpt>
      <trkpt lat="46.6752" lon="5.79297">
        <ele>516.8</ele>
        <time>2020-11-29T14:40:55Z</time>
      </trkpt>
      <trkpt lat="46.67521" lon="5.7929">
        <ele>516.7</ele>
        <time>2020-11-29T14:41:00Z</time>
      </trkpt>
      <trkpt lat="46.67523" lon="5.79283">
        <ele>516.4</ele>
        <time>2020-11-29T14:41:05Z</time>
      </trkpt>
      <trkpt lat="46.67521" lon="5.79278">
        <ele>516.2</ele>
        <time>2020-11-29T14:41:15Z</time>
      </trkpt>
      <trkpt lat="46.67521" lon="5.7927">
        <ele>516.2</ele>
        <time>2020-11-29T14:41:20Z</time>
      </trkpt>
      <trkpt lat="46.67522" lon="5.79263">
        <ele>516</ele>
        <time>2020-11-29T14:41:25Z</time>
      </trkpt>
      <trkpt lat="46.67523" lon="5.79255">
        <ele>515.8</ele>
        <time>2020-11-29T14:41:29Z</time>
      </trkpt>
      <trkpt lat="46.67524" lon="5.79248">
        <ele>515.3</ele>
        <time>2020-11-29T14:41:33Z</time>
      </trkpt>
      <trkpt lat="46.67524" lon="5.79241">
        <ele>514.9</ele>
        <time>2020-11-29T14:41:37Z</time>
      </trkpt>
      <trkpt lat="46.67525" lon="5.79234">
        <ele>514.5</ele>
        <time>2020-11-29T14:41:41Z</time>
      </trkpt>
      <trkpt lat="46.67525" lon="5.79227">
        <ele>514.4</ele>
        <time>2020-11-29T14:41:45Z</time>
      </trkpt>
      <trkpt lat="46.67527" lon="5.79221">
        <ele>514.6</ele>
        <time>2020-11-29T14:41:49Z</time>
      </trkpt>
      <trkpt lat="46.6753" lon="5.79216">
        <ele>515.5</ele>
        <time>2020-11-29T14:41:54Z</time>
      </trkpt>
      <trkpt lat="46.67533" lon="5.79209">
        <ele>516.5</ele>
        <time>2020-11-29T14:41:59Z</time>
      </trkpt>
      <trkpt lat="46.67535" lon="5.79203">
        <ele>517.3</ele>
        <time>2020-11-29T14:42:03Z</time>
      </trkpt>
      <trkpt lat="46.67537" lon="5.79197">
        <ele>517.8</ele>
        <time>2020-11-29T14:42:07Z</time>
      </trkpt>
      <trkpt lat="46.6754" lon="5.79192">
        <ele>517.9</ele>
        <time>2020-11-29T14:42:12Z</time>
      </trkpt>
      <trkpt lat="46.67543" lon="5.79187">
        <ele>516.7</ele>
        <time>2020-11-29T14:42:17Z</time>
      </trkpt>
      <trkpt lat="46.67546" lon="5.79181">
        <ele>515.5</ele>
        <time>2020-11-29T14:42:21Z</time>
      </trkpt>
      <trkpt lat="46.67548" lon="5.79175">
        <ele>514.4</ele>
        <time>2020-11-29T14:42:25Z</time>
      </trkpt>
      <trkpt lat="46.6755" lon="5.79168">
        <ele>513.7</ele>
        <time>2020-11-29T14:42:30Z</time>
      </trkpt>
      <trkpt lat="46.67553" lon="5.79162">
        <ele>513.7</ele>
        <time>2020-11-29T14:42:34Z</time>
      </trkpt>
      <trkpt lat="46.67555" lon="5.79154">
        <ele>514.2</ele>
        <time>2020-11-29T14:42:38Z</time>
      </trkpt>
      <trkpt lat="46.67557" lon="5.79148">
        <ele>514.7</ele>
        <time>2020-11-29T14:42:43Z</time>
      </trkpt>
      <trkpt lat="46.6756" lon="5.79142">
        <ele>514.2</ele>
        <time>2020-11-29T14:42:48Z</time>
      </trkpt>
      <trkpt lat="46.67561" lon="5.79135">
        <ele>513.5</ele>
        <time>2020-11-29T14:42:52Z</time>
      </trkpt>
      <trkpt lat="46.67562" lon="5.79129">
        <ele>512.8</ele>
        <time>2020-11-29T14:42:56Z</time>
      </trkpt>
      <trkpt lat="46.67564" lon="5.79121">
        <ele>512.2</ele>
        <time>2020-11-29T14:43:01Z</time>
      </trkpt>
      <trkpt lat="46.67566" lon="5.79114">
        <ele>512.1</ele>
        <time>2020-11-29T14:43:05Z</time>
      </trkpt>
      <trkpt lat="46.67569" lon="5.79109">
        <ele>512.4</ele>
        <time>2020-11-29T14:43:09Z</time>
      </trkpt>
      <trkpt lat="46.67572" lon="5.79104">
        <ele>513</ele>
        <time>2020-11-29T14:43:13Z</time>
      </trkpt>
      <trkpt lat="46.67575" lon="5.79098">
        <ele>514</ele>
        <time>2020-11-29T14:43:18Z</time>
      </trkpt>
      <trkpt lat="46.67577" lon="5.7909">
        <ele>515</ele>
        <time>2020-11-29T14:43:23Z</time>
      </trkpt>
      <trkpt lat="46.6758" lon="5.79083">
        <ele>515.7</ele>
        <time>2020-11-29T14:43:28Z</time>
      </trkpt>
      <trkpt lat="46.67582" lon="5.79077">
        <ele>516.3</ele>
        <time>2020-11-29T14:43:33Z</time>
      </trkpt>
      <trkpt lat="46.67586" lon="5.79072">
        <ele>517.3</ele>
        <time>2020-11-29T14:43:39Z</time>
      </trkpt>
      <trkpt lat="46.6759" lon="5.79068">
        <ele>518.2</ele>
        <time>2020-11-29T14:43:45Z</time>
      </trkpt>
      <trkpt lat="46.67594" lon="5.79064">
        <ele>519</ele>
        <time>2020-11-29T14:43:50Z</time>
      </trkpt>
      <trkpt lat="46.67598" lon="5.79059">
        <ele>519.4</ele>
        <time>2020-11-29T14:43:55Z</time>
      </trkpt>
      <trkpt lat="46.67601" lon="5.79053">
        <ele>519.4</ele>
        <time>2020-11-29T14:44:00Z</time>
      </trkpt>
      <trkpt lat="46.67605" lon="5.79049">
        <ele>519.2</ele>
        <time>2020-11-29T14:44:05Z</time>
      </trkpt>
      <trkpt lat="46.67609" lon="5.79046">
        <ele>518.7</ele>
        <time>2020-11-29T14:44:10Z</time>
      </trkpt>
      <trkpt lat="46.67613" lon="5.79041">
        <ele>518.4</ele>
        <time>2020-11-29T14:44:16Z</time>
      </trkpt>
      <trkpt lat="46.67614" lon="5.79034">
        <ele>518.1</ele>
        <time>2020-11-29T14:44:21Z</time>
      </trkpt>
      <trkpt lat="46.67616" lon="5.79028">
        <ele>517.8</ele>
        <time>2020-11-29T14:44:27Z</time>
      </trkpt>
      <trkpt lat="46.67619" lon="5.79022">
        <ele>517.4</ele>
        <time>2020-11-29T14:44:33Z</time>
      </trkpt>
      <trkpt lat="46.67621" lon="5.79015">
        <ele>517.1</ele>
        <time>2020-11-29T14:44:38Z</time>
      </trkpt>
      <trkpt lat="46.67623" lon="5.7901">
        <ele>516.8</ele>
        <time>2020-11-29T14:44:43Z</time>
      </trkpt>
      <trkpt lat="46.67627" lon="5.79003">
        <ele>516.6</ele>
        <time>2020-11-29T14:44:48Z</time>
      </trkpt>
      <trkpt lat="46.6763" lon="5.78996">
        <ele>516.6</ele>
        <time>2020-11-29T14:44:53Z</time>
      </trkpt>
      <trkpt lat="46.67633" lon="5.7899">
        <ele>516.8</ele>
        <time>2020-11-29T14:44:58Z</time>
      </trkpt>
      <trkpt lat="46.67635" lon="5.78983">
        <ele>517</ele>
        <time>2020-11-29T14:45:03Z</time>
      </trkpt>
      <trkpt lat="46.67637" lon="5.78976">
        <ele>517.2</ele>
        <time>2020-11-29T14:45:08Z</time>
      </trkpt>
      <trkpt lat="46.67641" lon="5.78971">
        <ele>517.4</ele>
        <time>2020-11-29T14:45:13Z</time>
      </trkpt>
      <trkpt lat="46.67644" lon="5.78965">
        <ele>517.8</ele>
        <time>2020-11-29T14:45:18Z</time>
      </trkpt>
      <trkpt lat="46.67646" lon="5.78958">
        <ele>518</ele>
        <time>2020-11-29T14:45:23Z</time>
      </trkpt>
      <trkpt lat="46.6765" lon="5.78951">
        <ele>518.4</ele>
        <time>2020-11-29T14:45:27Z</time>
      </trkpt>
      <trkpt lat="46.67653" lon="5.78946">
        <ele>518.8</ele>
        <time>2020-11-29T14:45:33Z</time>
      </trkpt>
      <trkpt lat="46.67656" lon="5.78941">
        <ele>518.4</ele>
        <time>2020-11-29T14:45:39Z</time>
      </trkpt>
      <trkpt lat="46.67659" lon="5.78933">
        <ele>518.8</ele>
        <time>2020-11-29T14:45:44Z</time>
      </trkpt>
      <trkpt lat="46.6766" lon="5.78926">
        <ele>519.6</ele>
        <time>2020-11-29T14:45:48Z</time>
      </trkpt>
      <trkpt lat="46.6766" lon="5.78919">
        <ele>520.7</ele>
        <time>2020-11-29T14:45:53Z</time>
      </trkpt>
      <trkpt lat="46.67658" lon="5.78913">
        <ele>521.8</ele>
        <time>2020-11-29T14:46:01Z</time>
      </trkpt>
      <trkpt lat="46.67653" lon="5.78913">
        <ele>522.2</ele>
        <time>2020-11-29T14:46:10Z</time>
      </trkpt>
      <trkpt lat="46.6765" lon="5.78908">
        <ele>519.9</ele>
        <time>2020-11-29T14:47:36Z</time>
      </trkpt>
      <trkpt lat="46.67654" lon="5.78911">
        <ele>520.2</ele>
        <time>2020-11-29T14:47:42Z</time>
      </trkpt>
      <trkpt lat="46.67659" lon="5.78912">
        <ele>520.5</ele>
        <time>2020-11-29T14:47:47Z</time>
      </trkpt>
      <trkpt lat="46.67664" lon="5.78912">
        <ele>520.7</ele>
        <time>2020-11-29T14:47:53Z</time>
      </trkpt>
      <trkpt lat="46.67668" lon="5.78906">
        <ele>521.3</ele>
        <time>2020-11-29T14:47:59Z</time>
      </trkpt>
      <trkpt lat="46.67671" lon="5.789">
        <ele>521.7</ele>
        <time>2020-11-29T14:48:04Z</time>
      </trkpt>
      <trkpt lat="46.67675" lon="5.78894">
        <ele>521.9</ele>
        <time>2020-11-29T14:48:09Z</time>
      </trkpt>
      <trkpt lat="46.67678" lon="5.78888">
        <ele>522</ele>
        <time>2020-11-29T14:48:13Z</time>
      </trkpt>
      <trkpt lat="46.67681" lon="5.78882">
        <ele>521.8</ele>
        <time>2020-11-29T14:48:17Z</time>
      </trkpt>
      <trkpt lat="46.67684" lon="5.78876">
        <ele>521.4</ele>
        <time>2020-11-29T14:48:21Z</time>
      </trkpt>
      <trkpt lat="46.67687" lon="5.7887">
        <ele>520.8</ele>
        <time>2020-11-29T14:48:25Z</time>
      </trkpt>
      <trkpt lat="46.67689" lon="5.78864">
        <ele>520.2</ele>
        <time>2020-11-29T14:48:29Z</time>
      </trkpt>
      <trkpt lat="46.67692" lon="5.78857">
        <ele>519.4</ele>
        <time>2020-11-29T14:48:34Z</time>
      </trkpt>
      <trkpt lat="46.67695" lon="5.78851">
        <ele>519</ele>
        <time>2020-11-29T14:48:38Z</time>
      </trkpt>
      <trkpt lat="46.67697" lon="5.78844">
        <ele>518.9</ele>
        <time>2020-11-29T14:48:43Z</time>
      </trkpt>
      <trkpt lat="46.67699" lon="5.78838">
        <ele>519</ele>
        <time>2020-11-29T14:48:48Z</time>
      </trkpt>
      <trkpt lat="46.67701" lon="5.78831">
        <ele>519.5</ele>
        <time>2020-11-29T14:48:53Z</time>
      </trkpt>
      <trkpt lat="46.67703" lon="5.78824">
        <ele>520</ele>
        <time>2020-11-29T14:48:58Z</time>
      </trkpt>
      <trkpt lat="46.67705" lon="5.78818">
        <ele>520.7</ele>
        <time>2020-11-29T14:49:04Z</time>
      </trkpt>
      <trkpt lat="46.67707" lon="5.78811">
        <ele>521.1</ele>
        <time>2020-11-29T14:49:09Z</time>
      </trkpt>
      <trkpt lat="46.67709" lon="5.78804">
        <ele>521.2</ele>
        <time>2020-11-29T14:49:14Z</time>
      </trkpt>
      <trkpt lat="46.6771" lon="5.78797">
        <ele>521.2</ele>
        <time>2020-11-29T14:49:18Z</time>
      </trkpt>
      <trkpt lat="46.67711" lon="5.7879">
        <ele>521</ele>
        <time>2020-11-29T14:49:22Z</time>
      </trkpt>
      <trkpt lat="46.67711" lon="5.78783">
        <ele>521</ele>
        <time>2020-11-29T14:49:26Z</time>
      </trkpt>
      <trkpt lat="46.67711" lon="5.78777">
        <ele>520.9</ele>
        <time>2020-11-29T14:49:30Z</time>
      </trkpt>
      <trkpt lat="46.67712" lon="5.78769">
        <ele>520.9</ele>
        <time>2020-11-29T14:49:34Z</time>
      </trkpt>
      <trkpt lat="46.67713" lon="5.78762">
        <ele>520.6</ele>
        <time>2020-11-29T14:49:38Z</time>
      </trkpt>
      <trkpt lat="46.67713" lon="5.78754">
        <ele>520.4</ele>
        <time>2020-11-29T14:49:42Z</time>
      </trkpt>
      <trkpt lat="46.67712" lon="5.78747">
        <ele>520.2</ele>
        <time>2020-11-29T14:49:46Z</time>
      </trkpt>
      <trkpt lat="46.67712" lon="5.7874">
        <ele>519.9</ele>
        <time>2020-11-29T14:49:50Z</time>
      </trkpt>
      <trkpt lat="46.67712" lon="5.78733">
        <ele>520</ele>
        <time>2020-11-29T14:49:54Z</time>
      </trkpt>
      <trkpt lat="46.67712" lon="5.78726">
        <ele>520.1</ele>
        <time>2020-11-29T14:49:59Z</time>
      </trkpt>
      <trkpt lat="46.67712" lon="5.78719">
        <ele>519.9</ele>
        <time>2020-11-29T14:50:04Z</time>
      </trkpt>
      <trkpt lat="46.67714" lon="5.78712">
        <ele>519.6</ele>
        <time>2020-11-29T14:50:09Z</time>
      </trkpt>
      <trkpt lat="46.67715" lon="5.78705">
        <ele>519.6</ele>
        <time>2020-11-29T14:50:14Z</time>
      </trkpt>
      <trkpt lat="46.67716" lon="5.78697">
        <ele>519.8</ele>
        <time>2020-11-29T14:50:18Z</time>
      </trkpt>
      <trkpt lat="46.67717" lon="5.78691">
        <ele>520.1</ele>
        <time>2020-11-29T14:50:22Z</time>
      </trkpt>
      <trkpt lat="46.67717" lon="5.78684">
        <ele>520.6</ele>
        <time>2020-11-29T14:50:26Z</time>
      </trkpt>
      <trkpt lat="46.67717" lon="5.78677">
        <ele>520.9</ele>
        <time>2020-11-29T14:50:30Z</time>
      </trkpt>
      <trkpt lat="46.67718" lon="5.7867">
        <ele>521</ele>
        <time>2020-11-29T14:50:34Z</time>
      </trkpt>
      <trkpt lat="46.67718" lon="5.78663">
        <ele>521</ele>
        <time>2020-11-29T14:50:39Z</time>
      </trkpt>
      <trkpt lat="46.67718" lon="5.78656">
        <ele>521</ele>
        <time>2020-11-29T14:50:43Z</time>
      </trkpt>
      <trkpt lat="46.67717" lon="5.78649">
        <ele>520.9</ele>
        <time>2020-11-29T14:50:47Z</time>
      </trkpt>
      <trkpt lat="46.67717" lon="5.78642">
        <ele>520.9</ele>
        <time>2020-11-29T14:50:52Z</time>
      </trkpt>
      <trkpt lat="46.67717" lon="5.78634">
        <ele>520.5</ele>
        <time>2020-11-29T14:50:57Z</time>
      </trkpt>
      <trkpt lat="46.67717" lon="5.78627">
        <ele>520.3</ele>
        <time>2020-11-29T14:51:01Z</time>
      </trkpt>
      <trkpt lat="46.67718" lon="5.78619">
        <ele>520.1</ele>
        <time>2020-11-29T14:51:06Z</time>
      </trkpt>
      <trkpt lat="46.67718" lon="5.78612">
        <ele>520</ele>
        <time>2020-11-29T14:51:12Z</time>
      </trkpt>
      <trkpt lat="46.67719" lon="5.78605">
        <ele>519.8</ele>
        <time>2020-11-29T14:51:17Z</time>
      </trkpt>
      <trkpt lat="46.67721" lon="5.78597">
        <ele>519.5</ele>
        <time>2020-11-29T14:51:22Z</time>
      </trkpt>
      <trkpt lat="46.67722" lon="5.78591">
        <ele>518.7</ele>
        <time>2020-11-29T14:51:26Z</time>
      </trkpt>
      <trkpt lat="46.67723" lon="5.78584">
        <ele>517.1</ele>
        <time>2020-11-29T14:51:32Z</time>
      </trkpt>
      <trkpt lat="46.67724" lon="5.78577">
        <ele>516.1</ele>
        <time>2020-11-29T14:51:37Z</time>
      </trkpt>
      <trkpt lat="46.67725" lon="5.7857">
        <ele>515.6</ele>
        <time>2020-11-29T14:51:42Z</time>
      </trkpt>
      <trkpt lat="46.67726" lon="5.78562">
        <ele>515.5</ele>
        <time>2020-11-29T14:51:47Z</time>
      </trkpt>
      <trkpt lat="46.67727" lon="5.78555">
        <ele>515.5</ele>
        <time>2020-11-29T14:51:51Z</time>
      </trkpt>
      <trkpt lat="46.67728" lon="5.78549">
        <ele>515.6</ele>
        <time>2020-11-29T14:51:55Z</time>
      </trkpt>
      <trkpt lat="46.67729" lon="5.78541">
        <ele>516.1</ele>
        <time>2020-11-29T14:52:00Z</time>
      </trkpt>
      <trkpt lat="46.67729" lon="5.78534">
        <ele>516.1</ele>
        <time>2020-11-29T14:52:04Z</time>
      </trkpt>
      <trkpt lat="46.6773" lon="5.78527">
        <ele>516.2</ele>
        <time>2020-11-29T14:52:09Z</time>
      </trkpt>
      <trkpt lat="46.67732" lon="5.78521">
        <ele>516.2</ele>
        <time>2020-11-29T14:52:13Z</time>
      </trkpt>
      <trkpt lat="46.67733" lon="5.78514">
        <ele>516.5</ele>
        <time>2020-11-29T14:52:17Z</time>
      </trkpt>
      <trkpt lat="46.67734" lon="5.78507">
        <ele>516.9</ele>
        <time>2020-11-29T14:52:22Z</time>
      </trkpt>
      <trkpt lat="46.67735" lon="5.78501">
        <ele>517.1</ele>
        <time>2020-11-29T14:52:26Z</time>
      </trkpt>
      <trkpt lat="46.67737" lon="5.78494">
        <ele>517.1</ele>
        <time>2020-11-29T14:52:30Z</time>
      </trkpt>
      <trkpt lat="46.6774" lon="5.78488">
        <ele>517.4</ele>
        <time>2020-11-29T14:52:34Z</time>
      </trkpt>
      <trkpt lat="46.67745" lon="5.78486">
        <ele>518.1</ele>
        <time>2020-11-29T14:52:39Z</time>
      </trkpt>
      <trkpt lat="46.67747" lon="5.7848">
        <ele>519.8</ele>
        <time>2020-11-29T14:52:50Z</time>
      </trkpt>
      <trkpt lat="46.67747" lon="5.78472">
        <ele>520.2</ele>
        <time>2020-11-29T14:52:55Z</time>
      </trkpt>
      <trkpt lat="46.67747" lon="5.78465">
        <ele>520.6</ele>
        <time>2020-11-29T14:53:00Z</time>
      </trkpt>
      <trkpt lat="46.67748" lon="5.78458">
        <ele>520.8</ele>
        <time>2020-11-29T14:53:04Z</time>
      </trkpt>
      <trkpt lat="46.67749" lon="5.78451">
        <ele>520.5</ele>
        <time>2020-11-29T14:53:09Z</time>
      </trkpt>
      <trkpt lat="46.67751" lon="5.78444">
        <ele>519.9</ele>
        <time>2020-11-29T14:53:14Z</time>
      </trkpt>
      <trkpt lat="46.67753" lon="5.78437">
        <ele>519.3</ele>
        <time>2020-11-29T14:53:19Z</time>
      </trkpt>
      <trkpt lat="46.67754" lon="5.7843">
        <ele>519</ele>
        <time>2020-11-29T14:53:23Z</time>
      </trkpt>
      <trkpt lat="46.67756" lon="5.78423">
        <ele>518.9</ele>
        <time>2020-11-29T14:53:27Z</time>
      </trkpt>
      <trkpt lat="46.67758" lon="5.78417">
        <ele>519.1</ele>
        <time>2020-11-29T14:53:31Z</time>
      </trkpt>
      <trkpt lat="46.67761" lon="5.78411">
        <ele>519</ele>
        <time>2020-11-29T14:53:36Z</time>
      </trkpt>
      <trkpt lat="46.67763" lon="5.78405">
        <ele>518.7</ele>
        <time>2020-11-29T14:53:40Z</time>
      </trkpt>
      <trkpt lat="46.67766" lon="5.78399">
        <ele>518.2</ele>
        <time>2020-11-29T14:53:44Z</time>
      </trkpt>
      <trkpt lat="46.67768" lon="5.78394">
        <ele>517.8</ele>
        <time>2020-11-29T14:53:48Z</time>
      </trkpt>
      <trkpt lat="46.67771" lon="5.78388">
        <ele>517.4</ele>
        <time>2020-11-29T14:53:52Z</time>
      </trkpt>
      <trkpt lat="46.67774" lon="5.78383">
        <ele>517</ele>
        <time>2020-11-29T14:53:57Z</time>
      </trkpt>
      <trkpt lat="46.67777" lon="5.78377">
        <ele>516.9</ele>
        <time>2020-11-29T14:54:02Z</time>
      </trkpt>
      <trkpt lat="46.67781" lon="5.78372">
        <ele>516.8</ele>
        <time>2020-11-29T14:54:06Z</time>
      </trkpt>
      <trkpt lat="46.67784" lon="5.78366">
        <ele>516.6</ele>
        <time>2020-11-29T14:54:11Z</time>
      </trkpt>
      <trkpt lat="46.67787" lon="5.7836">
        <ele>516.1</ele>
        <time>2020-11-29T14:54:16Z</time>
      </trkpt>
      <trkpt lat="46.67791" lon="5.78355">
        <ele>515.8</ele>
        <time>2020-11-29T14:54:21Z</time>
      </trkpt>
      <trkpt lat="46.67794" lon="5.7835">
        <ele>515.6</ele>
        <time>2020-11-29T14:54:26Z</time>
      </trkpt>
      <trkpt lat="46.67796" lon="5.78344">
        <ele>515.6</ele>
        <time>2020-11-29T14:54:31Z</time>
      </trkpt>
      <trkpt lat="46.678" lon="5.78339">
        <ele>515.2</ele>
        <time>2020-11-29T14:54:36Z</time>
      </trkpt>
      <trkpt lat="46.67803" lon="5.78333">
        <ele>514.8</ele>
        <time>2020-11-29T14:54:41Z</time>
      </trkpt>
      <trkpt lat="46.67807" lon="5.78328">
        <ele>514.3</ele>
        <time>2020-11-29T14:54:46Z</time>
      </trkpt>
      <trkpt lat="46.6781" lon="5.78323">
        <ele>513.7</ele>
        <time>2020-11-29T14:54:50Z</time>
      </trkpt>
      <trkpt lat="46.67814" lon="5.78317">
        <ele>512.8</ele>
        <time>2020-11-29T14:54:55Z</time>
      </trkpt>
      <trkpt lat="46.67817" lon="5.78313">
        <ele>512.3</ele>
        <time>2020-11-29T14:54:59Z</time>
      </trkpt>
      <trkpt lat="46.67821" lon="5.78308">
        <ele>511.9</ele>
        <time>2020-11-29T14:55:03Z</time>
      </trkpt>
      <trkpt lat="46.67825" lon="5.78304">
        <ele>511.5</ele>
        <time>2020-11-29T14:55:08Z</time>
      </trkpt>
      <trkpt lat="46.67829" lon="5.78299">
        <ele>511.1</ele>
        <time>2020-11-29T14:55:13Z</time>
      </trkpt>
      <trkpt lat="46.67833" lon="5.78295">
        <ele>510.6</ele>
        <time>2020-11-29T14:55:17Z</time>
      </trkpt>
      <trkpt lat="46.67836" lon="5.78291">
        <ele>509.9</ele>
        <time>2020-11-29T14:55:21Z</time>
      </trkpt>
      <trkpt lat="46.67841" lon="5.78287">
        <ele>509.1</ele>
        <time>2020-11-29T14:55:26Z</time>
      </trkpt>
      <trkpt lat="46.67845" lon="5.78284">
        <ele>508.1</ele>
        <time>2020-11-29T14:55:31Z</time>
      </trkpt>
      <trkpt lat="46.6785" lon="5.78281">
        <ele>507.1</ele>
        <time>2020-11-29T14:55:36Z</time>
      </trkpt>
      <trkpt lat="46.67854" lon="5.78276">
        <ele>506.4</ele>
        <time>2020-11-29T14:55:41Z</time>
      </trkpt>
      <trkpt lat="46.67859" lon="5.78272">
        <ele>505.8</ele>
        <time>2020-11-29T14:55:46Z</time>
      </trkpt>
      <trkpt lat="46.67863" lon="5.78268">
        <ele>505.3</ele>
        <time>2020-11-29T14:55:51Z</time>
      </trkpt>
      <trkpt lat="46.67867" lon="5.78264">
        <ele>504.9</ele>
        <time>2020-11-29T14:55:56Z</time>
      </trkpt>
      <trkpt lat="46.67869" lon="5.78257">
        <ele>504.8</ele>
        <time>2020-11-29T14:56:01Z</time>
      </trkpt>
      <trkpt lat="46.67872" lon="5.78251">
        <ele>505.3</ele>
        <time>2020-11-29T14:56:06Z</time>
      </trkpt>
      <trkpt lat="46.67875" lon="5.78244">
        <ele>505.7</ele>
        <time>2020-11-29T14:56:11Z</time>
      </trkpt>
      <trkpt lat="46.67877" lon="5.78237">
        <ele>505.7</ele>
        <time>2020-11-29T14:56:16Z</time>
      </trkpt>
      <trkpt lat="46.67881" lon="5.78232">
        <ele>505.3</ele>
        <time>2020-11-29T14:56:21Z</time>
      </trkpt>
      <trkpt lat="46.67884" lon="5.78227">
        <ele>504.9</ele>
        <time>2020-11-29T14:56:26Z</time>
      </trkpt>
      <trkpt lat="46.67887" lon="5.78221">
        <ele>504.4</ele>
        <time>2020-11-29T14:56:32Z</time>
      </trkpt>
      <trkpt lat="46.67889" lon="5.78215">
        <ele>504</ele>
        <time>2020-11-29T14:56:38Z</time>
      </trkpt>
      <trkpt lat="46.6789" lon="5.78208">
        <ele>504</ele>
        <time>2020-11-29T14:56:43Z</time>
      </trkpt>
      <trkpt lat="46.67892" lon="5.78202">
        <ele>503.8</ele>
        <time>2020-11-29T14:56:48Z</time>
      </trkpt>
      <trkpt lat="46.67893" lon="5.78195">
        <ele>503.2</ele>
        <time>2020-11-29T14:56:54Z</time>
      </trkpt>
      <trkpt lat="46.67896" lon="5.78188">
        <ele>502.3</ele>
        <time>2020-11-29T14:57:00Z</time>
      </trkpt>
      <trkpt lat="46.67897" lon="5.78181">
        <ele>501.4</ele>
        <time>2020-11-29T14:57:05Z</time>
      </trkpt>
      <trkpt lat="46.67899" lon="5.78174">
        <ele>500.6</ele>
        <time>2020-11-29T14:57:10Z</time>
      </trkpt>
      <trkpt lat="46.67899" lon="5.78166">
        <ele>499.9</ele>
        <time>2020-11-29T14:57:15Z</time>
      </trkpt>
      <trkpt lat="46.679" lon="5.78159">
        <ele>499.3</ele>
        <time>2020-11-29T14:57:22Z</time>
      </trkpt>
      <trkpt lat="46.67899" lon="5.78153">
        <ele>498.6</ele>
        <time>2020-11-29T14:57:28Z</time>
      </trkpt>
      <trkpt lat="46.67899" lon="5.78145">
        <ele>498.1</ele>
        <time>2020-11-29T14:57:33Z</time>
      </trkpt>
      <trkpt lat="46.67899" lon="5.78137">
        <ele>497.7</ele>
        <time>2020-11-29T14:57:38Z</time>
      </trkpt>
      <trkpt lat="46.67899" lon="5.7813">
        <ele>497.4</ele>
        <time>2020-11-29T14:57:42Z</time>
      </trkpt>
      <trkpt lat="46.67898" lon="5.78123">
        <ele>497.1</ele>
        <time>2020-11-29T14:57:46Z</time>
      </trkpt>
      <trkpt lat="46.67898" lon="5.78116">
        <ele>496.7</ele>
        <time>2020-11-29T14:57:51Z</time>
      </trkpt>
      <trkpt lat="46.67899" lon="5.78108">
        <ele>496.5</ele>
        <time>2020-11-29T14:57:56Z</time>
      </trkpt>
      <trkpt lat="46.679" lon="5.78101">
        <ele>496.1</ele>
        <time>2020-11-29T14:58:01Z</time>
      </trkpt>
      <trkpt lat="46.67902" lon="5.78094">
        <ele>495.8</ele>
        <time>2020-11-29T14:58:05Z</time>
      </trkpt>
      <trkpt lat="46.67903" lon="5.78086">
        <ele>495.4</ele>
        <time>2020-11-29T14:58:10Z</time>
      </trkpt>
      <trkpt lat="46.67905" lon="5.78079">
        <ele>495.2</ele>
        <time>2020-11-29T14:58:14Z</time>
      </trkpt>
      <trkpt lat="46.67907" lon="5.78073">
        <ele>495.2</ele>
        <time>2020-11-29T14:58:18Z</time>
      </trkpt>
      <trkpt lat="46.67908" lon="5.78066">
        <ele>495.2</ele>
        <time>2020-11-29T14:58:22Z</time>
      </trkpt>
      <trkpt lat="46.6791" lon="5.78059">
        <ele>495.5</ele>
        <time>2020-11-29T14:58:26Z</time>
      </trkpt>
      <trkpt lat="46.67912" lon="5.78053">
        <ele>495.9</ele>
        <time>2020-11-29T14:58:30Z</time>
      </trkpt>
      <trkpt lat="46.67915" lon="5.78046">
        <ele>496.6</ele>
        <time>2020-11-29T14:58:35Z</time>
      </trkpt>
      <trkpt lat="46.67917" lon="5.7804">
        <ele>497.2</ele>
        <time>2020-11-29T14:58:39Z</time>
      </trkpt>
      <trkpt lat="46.67919" lon="5.78034">
        <ele>497.7</ele>
        <time>2020-11-29T14:58:43Z</time>
      </trkpt>
      <trkpt lat="46.67922" lon="5.78028">
        <ele>498</ele>
        <time>2020-11-29T14:58:47Z</time>
      </trkpt>
      <trkpt lat="46.67925" lon="5.78022">
        <ele>497.9</ele>
        <time>2020-11-29T14:58:52Z</time>
      </trkpt>
      <trkpt lat="46.67928" lon="5.78016">
        <ele>497.7</ele>
        <time>2020-11-29T14:58:57Z</time>
      </trkpt>
      <trkpt lat="46.67932" lon="5.7801">
        <ele>497.3</ele>
        <time>2020-11-29T14:59:02Z</time>
      </trkpt>
      <trkpt lat="46.67933" lon="5.78003">
        <ele>496.9</ele>
        <time>2020-11-29T14:59:07Z</time>
      </trkpt>
      <trkpt lat="46.6793" lon="5.77998">
        <ele>496.4</ele>
        <time>2020-11-29T14:59:12Z</time>
      </trkpt>
      <trkpt lat="46.67925" lon="5.77997">
        <ele>495.2</ele>
        <time>2020-11-29T14:59:17Z</time>
      </trkpt>
      <trkpt lat="46.67921" lon="5.77999">
        <ele>493.9</ele>
        <time>2020-11-29T14:59:22Z</time>
      </trkpt>
      <trkpt lat="46.67917" lon="5.78003">
        <ele>492.9</ele>
        <time>2020-11-29T14:59:27Z</time>
      </trkpt>
      <trkpt lat="46.67913" lon="5.78008">
        <ele>492</ele>
        <time>2020-11-29T14:59:32Z</time>
      </trkpt>
      <trkpt lat="46.67909" lon="5.78012">
        <ele>491.1</ele>
        <time>2020-11-29T14:59:37Z</time>
      </trkpt>
      <trkpt lat="46.67904" lon="5.78012">
        <ele>490</ele>
        <time>2020-11-29T14:59:43Z</time>
      </trkpt>
      <trkpt lat="46.67901" lon="5.78007">
        <ele>489.2</ele>
        <time>2020-11-29T14:59:49Z</time>
      </trkpt>
      <trkpt lat="46.67899" lon="5.78">
        <ele>489.4</ele>
        <time>2020-11-29T14:59:58Z</time>
      </trkpt>
      <trkpt lat="46.67897" lon="5.77994">
        <ele>489.2</ele>
        <time>2020-11-29T15:00:14Z</time>
      </trkpt>
      <trkpt lat="46.67899" lon="5.77988">
        <ele>488.8</ele>
        <time>2020-11-29T15:00:17Z</time>
      </trkpt>
      <trkpt lat="46.679" lon="5.77982">
        <ele>488.4</ele>
        <time>2020-11-29T15:00:20Z</time>
      </trkpt>
      <trkpt lat="46.679" lon="5.77975">
        <ele>488.1</ele>
        <time>2020-11-29T15:00:25Z</time>
      </trkpt>
      <trkpt lat="46.67899" lon="5.77968">
        <ele>488.8</ele>
        <time>2020-11-29T15:00:32Z</time>
      </trkpt>
      <trkpt lat="46.67896" lon="5.7796">
        <ele>489.1</ele>
        <time>2020-11-29T15:00:38Z</time>
      </trkpt>
      <trkpt lat="46.67894" lon="5.77954">
        <ele>489.4</ele>
        <time>2020-11-29T15:00:42Z</time>
      </trkpt>
      <trkpt lat="46.67892" lon="5.77948">
        <ele>490</ele>
        <time>2020-11-29T15:00:46Z</time>
      </trkpt>
      <trkpt lat="46.67888" lon="5.77943">
        <ele>490.7</ele>
        <time>2020-11-29T15:00:50Z</time>
      </trkpt>
      <trkpt lat="46.67883" lon="5.77941">
        <ele>491.9</ele>
        <time>2020-11-29T15:00:56Z</time>
      </trkpt>
      <trkpt lat="46.67879" lon="5.77942">
        <ele>492.3</ele>
        <time>2020-11-29T15:01:01Z</time>
      </trkpt>
      <trkpt lat="46.67875" lon="5.77945">
        <ele>492.5</ele>
        <time>2020-11-29T15:01:06Z</time>
      </trkpt>
      <trkpt lat="46.6787" lon="5.77949">
        <ele>492.6</ele>
        <time>2020-11-29T15:01:12Z</time>
      </trkpt>
      <trkpt lat="46.67867" lon="5.77955">
        <ele>492.7</ele>
        <time>2020-11-29T15:01:19Z</time>
      </trkpt>
      <trkpt lat="46.67867" lon="5.77962">
        <ele>492.7</ele>
        <time>2020-11-29T15:01:24Z</time>
      </trkpt>
      <trkpt lat="46.67868" lon="5.77969">
        <ele>492.4</ele>
        <time>2020-11-29T15:01:31Z</time>
      </trkpt>
      <trkpt lat="46.67866" lon="5.77975">
        <ele>492</ele>
        <time>2020-11-29T15:01:38Z</time>
      </trkpt>
    </trkseg>
  </trk>
</gpx>